Darstellungsparameter: Aktuell verwendete Einstellungen:
Skalierung der Graphiken ... ?
xyx+y,   Skalierungsfaktor:      Skalierung: Modus: x, Faktor: 1
Darstellungszeitraum ... ?
Vom - - bis: - -   Zeitraum: 18.07.2015 - 17.08.2015
Min/Max/Avg-Anzeige ... ?
Zeige MMA aktuell
Zeige MMA Monat
Zeige MMA alles
Zeige --A aktuell
Zeige --A Monat
Zeige --A alles
Keine MMA-Anzeige
MMA:
Keine MMA-Graphiken
MMA-Basis: 18.07.2015 - 17.08.2015
Quicknavigation für Darstellung... ?
Tage:      1T, 2T, 3T, 5T -1T -2T -3T -5T +1T +2T +3T +5T
Wochen: 1W, 2W, 3W -1W -2W -3W +1W +2W +3W
Monate: 1M, 3M, 6M -1M -3M -6M +1M +3M +6M
Jahre:    1J, 3J, 5J, 10J -1J -3J -5J -10J +1J +3J +5J +10J
Nutze für die Darstellung ... ?
Originaldaten oder Mittelwerte auf ...
Stundenbasis Tagesbasis Wochenbasis
Monatsbasis Jahresbasis      Datenbasis: Original-Daten
Darstellen als:
Statistik (Auto) Statistik J:M      Darstellung:
Zur Graphik,    zurück zur Übersicht aller Sensoren.
 
Tabellarische Datenbersicht: ?
 
Sensor: Nr:Datum:Temp:Feuchte:Taupunkt:
Aussen-T/F 1 18-07-2015 00:00:00 25.2 C 60 % 16.88 C
2 18-07-2015 00:05:00 25 C 61 % 16.96 C
3 18-07-2015 00:10:00 24.8 C 62 % 17.02 C
4 18-07-2015 00:15:00 24.6 C 63 % 17.09 C
5 18-07-2015 00:20:00 24.4 C 63 % 16.9 C
6 18-07-2015 00:25:00 24.3 C 63 % 16.81 C
7 18-07-2015 00:30:00 24.3 C 63 % 16.81 C
8 18-07-2015 00:35:00 24.2 C 64 % 16.96 C
9 18-07-2015 00:40:00 24.1 C 65 % 17.11 C
10 18-07-2015 00:45:00 23.8 C 65 % 16.83 C
11 18-07-2015 00:50:00 23.6 C 66 % 16.88 C
12 18-07-2015 00:55:00 23.6 C 66 % 16.88 C
13 18-07-2015 01:00:00 23.6 C 66 % 16.88 C
14 18-07-2015 01:05:00 23.1 C 68 % 16.87 C
15 18-07-2015 01:10:00 22.9 C 69 % 16.91 C
16 18-07-2015 01:15:00 22.9 C 68 % 16.68 C
17 18-07-2015 01:20:00 22.9 C 69 % 16.91 C
18 18-07-2015 01:25:00 23 C 69 % 17.01 C
19 18-07-2015 01:30:00 22.9 C 69 % 16.91 C
20 18-07-2015 01:35:00 22.7 C 69 % 16.72 C
21 18-07-2015 01:40:00 22.6 C 70 % 16.85 C
22 18-07-2015 01:45:00 22.4 C 71 % 16.88 C
23 18-07-2015 01:50:00 22.2 C 71 % 16.69 C
24 18-07-2015 01:55:00 22.1 C 72 % 16.82 C
25 18-07-2015 02:00:00 21.9 C 72 % 16.62 C
Sensor: Nr:Datum:Temp:Feuchte:Taupunkt:
Aussen-T/F 26 18-07-2015 02:05:00 21.8 C 72 % 16.53 C
27 18-07-2015 02:10:00 21.7 C 73 % 16.65 C
28 18-07-2015 02:15:00 21.7 C 72 % 16.43 C
29 18-07-2015 02:20:00 21.9 C 71 % 16.4 C
30 18-07-2015 02:25:00 22.1 C 71 % 16.6 C
31 18-07-2015 02:30:00 22.2 C 69 % 16.24 C
32 18-07-2015 02:35:00 22.5 C 68 % 16.3 C
33 18-07-2015 02:40:00 22.7 C 67 % 16.26 C
34 18-07-2015 02:45:00 22.7 C 67 % 16.26 C
35 18-07-2015 02:50:00 22.7 C 67 % 16.26 C
36 18-07-2015 02:55:00 22.5 C 68 % 16.3 C
37 18-07-2015 03:00:00 22.3 C 69 % 16.34 C
38 18-07-2015 03:05:00 22.1 C 70 % 16.37 C
39 18-07-2015 03:10:00 21.7 C 71 % 16.21 C
40 18-07-2015 03:15:00 21.4 C 72 % 16.14 C
41 18-07-2015 03:20:00 21.2 C 73 % 16.17 C
42 18-07-2015 03:25:00 21 C 74 % 16.19 C
43 18-07-2015 03:30:00 20.9 C 74 % 16.09 C
44 18-07-2015 03:35:00 20.9 C 74 % 16.09 C
45 18-07-2015 03:40:00 20.9 C 74 % 16.09 C
46 18-07-2015 03:45:00 20.8 C 74 % 16 C
47 18-07-2015 03:50:00 20.8 C 74 % 16 C
48 18-07-2015 03:55:00 20.7 C 75 % 16.11 C
49 18-07-2015 04:00:00 20.7 C 75 % 16.11 C
50 18-07-2015 04:05:00 20.7 C 75 % 16.11 C
Sensor: Nr:Datum:Temp:Feuchte:Taupunkt:
Aussen-T/F 51 18-07-2015 04:10:00 20.7 C 75 % 16.11 C
52 18-07-2015 04:15:00 20.7 C 75 % 16.11 C
53 18-07-2015 04:20:00 20.6 C 76 % 16.22 C
54 18-07-2015 04:25:00 20.6 C 76 % 16.22 C
55 18-07-2015 04:30:00 20.4 C 77 % 16.23 C
56 18-07-2015 04:35:00 20.4 C 77 % 16.23 C
57 18-07-2015 04:40:00 20.4 C 77 % 16.23 C
58 18-07-2015 04:45:00 20.5 C 77 % 16.33 C
59 18-07-2015 04:50:00 20.5 C 77 % 16.33 C
60 18-07-2015 04:55:00 20.4 C 77 % 16.23 C
61 18-07-2015 05:00:00 20.5 C 76 % 16.12 C
62 18-07-2015 05:05:00 20.6 C 76 % 16.22 C
63 18-07-2015 05:10:00 20.5 C 76 % 16.12 C
64 18-07-2015 05:15:00 20.5 C 76 % 16.12 C
65 18-07-2015 05:20:00 20.6 C 76 % 16.22 C
66 18-07-2015 05:25:00 20.8 C 77 % 16.62 C
67 18-07-2015 05:30:00 20.8 C 76 % 16.41 C
68 18-07-2015 05:35:00 20.8 C 78 % 16.82 C
69 18-07-2015 05:40:00 20.8 C 79 % 17.02 C
70 18-07-2015 05:45:00 20.7 C 80 % 17.13 C
71 18-07-2015 05:50:00 20.7 C 80 % 17.13 C
72 18-07-2015 05:55:00 20.7 C 81 % 17.32 C
73 18-07-2015 06:00:00 20.6 C 81 % 17.22 C
74 18-07-2015 06:05:00 20.6 C 81 % 17.22 C
75 18-07-2015 06:10:00 20.6 C 81 % 17.22 C
Sensor: Nr:Datum:Temp:Feuchte:Taupunkt:
Aussen-T/F 76 18-07-2015 06:15:00 20.6 C 81 % 17.22 C
77 18-07-2015 06:20:00 20.5 C 81 % 17.13 C
78 18-07-2015 06:25:00 20.5 C 82 % 17.32 C
79 18-07-2015 06:30:00 20.4 C 82 % 17.22 C
80 18-07-2015 06:35:00 20.4 C 82 % 17.22 C
81 18-07-2015 06:40:00 20.4 C 82 % 17.22 C
82 18-07-2015 06:45:00 20.4 C 82 % 17.22 C
83 18-07-2015 06:50:00 20.3 C 83 % 17.32 C
84 18-07-2015 06:55:00 20.3 C 83 % 17.32 C
85 18-07-2015 07:00:00 20.3 C 84 % 17.51 C
86 18-07-2015 07:05:00 20.3 C 84 % 17.51 C
87 18-07-2015 07:10:00 20.4 C 83 % 17.42 C
88 18-07-2015 07:15:00 20.5 C 83 % 17.51 C
89 18-07-2015 07:20:00 20.6 C 83 % 17.61 C
90 18-07-2015 07:25:00 20.6 C 83 % 17.61 C
91 18-07-2015 07:30:00 20.7 C 83 % 17.71 C
92 18-07-2015 07:35:00 20.7 C 83 % 17.71 C
93 18-07-2015 07:40:00 20.8 C 82 % 17.61 C
94 18-07-2015 07:45:00 20.9 C 82 % 17.71 C
95 18-07-2015 07:50:00 21 C 82 % 17.81 C
96 18-07-2015 07:55:00 21.1 C 82 % 17.91 C
97 18-07-2015 08:00:00 21.2 C 81 % 17.81 C
98 18-07-2015 08:05:00 21.2 C 81 % 17.81 C
99 18-07-2015 08:10:00 21.3 C 81 % 17.91 C
100 18-07-2015 08:15:00 21.4 C 80 % 17.81 C
Sensor: Nr:Datum:Temp:Feuchte:Taupunkt:
Aussen-T/F 101 18-07-2015 08:20:00 21.4 C 81 % 18 C
102 18-07-2015 08:25:00 21.5 C 80 % 17.9 C
103 18-07-2015 08:30:00 21.6 C 80 % 18 C
104 18-07-2015 08:35:00 21.6 C 80 % 18 C
105 18-07-2015 08:40:00 21.7 C 79 % 17.9 C
106 18-07-2015 08:45:00 21.7 C 79 % 17.9 C
107 18-07-2015 08:50:00 21.8 C 79 % 18 C
108 18-07-2015 08:55:00 21.8 C 79 % 18 C
109 18-07-2015 09:00:00 21.9 C 79 % 18.09 C
110 18-07-2015 09:05:00 22.1 C 78 % 18.08 C
111 18-07-2015 09:10:00 22.4 C 77 % 18.17 C
112 18-07-2015 09:15:00 22.7 C 76 % 18.25 C
113 18-07-2015 09:20:00 22.8 C 75 % 18.14 C
114 18-07-2015 09:25:00 22.9 C 74 % 18.02 C
115 18-07-2015 09:30:00 23.1 C 72 % 17.78 C
116 18-07-2015 09:35:00 23.2 C 71 % 17.65 C
117 18-07-2015 09:40:00 23.2 C 71 % 17.65 C
118 18-07-2015 09:45:00 23.2 C 70 % 17.42 C
119 18-07-2015 09:50:00 23.3 C 70 % 17.52 C
120 18-07-2015 09:55:00 23.4 C 69 % 17.39 C
121 18-07-2015 10:00:00 23.6 C 68 % 17.35 C
122 18-07-2015 10:05:00 23.7 C 70 % 17.9 C
123 18-07-2015 10:10:00 24 C 66 % 17.26 C
124 18-07-2015 10:15:00 24.3 C 66 % 17.54 C
125 18-07-2015 10:20:00 24.7 C 65 % 17.68 C
Sensor: Nr:Datum:Temp:Feuchte:Taupunkt:
Aussen-T/F 126 18-07-2015 10:25:00 25.1 C 63 % 17.56 C
127 18-07-2015 10:30:00 25.4 C 61 % 17.33 C
128 18-07-2015 10:35:00 25.6 C 60 % 17.26 C
129 18-07-2015 10:40:00 25.7 C 60 % 17.35 C
130 18-07-2015 10:45:00 25.7 C 60 % 17.35 C
131 18-07-2015 10:50:00 25.7 C 60 % 17.35 C
132 18-07-2015 10:55:00 25.7 C 60 % 17.35 C
133 18-07-2015 11:00:00 26.1 C 60 % 17.73 C
134 18-07-2015 11:05:00 26.3 C 58 % 17.38 C
135 18-07-2015 11:10:00 26.4 C 56 % 16.92 C
136 18-07-2015 11:15:00 26.2 C 56 % 16.73 C
137 18-07-2015 11:20:00 26.2 C 58 % 17.28 C
138 18-07-2015 11:25:00 26.4 C 56 % 16.92 C
139 18-07-2015 11:30:00 26.8 C 54 % 16.71 C
140 18-07-2015 11:35:00 26.9 C 54 % 16.81 C
141 18-07-2015 11:40:00 26.9 C 54 % 16.81 C
142 18-07-2015 11:45:00 26.8 C 54 % 16.71 C
143 18-07-2015 11:50:00 26.8 C 55 % 17 C
144 18-07-2015 11:55:00 27.1 C 54 % 16.99 C
145 18-07-2015 12:00:00 27.1 C 53 % 16.7 C
146 18-07-2015 12:05:00 27.2 C 53 % 16.79 C
147 18-07-2015 12:10:00 27.3 C 52 % 16.58 C
148 18-07-2015 12:15:00 27.3 C 52 % 16.58 C
149 18-07-2015 12:20:00 27.6 C 50 % 16.24 C
150 18-07-2015 12:25:00 27.8 C 48 % 15.78 C
Sensor: Nr:Datum:Temp:Feuchte:Taupunkt:
Aussen-T/F 151 18-07-2015 12:30:00 27.8 C 48 % 15.78 C
152 18-07-2015 12:35:00 27.7 C 49 % 16.01 C
153 18-07-2015 12:40:00 27.5 C 49 % 15.83 C
154 18-07-2015 12:45:00 27.4 C 49 % 15.74 C
155 18-07-2015 12:50:00 27.3 C 49 % 15.65 C
156 18-07-2015 12:55:00 27.3 C 49 % 15.65 C
157 18-07-2015 13:00:00 27.3 C 49 % 15.65 C
158 18-07-2015 13:05:00 27.3 C 50 % 15.97 C
159 18-07-2015 13:10:00 27.3 C 49 % 15.65 C
160 18-07-2015 13:15:00 27.6 C 48 % 15.6 C
161 18-07-2015 13:20:00 27.7 C 48 % 15.69 C
162 18-07-2015 13:25:00 27.7 C 48 % 15.69 C
163 18-07-2015 13:30:00 27.6 C 48 % 15.6 C
164 18-07-2015 13:35:00 27.6 C 48 % 15.6 C
165 18-07-2015 13:40:00 27.6 C 48 % 15.6 C
166 18-07-2015 13:45:00 27.8 C 47 % 15.45 C
167 18-07-2015 13:50:00 27.9 C 48 % 15.87 C
168 18-07-2015 13:55:00 27.9 C 46 % 15.21 C
169 18-07-2015 14:00:00 27.9 C 47 % 15.55 C
170 18-07-2015 14:05:00 27.9 C 46 % 15.21 C
171 18-07-2015 14:10:00 28.2 C 47 % 15.82 C
172 18-07-2015 14:15:00 28.2 C 45 % 15.14 C
173 18-07-2015 14:20:00 28.2 C 45 % 15.14 C
174 18-07-2015 14:25:00 28.1 C 46 % 15.39 C
175 18-07-2015 14:30:00 28.1 C 45 % 15.05 C
Sensor: Nr:Datum:Temp:Feuchte:Taupunkt:
Aussen-T/F 176 18-07-2015 14:35:00 28 C 45 % 14.96 C
177 18-07-2015 14:40:00 27.9 C 47 % 15.55 C
178 18-07-2015 14:45:00 27.9 C 44 % 14.52 C
179 18-07-2015 14:50:00 27.8 C 45 % 14.78 C
180 18-07-2015 14:55:00 27.8 C 44 % 14.43 C
181 18-07-2015 15:00:00 27.6 C 45 % 14.6 C
182 18-07-2015 15:05:00 27.6 C 47 % 15.27 C
183 18-07-2015 15:10:00 27.4 C 46 % 14.76 C
184 18-07-2015 15:15:00 27.3 C 47 % 15 C
185 18-07-2015 15:20:00 27.2 C 47 % 14.91 C
186 18-07-2015 15:25:00 27.2 C 49 % 15.56 C
187 18-07-2015 15:30:00 27.1 C 47 % 14.82 C
188 18-07-2015 15:35:00 27.1 C 47 % 14.82 C
189 18-07-2015 15:40:00 27 C 47 % 14.73 C
190 18-07-2015 15:45:00 26.9 C 46 % 14.3 C
191 18-07-2015 15:50:00 26.8 C 46 % 14.21 C
192 18-07-2015 15:55:00 26.8 C 46 % 14.21 C
193 18-07-2015 16:00:00 26.8 C 46 % 14.21 C
194 18-07-2015 16:05:00 26.8 C 46 % 14.21 C
195 18-07-2015 16:10:00 26.8 C 46 % 14.21 C
196 18-07-2015 16:15:00 26.7 C 47 % 14.45 C
197 18-07-2015 16:20:00 26.8 C 46 % 14.21 C
198 18-07-2015 16:25:00 26.9 C 45 % 13.96 C
199 18-07-2015 16:30:00 26.8 C 44 % 13.53 C
200 18-07-2015 16:35:00 26.7 C 46 % 14.12 C
Sensor: Nr:Datum:Temp:Feuchte:Taupunkt:
Aussen-T/F 201 18-07-2015 16:40:00 26.7 C 45 % 13.78 C
202 18-07-2015 16:45:00 26.7 C 45 % 13.78 C
203 18-07-2015 16:50:00 26.7 C 44 % 13.44 C
204 18-07-2015 16:55:00 26.8 C 44 % 13.53 C
205 18-07-2015 17:00:00 26.8 C 44 % 13.53 C
206 18-07-2015 17:05:00 26.8 C 44 % 13.53 C
207 18-07-2015 17:10:00 27 C 45 % 14.06 C
208 18-07-2015 17:15:00 27.1 C 45 % 14.15 C
209 18-07-2015 17:20:00 27.1 C 45 % 14.15 C
210 18-07-2015 17:25:00 27.1 C 45 % 14.15 C
211 18-07-2015 19:45:00 26.1 C 51 % 15.17 C
212 18-07-2015 19:50:00 25.8 C 52 % 15.2 C
213 18-07-2015 19:55:00 25.7 C 45 % 12.88 C
214 18-07-2015 20:00:00 25.8 C 48 % 13.96 C
215 18-07-2015 20:05:00 25.8 C 46 % 13.31 C
216 18-07-2015 20:10:00 25.9 C 44 % 12.72 C
217 18-07-2015 20:15:00 26.1 C 44 % 12.9 C
218 18-07-2015 20:20:00 26.2 C 44 % 12.99 C
219 18-07-2015 20:25:00 26.2 C 43 % 12.64 C
220 18-07-2015 20:30:00 26.2 C 43 % 12.64 C
221 18-07-2015 20:35:00 26 C 42 % 12.1 C
222 18-07-2015 20:40:00 26 C 42 % 12.1 C
223 18-07-2015 20:45:00 26 C 43 % 12.46 C
224 18-07-2015 20:50:00 25.4 C 43 % 11.92 C
225 18-07-2015 20:55:00 25.3 C 43 % 11.83 C
Sensor: Nr:Datum:Temp:Feuchte:Taupunkt:
Aussen-T/F 226 18-07-2015 21:00:00 25.1 C 44 % 12 C
227 18-07-2015 21:05:00 24.7 C 48 % 12.96 C
228 18-07-2015 21:10:00 24 C 51 % 13.24 C
229 18-07-2015 21:15:00 23.3 C 52 % 12.9 C
230 18-07-2015 21:20:00 22.8 C 53 % 12.73 C
231 18-07-2015 21:25:00 22.3 C 55 % 12.83 C
232 18-07-2015 21:30:00 22 C 55 % 12.55 C
233 18-07-2015 21:35:00 21.8 C 56 % 12.64 C
234 18-07-2015 21:40:00 21.6 C 58 % 12.99 C
235 18-07-2015 21:45:00 21.3 C 59 % 12.97 C
236 18-07-2015 21:50:00 21.2 C 60 % 13.13 C
237 18-07-2015 21:55:00 21.1 C 59 % 12.78 C
238 18-07-2015 22:00:00 20.9 C 59 % 12.59 C
239 18-07-2015 22:05:00 20.8 C 61 % 13.01 C
240 18-07-2015 22:10:00 20.8 C 61 % 13.01 C
241 18-07-2015 22:15:00 20.8 C 61 % 13.01 C
242 18-07-2015 22:20:00 20.6 C 61 % 12.82 C
243 18-07-2015 22:25:00 20.4 C 62 % 12.88 C
244 18-07-2015 22:30:00 20.3 C 62 % 12.79 C
245 18-07-2015 22:35:00 20.2 C 61 % 12.44 C
246 18-07-2015 22:40:00 20.2 C 61 % 12.44 C
247 18-07-2015 22:45:00 20.2 C 63 % 12.94 C
248 18-07-2015 22:50:00 20.1 C 63 % 12.84 C
249 18-07-2015 22:55:00 20 C 63 % 12.75 C
250 18-07-2015 23:00:00 19.9 C 63 % 12.65 C
Sensor: Nr:Datum:Temp:Feuchte:Taupunkt:
Aussen-T/F 251 18-07-2015 23:05:00 19.8 C 63 % 12.56 C
252 18-07-2015 23:10:00 19.7 C 63 % 12.46 C
253 18-07-2015 23:15:00 19.6 C 64 % 12.61 C
254 18-07-2015 23:20:00 19.5 C 64 % 12.51 C
255 18-07-2015 23:25:00 19.4 C 64 % 12.42 C
256 18-07-2015 23:30:00 19.4 C 64 % 12.42 C
257 18-07-2015 23:35:00 19.3 C 66 % 12.79 C
258 18-07-2015 23:40:00 19.3 C 65 % 12.56 C
259 18-07-2015 23:45:00 19.2 C 66 % 12.7 C
260 18-07-2015 23:50:00 19.2 C 66 % 12.7 C
261 18-07-2015 23:55:00 19.1 C 66 % 12.6 C
262 19-07-2015 00:00:00 18.9 C 67 % 12.64 C
263 19-07-2015 00:05:00 18.9 C 67 % 12.64 C
264 19-07-2015 00:10:00 18.8 C 68 % 12.77 C
265 19-07-2015 00:15:00 18.8 C 68 % 12.77 C
266 19-07-2015 05:10:00 16.7 C 91 % 15.22 C
267 19-07-2015 05:15:00 16.5 C 91 % 15.03 C
268 19-07-2015 05:20:00 16.3 C 91 % 14.83 C
269 19-07-2015 05:25:00 16.3 C 92 % 15 C
270 19-07-2015 05:30:00 16.2 C 92 % 14.9 C
271 19-07-2015 05:35:00 16.2 C 93 % 15.07 C
272 19-07-2015 05:40:00 16.1 C 93 % 14.97 C
273 19-07-2015 05:45:00 16.1 C 93 % 14.97 C
274 19-07-2015 07:00:00 16.4 C 95 % 15.6 C
275 19-07-2015 07:05:00 16.3 C 95 % 15.5 C
Sensor: Nr:Datum:Temp:Feuchte:Taupunkt:
Aussen-T/F 276 19-07-2015 07:10:00 16.3 C 94 % 15.33 C
277 19-07-2015 07:15:00 16.3 C 94 % 15.33 C
278 19-07-2015 08:40:00 17.1 C 95 % 16.29 C
279 19-07-2015 08:45:00 17.1 C 95 % 16.29 C
280 19-07-2015 08:50:00 17.2 C 95 % 16.39 C
281 19-07-2015 08:55:00 17.2 C 95 % 16.39 C
282 19-07-2015 09:00:00 17.2 C 95 % 16.39 C
283 19-07-2015 09:05:00 17.2 C 95 % 16.39 C
284 19-07-2015 09:10:00 17.2 C 95 % 16.39 C
285 19-07-2015 09:15:00 17.2 C 95 % 16.39 C
286 19-07-2015 09:40:00 18 C 100 % 18 C
287 19-07-2015 09:45:00 18 C 100 % 18 C
288 19-07-2015 09:50:00 18.1 C 94 % 17.12 C
289 19-07-2015 09:55:00 18.3 C 94 % 17.32 C
290 19-07-2015 10:00:00 18.3 C 94 % 17.32 C
291 19-07-2015 10:05:00 18.3 C 94 % 17.32 C
292 19-07-2015 10:25:00 19.8 C 94 % 18.81 C
293 19-07-2015 10:30:00 20.1 C 93 % 18.93 C
294 19-07-2015 10:35:00 20.4 C 92 % 19.06 C
295 19-07-2015 10:40:00 20.4 C 90 % 18.7 C
296 19-07-2015 10:45:00 21 C 89 % 19.12 C
297 19-07-2015 10:50:00 21.1 C 89 % 19.22 C
298 19-07-2015 10:55:00 21.4 C 88 % 19.33 C
299 19-07-2015 11:00:00 21.7 C 87 % 19.44 C
300 19-07-2015 11:05:00 21.9 C 86 % 19.45 C
Sensor: Nr:Datum:Temp:Feuchte:Taupunkt:
Aussen-T/F 301 19-07-2015 11:10:00 22.1 C 87 % 19.83 C
302 19-07-2015 11:15:00 22.2 C 86 % 19.75 C
303 19-07-2015 11:20:00 22.3 C 85 % 19.65 C
304 19-07-2015 11:25:00 22.4 C 84 % 19.56 C
305 19-07-2015 11:30:00 22.5 C 84 % 19.66 C
306 19-07-2015 11:35:00 22.7 C 84 % 19.86 C
307 19-07-2015 11:40:00 22.9 C 82 % 19.66 C
308 19-07-2015 11:45:00 23.2 C 82 % 19.95 C
309 19-07-2015 11:50:00 23.3 C 81 % 19.85 C
310 19-07-2015 11:55:00 23.2 C 80 % 19.56 C
311 19-07-2015 12:00:00 22.9 C 80 % 19.26 C
312 19-07-2015 12:05:00 22.6 C 81 % 19.17 C
313 19-07-2015 12:10:00 22.4 C 83 % 19.37 C
314 19-07-2015 12:15:00 22.4 C 82 % 19.17 C
315 19-07-2015 12:20:00 22.4 C 82 % 19.17 C
316 19-07-2015 12:25:00 22.4 C 83 % 19.37 C
317 19-07-2015 12:30:00 22.7 C 81 % 19.27 C
318 19-07-2015 12:35:00 22.8 C 80 % 19.17 C
319 19-07-2015 12:40:00 23.1 C 81 % 19.66 C
320 19-07-2015 12:45:00 23.3 C 79 % 19.45 C
321 19-07-2015 12:50:00 23.4 C 77 % 19.14 C
322 19-07-2015 12:55:00 23.5 C 79 % 19.65 C
323 19-07-2015 13:00:00 23.6 C 78 % 19.54 C
324 19-07-2015 13:05:00 23.6 C 77 % 19.33 C
325 19-07-2015 13:10:00 23.5 C 78 % 19.44 C
Sensor: Nr:Datum:Temp:Feuchte:Taupunkt:
Aussen-T/F 326 19-07-2015 13:15:00 23.3 C 78 % 19.25 C
327 19-07-2015 13:20:00 23.2 C 78 % 19.15 C
328 19-07-2015 13:25:00 23.1 C 79 % 19.26 C
329 19-07-2015 13:30:00 23 C 81 % 19.56 C
330 19-07-2015 13:35:00 22.9 C 81 % 19.46 C
331 19-07-2015 13:40:00 23 C 80 % 19.36 C
332 19-07-2015 13:45:00 23.1 C 80 % 19.46 C
333 19-07-2015 13:50:00 23.1 C 81 % 19.66 C
334 19-07-2015 13:55:00 23.3 C 81 % 19.85 C
335 19-07-2015 14:00:00 23.6 C 78 % 19.54 C
336 19-07-2015 14:05:00 23.8 C 76 % 19.31 C
337 19-07-2015 14:10:00 23.9 C 76 % 19.41 C
338 19-07-2015 14:15:00 23.9 C 76 % 19.41 C
339 19-07-2015 14:20:00 23.9 C 75 % 19.2 C
340 19-07-2015 14:25:00 24 C 75 % 19.29 C
341 19-07-2015 14:30:00 24.1 C 74 % 19.17 C
342 19-07-2015 14:35:00 23.9 C 74 % 18.98 C
343 19-07-2015 14:40:00 23.7 C 76 % 19.22 C
344 19-07-2015 14:45:00 23.5 C 76 % 19.02 C
345 19-07-2015 14:50:00 23.5 C 76 % 19.02 C
346 19-07-2015 14:55:00 23.5 C 75 % 18.81 C
347 19-07-2015 15:00:00 23.6 C 78 % 19.54 C
348 19-07-2015 15:05:00 23.6 C 76 % 19.12 C
349 19-07-2015 15:10:00 23.7 C 75 % 19 C
350 19-07-2015 15:15:00 23.8 C 73 % 18.67 C
Sensor: Nr:Datum:Temp:Feuchte:Taupunkt:
Aussen-T/F 351 19-07-2015 15:20:00 24.1 C 73 % 18.96 C
352 19-07-2015 15:25:00 24.3 C 72 % 18.93 C
353 19-07-2015 15:30:00 24.5 C 71 % 18.89 C
354 19-07-2015 15:35:00 24.5 C 70 % 18.67 C
355 19-07-2015 15:40:00 24.4 C 69 % 18.34 C
356 19-07-2015 15:45:00 24.4 C 69 % 18.34 C
357 19-07-2015 15:50:00 24.4 C 69 % 18.34 C
358 19-07-2015 15:55:00 24.4 C 71 % 18.8 C
359 19-07-2015 16:00:00 24.1 C 74 % 19.17 C
360 19-07-2015 16:05:00 23.7 C 76 % 19.22 C
361 19-07-2015 16:10:00 23.3 C 78 % 19.25 C
362 19-07-2015 16:15:00 22.9 C 79 % 19.06 C
363 19-07-2015 16:20:00 22.7 C 80 % 19.07 C
364 19-07-2015 16:25:00 22.4 C 82 % 19.17 C
365 19-07-2015 16:30:00 22.3 C 83 % 19.27 C
366 19-07-2015 16:35:00 22.3 C 83 % 19.27 C
367 19-07-2015 16:40:00 22.3 C 84 % 19.46 C
368 19-07-2015 16:45:00 22.3 C 84 % 19.46 C
369 19-07-2015 16:50:00 22.5 C 82 % 19.27 C
370 19-07-2015 16:55:00 22.8 C 81 % 19.37 C
371 19-07-2015 17:00:00 23.2 C 75 % 18.52 C
372 19-07-2015 17:05:00 23.8 C 69 % 17.77 C
373 19-07-2015 17:10:00 24 C 69 % 17.96 C
374 19-07-2015 17:15:00 24.1 C 66 % 17.35 C
375 19-07-2015 17:20:00 23.9 C 66 % 17.16 C
Sensor: Nr:Datum:Temp:Feuchte:Taupunkt:
Aussen-T/F 376 19-07-2015 17:25:00 23.8 C 66 % 17.07 C
377 19-07-2015 17:30:00 23.5 C 67 % 17.02 C
378 19-07-2015 17:35:00 23.3 C 66 % 16.59 C
379 19-07-2015 17:40:00 23.2 C 67 % 16.73 C
380 19-07-2015 17:45:00 23.3 C 68 % 17.06 C
381 19-07-2015 17:50:00 23.4 C 68 % 17.16 C
382 19-07-2015 17:55:00 23.4 C 69 % 17.39 C
383 19-07-2015 18:00:00 23.4 C 69 % 17.39 C
384 19-07-2015 18:05:00 23.4 C 68 % 17.16 C
385 19-07-2015 18:10:00 23.4 C 65 % 16.45 C
386 19-07-2015 18:15:00 23.3 C 65 % 16.35 C
387 19-07-2015 18:20:00 23.2 C 66 % 16.5 C
388 19-07-2015 18:25:00 23.2 C 65 % 16.26 C
389 19-07-2015 18:30:00 23.1 C 65 % 16.16 C
390 19-07-2015 18:35:00 23.1 C 65 % 16.16 C
391 19-07-2015 18:40:00 23 C 66 % 16.31 C
392 19-07-2015 18:45:00 23 C 66 % 16.31 C
393 19-07-2015 18:50:00 23 C 67 % 16.54 C
394 19-07-2015 18:55:00 23 C 67 % 16.54 C
395 19-07-2015 19:00:00 23 C 66 % 16.31 C
396 19-07-2015 19:05:00 22.9 C 67 % 16.45 C
397 19-07-2015 19:10:00 22.9 C 67 % 16.45 C
398 19-07-2015 19:15:00 22.9 C 67 % 16.45 C
399 19-07-2015 19:20:00 22.9 C 68 % 16.68 C
400 19-07-2015 19:25:00 22.8 C 67 % 16.35 C
Sensor: Nr:Datum:Temp:Feuchte:Taupunkt:
Aussen-T/F 401 19-07-2015 19:30:00 22.8 C 67 % 16.35 C
402 19-07-2015 19:35:00 22.9 C 67 % 16.45 C
403 19-07-2015 19:40:00 22.9 C 66 % 16.21 C
404 19-07-2015 19:45:00 22.8 C 66 % 16.12 C
405 19-07-2015 19:50:00 22.7 C 66 % 16.02 C
406 19-07-2015 19:55:00 22.6 C 67 % 16.16 C
407 19-07-2015 20:00:00 22.4 C 67 % 15.97 C
408 19-07-2015 20:05:00 22.3 C 68 % 16.11 C
409 19-07-2015 20:10:00 22.2 C 68 % 16.01 C
410 19-07-2015 20:15:00 22.1 C 69 % 16.15 C
411 19-07-2015 20:20:00 22 C 70 % 16.28 C
412 19-07-2015 20:25:00 21.9 C 70 % 16.18 C
413 19-07-2015 20:30:00 21.9 C 71 % 16.4 C
414 19-07-2015 20:35:00 21.8 C 71 % 16.31 C
415 19-07-2015 20:40:00 21.8 C 71 % 16.31 C
416 19-07-2015 20:45:00 21.8 C 71 % 16.31 C
417 19-07-2015 20:50:00 21.7 C 72 % 16.43 C
418 19-07-2015 20:55:00 21.7 C 72 % 16.43 C
419 19-07-2015 21:00:00 21.7 C 72 % 16.43 C
420 19-07-2015 21:05:00 21.6 C 73 % 16.55 C
421 19-07-2015 21:10:00 21.6 C 73 % 16.55 C
422 19-07-2015 21:15:00 21.6 C 73 % 16.55 C
423 19-07-2015 21:20:00 21.5 C 73 % 16.46 C
424 19-07-2015 21:25:00 21.5 C 73 % 16.46 C
425 19-07-2015 21:30:00 21.5 C 73 % 16.46 C
Sensor: Nr:Datum:Temp:Feuchte:Taupunkt:
Aussen-T/F 426 20-07-2015 07:10:00 18.3 C 92 % 16.98 C
427 20-07-2015 07:15:00 18.3 C 92 % 16.98 C
428 20-07-2015 07:20:00 18.3 C 93 % 17.15 C
429 20-07-2015 07:25:00 18.3 C 93 % 17.15 C
430 20-07-2015 07:30:00 18.3 C 93 % 17.15 C
431 20-07-2015 07:35:00 18.3 C 93 % 17.15 C
432 20-07-2015 07:40:00 18.3 C 93 % 17.15 C
433 20-07-2015 07:45:00 18.3 C 93 % 17.15 C
434 20-07-2015 07:50:00 18.3 C 94 % 17.32 C
435 20-07-2015 07:55:00 18.3 C 94 % 17.32 C
436 20-07-2015 08:00:00 18.4 C 94 % 17.42 C
437 20-07-2015 08:05:00 18.4 C 94 % 17.42 C
438 20-07-2015 08:10:00 18.4 C 94 % 17.42 C
439 20-07-2015 08:15:00 18.4 C 94 % 17.42 C
440 20-07-2015 08:20:00 18.4 C 94 % 17.42 C
441 20-07-2015 08:25:00 18.5 C 94 % 17.52 C
442 20-07-2015 08:30:00 18.6 C 94 % 17.62 C
443 20-07-2015 08:35:00 18.6 C 94 % 17.62 C
444 20-07-2015 08:40:00 18.6 C 95 % 17.78 C
445 20-07-2015 08:45:00 18.6 C 95 % 17.78 C
446 20-07-2015 08:50:00 18.6 C 95 % 17.78 C
447 20-07-2015 08:55:00 18.7 C 95 % 17.88 C
448 20-07-2015 09:00:00 18.7 C 95 % 17.88 C
449 20-07-2015 09:05:00 18.8 C 95 % 17.98 C
450 20-07-2015 09:10:00 18.9 C 95 % 18.08 C
Sensor: Nr:Datum:Temp:Feuchte:Taupunkt:
Aussen-T/F 451 20-07-2015 09:15:00 18.9 C 95 % 18.08 C
452 20-07-2015 09:20:00 18.9 C 95 % 18.08 C
453 20-07-2015 09:40:00 19.2 C 94 % 18.21 C
454 20-07-2015 09:45:00 19.2 C 94 % 18.21 C
455 20-07-2015 09:50:00 19.3 C 95 % 18.48 C
456 20-07-2015 09:55:00 19.4 C 94 % 18.41 C
457 20-07-2015 10:00:00 19.4 C 94 % 18.41 C
458 20-07-2015 10:05:00 19.5 C 94 % 18.51 C
459 20-07-2015 10:10:00 19.6 C 94 % 18.61 C
460 20-07-2015 10:15:00 19.8 C 94 % 18.81 C
461 20-07-2015 10:20:00 20 C 94 % 19 C
462 20-07-2015 10:25:00 20.1 C 94 % 19.1 C
463 20-07-2015 10:30:00 20.3 C 94 % 19.3 C
464 20-07-2015 10:35:00 20.3 C 92 % 18.96 C
465 20-07-2015 10:40:00 20.5 C 92 % 19.15 C
466 20-07-2015 10:45:00 20.6 C 92 % 19.25 C
467 20-07-2015 10:50:00 20.6 C 92 % 19.25 C
468 20-07-2015 10:55:00 20.6 C 91 % 19.08 C
469 20-07-2015 11:00:00 20.6 C 91 % 19.08 C
470 20-07-2015 11:05:00 20.7 C 92 % 19.35 C
471 20-07-2015 11:10:00 20.8 C 92 % 19.45 C
472 20-07-2015 11:15:00 20.9 C 91 % 19.37 C
473 20-07-2015 11:20:00 21.1 C 92 % 19.75 C
474 20-07-2015 11:25:00 21.3 C 92 % 19.95 C
475 20-07-2015 11:30:00 21.4 C 91 % 19.87 C
Sensor: Nr:Datum:Temp:Feuchte:Taupunkt:
Aussen-T/F 476 20-07-2015 11:35:00 21.6 C 90 % 19.89 C
477 20-07-2015 11:40:00 21.8 C 90 % 20.09 C
478 20-07-2015 11:45:00 21.9 C 88 % 19.82 C
479 20-07-2015 11:50:00 22 C 89 % 20.1 C
480 20-07-2015 11:55:00 22.1 C 87 % 19.83 C
481 20-07-2015 12:00:00 22.1 C 89 % 20.2 C
482 20-07-2015 12:05:00 22.1 C 88 % 20.02 C
483 20-07-2015 12:10:00 22.1 C 87 % 19.83 C
484 20-07-2015 12:15:00 22.2 C 87 % 19.93 C
485 20-07-2015 12:20:00 22.3 C 86 % 19.84 C
486 20-07-2015 12:25:00 22.6 C 87 % 20.32 C
487 20-07-2015 12:30:00 22.9 C 84 % 20.05 C
488 20-07-2015 12:35:00 23.5 C 84 % 20.64 C
489 20-07-2015 12:40:00 24 C 80 % 20.33 C
490 20-07-2015 12:45:00 24.4 C 79 % 20.52 C
491 20-07-2015 12:50:00 24.4 C 77 % 20.1 C
492 20-07-2015 12:55:00 24.3 C 77 % 20.01 C
493 20-07-2015 13:00:00 24.1 C 78 % 20.02 C
494 20-07-2015 13:05:00 24.2 C 78 % 20.12 C
495 20-07-2015 13:10:00 24.4 C 77 % 20.1 C
496 20-07-2015 13:15:00 24.4 C 77 % 20.1 C
497 20-07-2015 13:20:00 24.4 C 79 % 20.52 C
498 20-07-2015 13:25:00 24.4 C 76 % 19.89 C
499 20-07-2015 13:30:00 24.4 C 75 % 19.68 C
500 20-07-2015 13:35:00 24.4 C 78 % 20.31 C
Sensor: Nr:Datum:Temp:Feuchte:Taupunkt:
Aussen-T/F 501 20-07-2015 13:40:00 24.3 C 79 % 20.42 C
502 20-07-2015 13:45:00 24 C 78 % 19.92 C
503 20-07-2015 13:50:00 23.7 C 80 % 20.04 C
504 20-07-2015 13:55:00 23.6 C 81 % 20.15 C
505 20-07-2015 14:00:00 23.6 C 82 % 20.34 C
506 20-07-2015 14:05:00 23.4 C 81 % 19.95 C
507 20-07-2015 14:10:00 23.2 C 84 % 20.34 C
508 20-07-2015 14:15:00 22.8 C 84 % 19.95 C
509 20-07-2015 14:20:00 22.6 C 86 % 20.14 C
510 20-07-2015 14:25:00 22.4 C 89 % 20.5 C
511 20-07-2015 14:30:00 22.3 C 90 % 20.58 C
512 20-07-2015 14:35:00 22.2 C 90 % 20.48 C
513 20-07-2015 14:40:00 22.1 C 90 % 20.38 C
514 20-07-2015 14:45:00 21.9 C 91 % 20.36 C
515 20-07-2015 14:50:00 21.9 C 92 % 20.54 C
516 20-07-2015 14:55:00 21.9 C 92 % 20.54 C
517 20-07-2015 15:00:00 21.9 C 93 % 20.72 C
518 20-07-2015 15:05:00 21.9 C 93 % 20.72 C
519 20-07-2015 15:45:00 22.6 C 91 % 21.05 C
520 20-07-2015 15:50:00 22.8 C 91 % 21.25 C
521 20-07-2015 15:55:00 22.8 C 90 % 21.07 C
522 20-07-2015 16:00:00 23 C 91 % 21.45 C
523 20-07-2015 16:05:00 23.3 C 92 % 21.93 C
524 20-07-2015 16:10:00 23.6 C 91 % 22.04 C
525 20-07-2015 16:15:00 23.9 C 89 % 21.97 C
Sensor: Nr:Datum:Temp:Feuchte:Taupunkt:
Aussen-T/F 526 20-07-2015 16:20:00 24.1 C 86 % 21.61 C
527 20-07-2015 16:25:00 24.2 C 89 % 22.27 C
528 20-07-2015 16:30:00 24.1 C 88 % 21.99 C
529 20-07-2015 16:35:00 24.2 C 84 % 21.32 C
530 20-07-2015 16:40:00 24.4 C 84 % 21.52 C
531 20-07-2015 16:45:00 24.7 C 86 % 22.2 C
532 20-07-2015 16:50:00 25.1 C 81 % 21.61 C
533 20-07-2015 16:55:00 25.8 C 80 % 22.08 C
534 20-07-2015 17:00:00 26.1 C 80 % 22.38 C
535 20-07-2015 17:05:00 25.8 C 77 % 21.46 C
536 20-07-2015 17:10:00 25.6 C 81 % 22.09 C
537 20-07-2015 17:15:00 25.4 C 81 % 21.9 C
538 20-07-2015 17:20:00 25.4 C 79 % 21.49 C
539 20-07-2015 17:25:00 25.3 C 80 % 21.6 C
540 20-07-2015 17:30:00 25.1 C 79 % 21.2 C
541 20-07-2015 17:35:00 24.9 C 81 % 21.41 C
542 20-07-2015 17:40:00 24.9 C 81 % 21.41 C
543 20-07-2015 17:45:00 24.8 C 81 % 21.31 C
544 20-07-2015 17:50:00 24.8 C 82 % 21.52 C
545 20-07-2015 17:55:00 24.8 C 80 % 21.11 C
546 20-07-2015 18:00:00 24.8 C 77 % 20.49 C
547 20-07-2015 18:05:00 24.9 C 79 % 21 C
548 20-07-2015 18:10:00 24.8 C 78 % 20.7 C
549 20-07-2015 18:15:00 24.7 C 79 % 20.81 C
550 20-07-2015 18:20:00 24.7 C 77 % 20.39 C
Sensor: Nr:Datum:Temp:Feuchte:Taupunkt:
Aussen-T/F 551 20-07-2015 18:25:00 24.7 C 79 % 20.81 C
552 20-07-2015 18:30:00 24.6 C 80 % 20.92 C
553 20-07-2015 18:35:00 24.5 C 83 % 21.42 C
554 20-07-2015 18:40:00 24.2 C 85 % 21.52 C
555 20-07-2015 18:45:00 23.9 C 84 % 21.03 C
556 20-07-2015 18:50:00 23.9 C 82 % 20.64 C
557 20-07-2015 18:55:00 24.1 C 85 % 21.42 C
558 20-07-2015 19:00:00 23.9 C 85 % 21.22 C
559 20-07-2015 19:05:00 23.8 C 85 % 21.12 C
560 20-07-2015 19:10:00 23.8 C 84 % 20.93 C
561 20-07-2015 19:15:00 23.9 C 83 % 20.83 C
562 20-07-2015 19:20:00 23.8 C 84 % 20.93 C
563 20-07-2015 19:25:00 23.6 C 85 % 20.93 C
564 20-07-2015 19:30:00 23.4 C 87 % 21.11 C
565 20-07-2015 19:35:00 23.1 C 88 % 21 C
566 20-07-2015 19:40:00 22.9 C 88 % 20.81 C
567 20-07-2015 19:45:00 22.9 C 89 % 20.99 C
568 20-07-2015 19:50:00 22.8 C 89 % 20.89 C
569 20-07-2015 19:55:00 22.6 C 90 % 20.87 C
570 20-07-2015 20:00:00 22.4 C 90 % 20.68 C
571 20-07-2015 20:05:00 22.4 C 89 % 20.5 C
572 20-07-2015 20:10:00 22.7 C 88 % 20.61 C
573 20-07-2015 20:15:00 22.7 C 88 % 20.61 C
574 20-07-2015 20:20:00 22.7 C 89 % 20.79 C
575 20-07-2015 20:25:00 22.5 C 89 % 20.59 C
Sensor: Nr:Datum:Temp:Feuchte:Taupunkt:
Aussen-T/F 576 20-07-2015 20:30:00 22.4 C 90 % 20.68 C
577 20-07-2015 20:35:00 22.3 C 90 % 20.58 C
578 20-07-2015 20:40:00 22.2 C 90 % 20.48 C
579 20-07-2015 20:45:00 22.1 C 90 % 20.38 C
580 20-07-2015 20:50:00 22 C 90 % 20.28 C
581 20-07-2015 20:55:00 21.9 C 91 % 20.36 C
582 20-07-2015 21:00:00 21.8 C 91 % 20.26 C
583 20-07-2015 21:05:00 21.8 C 91 % 20.26 C
584 20-07-2015 21:10:00 21.7 C 91 % 20.17 C
585 20-07-2015 21:15:00 21.6 C 92 % 20.24 C
586 20-07-2015 21:20:00 21.5 C 92 % 20.14 C
587 20-07-2015 21:25:00 21.4 C 92 % 20.05 C
588 20-07-2015 21:30:00 21.3 C 93 % 20.12 C
589 20-07-2015 21:35:00 21.4 C 93 % 20.22 C
590 20-07-2015 21:40:00 21.4 C 93 % 20.22 C
591 20-07-2015 21:45:00 21.4 C 92 % 20.05 C
592 20-07-2015 21:50:00 21.3 C 93 % 20.12 C
593 20-07-2015 21:55:00 21.3 C 93 % 20.12 C
594 20-07-2015 22:00:00 21.2 C 93 % 20.02 C
595 20-07-2015 22:05:00 21.1 C 93 % 19.92 C
596 20-07-2015 22:10:00 20.9 C 93 % 19.72 C
597 20-07-2015 22:15:00 20.8 C 93 % 19.63 C
598 20-07-2015 22:20:00 20.7 C 93 % 19.53 C
599 20-07-2015 22:25:00 20.6 C 93 % 19.43 C
600 20-07-2015 22:30:00 20.5 C 93 % 19.33 C
Sensor: Nr:Datum:Temp:Feuchte:Taupunkt:
Aussen-T/F 601 20-07-2015 22:35:00 20.4 C 93 % 19.23 C
602 20-07-2015 22:40:00 20.4 C 94 % 19.4 C
603 20-07-2015 22:45:00 20.3 C 93 % 19.13 C
604 20-07-2015 22:50:00 20.3 C 94 % 19.3 C
605 20-07-2015 22:55:00 20.3 C 94 % 19.3 C
606 21-07-2015 02:25:00 18.7 C 95 % 17.88 C
607 21-07-2015 02:30:00 18.7 C 95 % 17.88 C
608 21-07-2015 02:35:00 18.8 C 96 % 18.15 C
609 21-07-2015 02:40:00 18.8 C 96 % 18.15 C
610 21-07-2015 03:55:00 19 C 96 % 18.35 C
611 21-07-2015 04:00:00 19 C 96 % 18.35 C
612 21-07-2015 04:05:00 18.9 C 96 % 18.25 C
613 21-07-2015 04:10:00 18.9 C 96 % 18.25 C
614 21-07-2015 04:15:00 18.9 C 96 % 18.25 C
615 21-07-2015 04:20:00 18.8 C 96 % 18.15 C
616 21-07-2015 04:25:00 18.8 C 96 % 18.15 C
617 21-07-2015 04:30:00 18.8 C 96 % 18.15 C
618 21-07-2015 05:30:00 18.3 C 96 % 17.65 C
619 21-07-2015 05:35:00 18.3 C 96 % 17.65 C
620 21-07-2015 07:25:00 18.4 C 97 % 17.91 C
621 21-07-2015 07:30:00 18.6 C 96 % 17.95 C
622 21-07-2015 07:35:00 18.7 C 96 % 18.05 C
623 21-07-2015 07:40:00 18.8 C 97 % 18.31 C
624 21-07-2015 07:45:00 18.8 C 97 % 18.31 C
625 21-07-2015 08:05:00 19.9 C 94 % 18.91 C
Sensor: Nr:Datum:Temp:Feuchte:Taupunkt:
Aussen-T/F 626 21-07-2015 08:10:00 20.3 C 93 % 19.13 C
627 21-07-2015 08:15:00 20.7 C 91 % 19.18 C
628 21-07-2015 08:20:00 21.1 C 90 % 19.39 C
629 21-07-2015 08:25:00 21.4 C 88 % 19.33 C
630 21-07-2015 08:30:00 21.7 C 87 % 19.44 C
631 21-07-2015 08:35:00 21.9 C 86 % 19.45 C
632 21-07-2015 08:40:00 22 C 85 % 19.36 C
633 21-07-2015 08:45:00 22.2 C 85 % 19.56 C
634 21-07-2015 08:50:00 22.2 C 85 % 19.56 C
635 21-07-2015 08:55:00 22.7 C 85 % 20.05 C
636 21-07-2015 09:00:00 22.8 C 85 % 20.14 C
637 21-07-2015 09:05:00 22.7 C 82 % 19.47 C
638 21-07-2015 09:10:00 22.7 C 82 % 19.47 C
639 21-07-2015 09:15:00 22.6 C 82 % 19.37 C
640 21-07-2015 09:20:00 22.5 C 83 % 19.47 C
641 21-07-2015 09:25:00 22.5 C 82 % 19.27 C
642 21-07-2015 09:30:00 22.3 C 82 % 19.08 C
643 21-07-2015 09:35:00 22.3 C 82 % 19.08 C
644 21-07-2015 09:40:00 22.8 C 82 % 19.56 C
645 21-07-2015 09:45:00 22.8 C 81 % 19.37 C
646 21-07-2015 09:50:00 22.8 C 81 % 19.37 C
647 21-07-2015 09:55:00 22.9 C 81 % 19.46 C
648 21-07-2015 10:00:00 22.9 C 81 % 19.46 C
649 21-07-2015 10:05:00 23.2 C 81 % 19.76 C
650 21-07-2015 10:10:00 23.4 C 79 % 19.55 C
Sensor: Nr:Datum:Temp:Feuchte:Taupunkt:
Aussen-T/F 651 21-07-2015 10:15:00 23.4 C 78 % 19.34 C
652 21-07-2015 10:20:00 23.5 C 79 % 19.65 C
653 21-07-2015 10:25:00 23.7 C 78 % 19.63 C
654 21-07-2015 10:30:00 23.9 C 77 % 19.62 C
655 21-07-2015 10:35:00 24.2 C 75 % 19.49 C
656 21-07-2015 10:40:00 24.3 C 74 % 19.37 C
657 21-07-2015 10:45:00 24.4 C 74 % 19.46 C
658 21-07-2015 10:50:00 24.6 C 74 % 19.66 C
659 21-07-2015 10:55:00 24.8 C 73 % 19.63 C
660 21-07-2015 11:00:00 24.6 C 73 % 19.44 C
661 21-07-2015 11:05:00 24.6 C 74 % 19.66 C
662 21-07-2015 11:10:00 24.8 C 75 % 20.06 C
663 21-07-2015 11:15:00 24.9 C 72 % 19.5 C
664 21-07-2015 11:20:00 25 C 73 % 19.82 C
665 21-07-2015 11:25:00 24.9 C 73 % 19.72 C
666 21-07-2015 11:30:00 25 C 72 % 19.6 C
667 21-07-2015 11:35:00 25.2 C 72 % 19.79 C
668 21-07-2015 11:40:00 25.4 C 72 % 19.98 C
669 21-07-2015 11:45:00 25.6 C 70 % 19.72 C
670 21-07-2015 11:50:00 25.7 C 72 % 20.27 C
671 21-07-2015 11:55:00 25.9 C 70 % 20.01 C
672 21-07-2015 12:00:00 26.2 C 67 % 19.59 C
673 21-07-2015 12:05:00 26.6 C 68 % 20.2 C
674 21-07-2015 12:10:00 26.5 C 65 % 19.38 C
675 21-07-2015 12:15:00 26.3 C 66 % 19.44 C
Sensor: Nr:Datum:Temp:Feuchte:Taupunkt:
Aussen-T/F 676 21-07-2015 12:20:00 26.4 C 66 % 19.53 C
677 21-07-2015 12:25:00 26.7 C 67 % 20.06 C
678 21-07-2015 12:30:00 26.8 C 65 % 19.67 C
679 21-07-2015 12:35:00 26.9 C 65 % 19.76 C
680 21-07-2015 12:40:00 27.2 C 64 % 19.79 C
681 21-07-2015 12:45:00 27.4 C 64 % 19.98 C
682 21-07-2015 12:50:00 27.8 C 61 % 19.59 C
683 21-07-2015 12:55:00 27.9 C 62 % 19.94 C
684 21-07-2015 13:00:00 28.2 C 61 % 19.96 C
685 21-07-2015 13:05:00 28.4 C 60 % 19.88 C
686 21-07-2015 13:10:00 28.6 C 59 % 19.8 C
687 21-07-2015 13:15:00 28.7 C 58 % 19.62 C
688 21-07-2015 13:20:00 28.8 C 58 % 19.71 C
689 21-07-2015 13:25:00 28.8 C 59 % 19.99 C
690 21-07-2015 13:30:00 28.7 C 58 % 19.62 C
691 21-07-2015 13:35:00 28.4 C 59 % 19.61 C
692 21-07-2015 13:40:00 28.4 C 59 % 19.61 C
693 21-07-2015 13:45:00 28.8 C 58 % 19.71 C
694 21-07-2015 13:50:00 29 C 58 % 19.9 C
695 21-07-2015 13:55:00 29.4 C 58 % 20.27 C
696 21-07-2015 14:00:00 29.7 C 54 % 19.39 C
697 21-07-2015 14:05:00 29.7 C 55 % 19.69 C
698 21-07-2015 14:10:00 29.9 C 54 % 19.58 C
699 21-07-2015 14:15:00 29.7 C 54 % 19.39 C
700 21-07-2015 14:20:00 29.4 C 54 % 19.12 C
Sensor: Nr:Datum:Temp:Feuchte:Taupunkt:
Aussen-T/F 701 21-07-2015 14:25:00 29.1 C 59 % 20.27 C
702 21-07-2015 14:30:00 28.9 C 60 % 20.35 C
703 21-07-2015 14:35:00 29.2 C 55 % 19.23 C
704 21-07-2015 14:40:00 29.3 C 56 % 19.61 C
705 21-07-2015 14:45:00 29.1 C 57 % 19.71 C
706 21-07-2015 14:50:00 29 C 60 % 20.44 C
707 21-07-2015 14:55:00 28.7 C 58 % 19.62 C
708 21-07-2015 15:00:00 28.6 C 62 % 20.6 C
709 21-07-2015 15:05:00 28.4 C 61 % 20.15 C
710 21-07-2015 15:10:00 28.5 C 66 % 21.52 C
711 21-07-2015 15:15:00 28.8 C 57 % 19.43 C
712 21-07-2015 15:20:00 29.1 C 58 % 19.99 C
713 21-07-2015 15:25:00 29.4 C 55 % 19.41 C
714 21-07-2015 15:30:00 29.8 C 56 % 20.07 C
715 21-07-2015 15:35:00 30.4 C 52 % 19.43 C
716 21-07-2015 15:40:00 30.8 C 52 % 19.8 C
717 21-07-2015 15:45:00 30.8 C 50 % 19.17 C
718 21-07-2015 15:50:00 30.8 C 51 % 19.49 C
719 21-07-2015 15:55:00 30.9 C 52 % 19.89 C
720 21-07-2015 16:00:00 30.9 C 49 % 18.94 C
721 21-07-2015 16:05:00 30.7 C 51 % 19.4 C
722 21-07-2015 16:10:00 30.7 C 50 % 19.08 C
723 21-07-2015 16:15:00 31.1 C 50 % 19.44 C
724 21-07-2015 16:20:00 31.2 C 47 % 18.54 C
725 21-07-2015 16:25:00 31.2 C 49 % 19.21 C
Sensor: Nr:Datum:Temp:Feuchte:Taupunkt:
Aussen-T/F 726 21-07-2015 16:30:00 31.6 C 47 % 18.91 C
727 21-07-2015 16:35:00 31.9 C 47 % 19.18 C
728 21-07-2015 16:40:00 31.8 C 47 % 19.09 C
729 21-07-2015 16:45:00 31.4 C 48 % 19.06 C
730 21-07-2015 16:50:00 31.7 C 48 % 19.34 C
731 21-07-2015 16:55:00 31.9 C 47 % 19.18 C
732 21-07-2015 17:00:00 32.3 C 47 % 19.54 C
733 21-07-2015 17:05:00 32.3 C 46 % 19.2 C
734 21-07-2015 17:10:00 32 C 47 % 19.27 C
735 21-07-2015 17:15:00 32 C 48 % 19.61 C
736 21-07-2015 17:20:00 32.1 C 46 % 19.02 C
737 21-07-2015 17:25:00 32.2 C 46 % 19.11 C
738 21-07-2015 17:30:00 32.4 C 45 % 18.93 C
739 21-07-2015 17:35:00 32.6 C 46 % 19.47 C
740 21-07-2015 17:40:00 32.6 C 45 % 19.12 C
741 21-07-2015 17:45:00 32.6 C 44 % 18.75 C
742 21-07-2015 17:50:00 32.4 C 45 % 18.93 C
743 21-07-2015 17:55:00 32.3 C 45 % 18.84 C
744 21-07-2015 18:00:00 31.9 C 46 % 18.83 C
745 21-07-2015 18:05:00 31.9 C 46 % 18.83 C
746 21-07-2015 18:10:00 32.3 C 46 % 19.2 C
747 21-07-2015 18:15:00 32.3 C 45 % 18.84 C
748 21-07-2015 18:20:00 31.7 C 47 % 19 C
749 21-07-2015 18:25:00 31.1 C 47 % 18.45 C
750 21-07-2015 18:30:00 30.7 C 52 % 19.71 C
Sensor: Nr:Datum:Temp:Feuchte:Taupunkt:
Aussen-T/F 751 21-07-2015 18:35:00 30.6 C 50 % 18.99 C
752 21-07-2015 18:40:00 30.9 C 48 % 18.61 C
753 21-07-2015 18:45:00 31.2 C 48 % 18.88 C
754 21-07-2015 18:50:00 30.8 C 53 % 20.11 C
755 21-07-2015 18:55:00 30.1 C 53 % 19.46 C
756 21-07-2015 19:00:00 29.7 C 56 % 19.98 C
757 21-07-2015 19:05:00 29.6 C 56 % 19.89 C
758 21-07-2015 19:10:00 29.4 C 58 % 20.27 C
759 21-07-2015 19:15:00 29.6 C 56 % 19.89 C
760 21-07-2015 19:20:00 30 C 55 % 19.97 C
761 21-07-2015 19:25:00 30.3 C 56 % 20.54 C
762 21-07-2015 19:30:00 30.4 C 55 % 20.34 C
763 21-07-2015 19:35:00 30.3 C 56 % 20.54 C
764 21-07-2015 19:40:00 30.1 C 56 % 20.35 C
765 21-07-2015 19:45:00 29.8 C 58 % 20.64 C
766 21-07-2015 19:50:00 29.6 C 59 % 20.73 C
767 21-07-2015 19:55:00 29.4 C 60 % 20.82 C
768 21-07-2015 20:00:00 29.2 C 59 % 20.36 C
769 21-07-2015 20:05:00 29.1 C 61 % 20.81 C
770 21-07-2015 20:10:00 28.8 C 62 % 20.79 C
771 21-07-2015 20:15:00 28.7 C 62 % 20.69 C
772 21-07-2015 20:20:00 28.6 C 63 % 20.86 C
773 21-07-2015 20:25:00 28.3 C 63 % 20.58 C
774 21-07-2015 20:30:00 28.2 C 64 % 20.74 C
775 21-07-2015 20:35:00 28.1 C 64 % 20.64 C
Sensor: Nr:Datum:Temp:Feuchte:Taupunkt:
Aussen-T/F 776 21-07-2015 20:40:00 27.9 C 65 % 20.71 C
777 21-07-2015 20:45:00 27.7 C 65 % 20.52 C
778 21-07-2015 20:50:00 27.6 C 66 % 20.67 C
779 21-07-2015 20:55:00 27.4 C 66 % 20.48 C
780 21-07-2015 21:00:00 27.2 C 68 % 20.78 C
781 21-07-2015 21:05:00 26.9 C 68 % 20.49 C
782 21-07-2015 21:10:00 26.6 C 69 % 20.44 C
783 21-07-2015 21:15:00 26.2 C 72 % 20.75 C
784 21-07-2015 21:20:00 25.9 C 73 % 20.69 C
785 21-07-2015 21:25:00 25.9 C 73 % 20.69 C
786 21-07-2015 21:30:00 24.9 C 73 % 19.72 C
787 21-07-2015 21:35:00 24.5 C 79 % 20.62 C
788 21-07-2015 21:40:00 24.4 C 79 % 20.52 C
789 21-07-2015 21:45:00 24.2 C 81 % 20.73 C
790 21-07-2015 21:50:00 23.9 C 82 % 20.64 C
791 21-07-2015 21:55:00 23.7 C 83 % 20.64 C
792 21-07-2015 22:00:00 23.4 C 83 % 20.35 C
793 21-07-2015 22:05:00 23.3 C 84 % 20.44 C
794 21-07-2015 22:10:00 23.2 C 84 % 20.34 C
795 21-07-2015 22:15:00 23.1 C 84 % 20.25 C
796 21-07-2015 22:20:00 22.9 C 85 % 20.24 C
797 21-07-2015 22:25:00 22.8 C 85 % 20.14 C
798 21-07-2015 22:30:00 22.8 C 86 % 20.33 C
799 21-07-2015 22:35:00 22.6 C 86 % 20.14 C
800 21-07-2015 22:40:00 22.5 C 86 % 20.04 C
Sensor: Nr:Datum:Temp:Feuchte:Taupunkt:
Aussen-T/F 801 21-07-2015 22:45:00 22.4 C 87 % 20.13 C
802 21-07-2015 22:50:00 22.3 C 87 % 20.03 C
803 21-07-2015 22:55:00 22.3 C 87 % 20.03 C
804 21-07-2015 23:00:00 22.2 C 88 % 20.12 C
805 21-07-2015 23:05:00 22.2 C 88 % 20.12 C
806 21-07-2015 23:10:00 22.1 C 88 % 20.02 C
807 21-07-2015 23:15:00 22 C 88 % 19.92 C
808 21-07-2015 23:20:00 21.9 C 88 % 19.82 C
809 21-07-2015 23:25:00 21.9 C 89 % 20 C
810 21-07-2015 23:30:00 21.8 C 89 % 19.9 C
811 21-07-2015 23:35:00 21.8 C 89 % 19.9 C
812 21-07-2015 23:40:00 21.7 C 89 % 19.81 C
813 21-07-2015 23:45:00 21.7 C 89 % 19.81 C
814 21-07-2015 23:50:00 21.6 C 89 % 19.71 C
815 21-07-2015 23:55:00 21.6 C 89 % 19.71 C
816 22-07-2015 00:00:00 21.6 C 90 % 19.89 C
817 22-07-2015 00:05:00 21.5 C 90 % 19.79 C
818 22-07-2015 00:10:00 21.5 C 90 % 19.79 C
819 22-07-2015 00:15:00 21.4 C 90 % 19.69 C
820 22-07-2015 00:20:00 21.4 C 90 % 19.69 C
821 22-07-2015 00:25:00 21.4 C 90 % 19.69 C
822 22-07-2015 00:30:00 21.3 C 90 % 19.59 C
823 22-07-2015 00:35:00 21.3 C 90 % 19.59 C
824 22-07-2015 00:40:00 21.2 C 91 % 19.67 C
825 22-07-2015 00:45:00 21.2 C 90 % 19.49 C
Sensor: Nr:Datum:Temp:Feuchte:Taupunkt:
Aussen-T/F 826 22-07-2015 00:50:00 21.1 C 91 % 19.57 C
827 22-07-2015 00:55:00 20.9 C 91 % 19.37 C
828 22-07-2015 01:00:00 20.9 C 91 % 19.37 C
829 22-07-2015 01:05:00 20.9 C 91 % 19.37 C
830 22-07-2015 01:10:00 20.8 C 92 % 19.45 C
831 22-07-2015 01:15:00 20.8 C 92 % 19.45 C
832 22-07-2015 01:20:00 20.7 C 92 % 19.35 C
833 22-07-2015 01:25:00 20.7 C 92 % 19.35 C
834 22-07-2015 01:30:00 20.7 C 92 % 19.35 C
835 22-07-2015 01:35:00 20.7 C 92 % 19.35 C
836 22-07-2015 01:40:00 20.7 C 92 % 19.35 C
837 22-07-2015 01:45:00 20.6 C 92 % 19.25 C
838 22-07-2015 01:50:00 20.6 C 92 % 19.25 C
839 22-07-2015 01:55:00 20.5 C 92 % 19.15 C
840 22-07-2015 02:00:00 20.4 C 92 % 19.06 C
841 22-07-2015 02:05:00 20.3 C 93 % 19.13 C
842 22-07-2015 02:10:00 20.3 C 93 % 19.13 C
843 22-07-2015 02:15:00 20.3 C 93 % 19.13 C
844 22-07-2015 02:20:00 20.2 C 93 % 19.03 C
845 22-07-2015 02:25:00 20.2 C 93 % 19.03 C
846 22-07-2015 02:30:00 20.2 C 93 % 19.03 C
847 22-07-2015 02:35:00 20.1 C 93 % 18.93 C
848 22-07-2015 02:40:00 20.1 C 93 % 18.93 C
849 22-07-2015 02:45:00 20 C 93 % 18.83 C
850 22-07-2015 02:50:00 19.9 C 93 % 18.73 C
Sensor: Nr:Datum:Temp:Feuchte:Taupunkt:
Aussen-T/F 851 22-07-2015 02:55:00 19.8 C 93 % 18.63 C
852 22-07-2015 03:00:00 19.8 C 93 % 18.63 C
853 22-07-2015 03:05:00 19.7 C 93 % 18.54 C
854 22-07-2015 03:10:00 19.7 C 93 % 18.54 C
855 22-07-2015 03:15:00 19.6 C 93 % 18.44 C
856 22-07-2015 03:20:00 19.6 C 93 % 18.44 C
857 22-07-2015 03:25:00 19.4 C 93 % 18.24 C
858 22-07-2015 03:30:00 19.4 C 94 % 18.41 C
859 22-07-2015 03:35:00 19.4 C 94 % 18.41 C
860 22-07-2015 03:40:00 19.3 C 94 % 18.31 C
861 22-07-2015 03:45:00 19.3 C 94 % 18.31 C
862 22-07-2015 03:50:00 19.3 C 94 % 18.31 C
863 22-07-2015 03:55:00 19.3 C 94 % 18.31 C
864 22-07-2015 04:00:00 19.2 C 94 % 18.21 C
865 22-07-2015 04:05:00 19.2 C 94 % 18.21 C
866 22-07-2015 04:10:00 19.2 C 94 % 18.21 C
867 22-07-2015 04:15:00 19.2 C 94 % 18.21 C
868 22-07-2015 04:20:00 19.2 C 94 % 18.21 C
869 22-07-2015 04:25:00 19.2 C 94 % 18.21 C
870 22-07-2015 04:30:00 19.2 C 94 % 18.21 C
871 22-07-2015 04:35:00 19.1 C 94 % 18.11 C
872 22-07-2015 04:40:00 19 C 95 % 18.18 C
873 22-07-2015 04:45:00 18.9 C 95 % 18.08 C
874 22-07-2015 04:50:00 18.9 C 94 % 17.91 C
875 22-07-2015 04:55:00 18.8 C 94 % 17.81 C
Sensor: Nr:Datum:Temp:Feuchte:Taupunkt:
Aussen-T/F 876 22-07-2015 05:00:00 18.8 C 95 % 17.98 C
877 22-07-2015 05:05:00 18.8 C 95 % 17.98 C
878 22-07-2015 05:10:00 18.8 C 95 % 17.98 C
879 22-07-2015 05:15:00 18.8 C 95 % 17.98 C
880 22-07-2015 05:20:00 18.7 C 95 % 17.88 C
881 22-07-2015 05:25:00 18.7 C 95 % 17.88 C
882 22-07-2015 05:30:00 18.6 C 95 % 17.78 C
883 22-07-2015 05:35:00 18.6 C 95 % 17.78 C
884 22-07-2015 05:40:00 18.7 C 95 % 17.88 C
885 22-07-2015 05:45:00 18.6 C 95 % 17.78 C
886 22-07-2015 05:50:00 18.6 C 95 % 17.78 C
887 22-07-2015 05:55:00 18.7 C 95 % 17.88 C
888 22-07-2015 06:00:00 18.7 C 95 % 17.88 C
889 22-07-2015 06:05:00 18.7 C 95 % 17.88 C
890 22-07-2015 06:10:00 18.7 C 95 % 17.88 C
891 22-07-2015 06:15:00 18.7 C 95 % 17.88 C
892 22-07-2015 06:20:00 18.7 C 96 % 18.05 C
893 22-07-2015 06:25:00 18.8 C 96 % 18.15 C
894 22-07-2015 06:30:00 18.8 C 96 % 18.15 C
895 22-07-2015 06:35:00 18.8 C 96 % 18.15 C
896 22-07-2015 06:40:00 18.8 C 96 % 18.15 C
897 22-07-2015 06:45:00 18.9 C 96 % 18.25 C
898 22-07-2015 06:50:00 19 C 96 % 18.35 C
899 22-07-2015 06:55:00 19.1 C 96 % 18.45 C
900 22-07-2015 07:00:00 19.1 C 96 % 18.45 C
Sensor: Nr:Datum:Temp:Feuchte:Taupunkt:
Aussen-T/F 901 22-07-2015 07:05:00 19.2 C 96 % 18.55 C
902 22-07-2015 07:10:00 19.2 C 96 % 18.55 C
903 22-07-2015 07:15:00 19.3 C 96 % 18.65 C
904 22-07-2015 07:20:00 19.3 C 96 % 18.65 C
905 22-07-2015 07:25:00 19.3 C 96 % 18.65 C
906 22-07-2015 07:30:00 19.3 C 96 % 18.65 C
907 22-07-2015 07:35:00 19.3 C 96 % 18.65 C
908 22-07-2015 07:40:00 19.3 C 96 % 18.65 C
909 22-07-2015 07:45:00 19.3 C 96 % 18.65 C
910 22-07-2015 08:30:00 21.7 C 91 % 20.17 C
911 22-07-2015 08:35:00 21.9 C 90 % 20.18 C
912 22-07-2015 08:40:00 22 C 89 % 20.1 C
913 22-07-2015 08:45:00 22.1 C 88 % 20.02 C
914 22-07-2015 08:50:00 22.2 C 88 % 20.12 C
915 22-07-2015 08:55:00 22.2 C 86 % 19.75 C
916 22-07-2015 09:00:00 22.2 C 85 % 19.56 C
917 22-07-2015 09:05:00 22.2 C 85 % 19.56 C
918 22-07-2015 09:10:00 22.2 C 85 % 19.56 C
919 22-07-2015 09:15:00 22.2 C 85 % 19.56 C
920 22-07-2015 09:20:00 22.6 C 83 % 19.56 C
921 22-07-2015 09:25:00 22.7 C 83 % 19.66 C
922 22-07-2015 09:30:00 22.8 C 84 % 19.95 C
923 22-07-2015 09:35:00 22.9 C 81 % 19.46 C
924 22-07-2015 09:40:00 23.1 C 80 % 19.46 C
925 22-07-2015 09:45:00 23.3 C 81 % 19.85 C
Sensor: Nr:Datum:Temp:Feuchte:Taupunkt:
Aussen-T/F 926 22-07-2015 09:50:00 23.4 C 79 % 19.55 C
927 22-07-2015 09:55:00 23.6 C 79 % 19.74 C
928 22-07-2015 10:00:00 23.6 C 80 % 19.95 C
929 22-07-2015 10:05:00 23.7 C 80 % 20.04 C
930 22-07-2015 10:10:00 23.9 C 80 % 20.24 C
931 22-07-2015 10:15:00 24.2 C 78 % 20.12 C
932 22-07-2015 10:20:00 24.3 C 75 % 19.58 C
933 22-07-2015 10:25:00 24.4 C 76 % 19.89 C
934 22-07-2015 10:30:00 24.4 C 75 % 19.68 C
935 22-07-2015 10:35:00 24.3 C 75 % 19.58 C
936 22-07-2015 10:40:00 24.2 C 76 % 19.7 C
937 22-07-2015 10:45:00 24.2 C 77 % 19.91 C
938 22-07-2015 10:50:00 24.3 C 77 % 20.01 C
939 22-07-2015 10:55:00 24.4 C 75 % 19.68 C
940 22-07-2015 11:00:00 24.4 C 76 % 19.89 C
941 22-07-2015 11:05:00 24.3 C 76 % 19.8 C
942 22-07-2015 11:10:00 24.4 C 75 % 19.68 C
943 22-07-2015 11:15:00 24.4 C 77 % 20.1 C
944 22-07-2015 11:20:00 24.4 C 75 % 19.68 C
945 22-07-2015 11:25:00 24.5 C 76 % 19.99 C
946 22-07-2015 11:30:00 24.7 C 76 % 20.18 C
947 22-07-2015 11:35:00 24.9 C 77 % 20.59 C
948 22-07-2015 11:40:00 25.2 C 74 % 20.23 C
949 22-07-2015 11:45:00 25.4 C 73 % 20.21 C
950 22-07-2015 11:50:00 25.6 C 73 % 20.4 C
Sensor: Nr:Datum:Temp:Feuchte:Taupunkt:
Aussen-T/F 951 22-07-2015 11:55:00 25.5 C 71 % 19.85 C
952 22-07-2015 12:00:00 25.4 C 73 % 20.21 C
953 22-07-2015 12:05:00 25.5 C 73 % 20.3 C
954 22-07-2015 12:10:00 25.6 C 74 % 20.62 C
955 22-07-2015 12:15:00 25.6 C 74 % 20.62 C
956 22-07-2015 12:20:00 25.8 C 74 % 20.81 C
957 22-07-2015 12:25:00 26.1 C 70 % 20.2 C
958 22-07-2015 12:30:00 26.2 C 71 % 20.52 C
959 22-07-2015 12:35:00 26.4 C 67 % 19.78 C
960 22-07-2015 12:40:00 26.7 C 68 % 20.3 C
961 22-07-2015 12:45:00 27 C 67 % 20.35 C
962 22-07-2015 12:50:00 27.2 C 66 % 20.29 C
963 22-07-2015 12:55:00 27 C 66 % 20.1 C
964 22-07-2015 13:00:00 26.8 C 67 % 20.16 C
965 22-07-2015 13:05:00 26.7 C 67 % 20.06 C
966 22-07-2015 13:10:00 26.7 C 68 % 20.3 C
967 22-07-2015 13:15:00 26.8 C 67 % 20.16 C
968 22-07-2015 13:20:00 27 C 67 % 20.35 C
969 22-07-2015 13:25:00 27.1 C 67 % 20.44 C
970 22-07-2015 13:30:00 27.2 C 64 % 19.79 C
971 22-07-2015 13:35:00 27.2 C 64 % 19.79 C
972 22-07-2015 13:40:00 27.2 C 64 % 19.79 C
973 22-07-2015 13:45:00 27.3 C 65 % 20.14 C
974 22-07-2015 13:50:00 27.4 C 65 % 20.23 C
975 22-07-2015 13:55:00 27.7 C 63 % 20.01 C
Sensor: Nr:Datum:Temp:Feuchte:Taupunkt:
Aussen-T/F 976 22-07-2015 14:00:00 27.7 C 61 % 19.49 C
977 22-07-2015 14:05:00 27.6 C 61 % 19.4 C
978 22-07-2015 14:10:00 27.3 C 62 % 19.38 C
979 22-07-2015 14:15:00 26.8 C 63 % 19.16 C
980 22-07-2015 14:20:00 26.7 C 64 % 19.32 C
981 22-07-2015 14:25:00 26.6 C 64 % 19.23 C
982 22-07-2015 14:30:00 26.6 C 63 % 18.97 C
983 22-07-2015 14:35:00 26.5 C 63 % 18.88 C
984 22-07-2015 14:40:00 26.4 C 62 % 18.53 C
985 22-07-2015 14:45:00 26.4 C 63 % 18.79 C
986 22-07-2015 14:50:00 26.4 C 63 % 18.79 C
987 22-07-2015 14:55:00 26.4 C 63 % 18.79 C
988 22-07-2015 15:00:00 26.4 C 62 % 18.53 C
989 22-07-2015 15:05:00 26.4 C 63 % 18.79 C
990 22-07-2015 15:10:00 26.6 C 62 % 18.72 C
991 22-07-2015 15:15:00 26.7 C 63 % 19.07 C
992 22-07-2015 15:20:00 26.8 C 63 % 19.16 C
993 22-07-2015 15:25:00 27 C 63 % 19.35 C
994 22-07-2015 15:30:00 27.2 C 65 % 20.04 C
995 22-07-2015 15:35:00 27.5 C 60 % 19.04 C
996 22-07-2015 15:40:00 27.5 C 61 % 19.3 C
997 22-07-2015 15:45:00 27.5 C 60 % 19.04 C
998 22-07-2015 15:50:00 27.3 C 60 % 18.85 C
999 22-07-2015 15:55:00 27.2 C 60 % 18.76 C
1000 22-07-2015 16:00:00 27.2 C 61 % 19.02 C
Sensor: Nr:Datum:Temp:Feuchte:Taupunkt:
Aussen-T/F 1001 22-07-2015 16:05:00 27.1 C 61 % 18.93 C
1002 22-07-2015 16:10:00 27.1 C 62 % 19.19 C
1003 22-07-2015 16:15:00 27.1 C 63 % 19.45 C
1004 22-07-2015 16:20:00 26.9 C 62 % 19 C
1005 22-07-2015 16:25:00 26.8 C 63 % 19.16 C
1006 22-07-2015 16:30:00 26.7 C 64 % 19.32 C
1007 22-07-2015 16:35:00 26.6 C 63 % 18.97 C
1008 22-07-2015 16:40:00 26.6 C 64 % 19.23 C
1009 22-07-2015 16:45:00 26.6 C 63 % 18.97 C
1010 22-07-2015 16:50:00 26.7 C 62 % 18.81 C
1011 22-07-2015 16:55:00 26.7 C 61 % 18.55 C
1012 22-07-2015 17:00:00 26.7 C 61 % 18.55 C
1013 22-07-2015 17:05:00 26.9 C 61 % 18.74 C
1014 22-07-2015 17:10:00 27.2 C 60 % 18.76 C
1015 22-07-2015 17:15:00 27.4 C 59 % 18.68 C
1016 22-07-2015 17:20:00 27.5 C 59 % 18.77 C
1017 22-07-2015 17:25:00 27.6 C 60 % 19.13 C
1018 22-07-2015 17:30:00 27.7 C 59 % 18.96 C
1019 22-07-2015 17:35:00 27.7 C 60 % 19.23 C
1020 22-07-2015 17:40:00 27.9 C 59 % 19.14 C
1021 22-07-2015 17:45:00 27.9 C 57 % 18.59 C
1022 22-07-2015 17:50:00 28.1 C 56 % 18.49 C
1023 22-07-2015 17:55:00 28.2 C 54 % 18.01 C
1024 22-07-2015 18:00:00 28.3 C 53 % 17.8 C
1025 22-07-2015 18:05:00 28.2 C 54 % 18.01 C
Sensor: Nr:Datum:Temp:Feuchte:Taupunkt:
Aussen-T/F 1026 22-07-2015 18:10:00 28.1 C 54 % 17.92 C
1027 22-07-2015 18:15:00 27.7 C 54 % 17.55 C
1028 22-07-2015 18:20:00 27.3 C 55 % 17.47 C
1029 22-07-2015 18:25:00 27.1 C 56 % 17.57 C
1030 22-07-2015 18:30:00 26.8 C 56 % 17.29 C
1031 22-07-2015 18:35:00 26.7 C 56 % 17.19 C
1032 22-07-2015 18:40:00 26.6 C 56 % 17.1 C
1033 22-07-2015 18:45:00 26.4 C 55 % 16.63 C
1034 22-07-2015 18:50:00 26.3 C 56 % 16.82 C
1035 22-07-2015 18:55:00 26.1 C 57 % 16.92 C
1036 22-07-2015 19:00:00 26.1 C 57 % 16.92 C
1037 22-07-2015 19:05:00 26 C 58 % 17.1 C
1038 22-07-2015 19:10:00 26.1 C 57 % 16.92 C
1039 22-07-2015 19:15:00 25.9 C 56 % 16.45 C
1040 22-07-2015 19:20:00 25.8 C 56 % 16.36 C
1041 22-07-2015 19:25:00 25.8 C 57 % 16.64 C
1042 22-07-2015 19:30:00 25.7 C 57 % 16.54 C
1043 22-07-2015 19:35:00 25.7 C 58 % 16.82 C
1044 22-07-2015 19:40:00 25.6 C 58 % 16.72 C
1045 22-07-2015 19:45:00 25.4 C 58 % 16.54 C
1046 22-07-2015 19:50:00 25.3 C 59 % 16.71 C
1047 22-07-2015 19:55:00 25.2 C 59 % 16.62 C
1048 22-07-2015 20:00:00 25.1 C 58 % 16.26 C
1049 22-07-2015 20:05:00 25 C 58 % 16.16 C
1050 22-07-2015 20:10:00 24.8 C 58 % 15.98 C
Sensor: Nr:Datum:Temp:Feuchte:Taupunkt:
Aussen-T/F 1051 22-07-2015 20:15:00 24.8 C 58 % 15.98 C
1052 22-07-2015 20:20:00 24.7 C 59 % 16.15 C
1053 22-07-2015 20:25:00 24.6 C 58 % 15.79 C
1054 22-07-2015 20:30:00 24.6 C 58 % 15.79 C
1055 22-07-2015 20:35:00 24.5 C 58 % 15.7 C
1056 22-07-2015 20:40:00 24.4 C 57 % 15.33 C
1057 22-07-2015 20:45:00 24.4 C 57 % 15.33 C
1058 22-07-2015 20:50:00 24.3 C 57 % 15.24 C
1059 22-07-2015 20:55:00 24.3 C 57 % 15.24 C
1060 22-07-2015 21:00:00 24.2 C 57 % 15.14 C
1061 22-07-2015 21:05:00 24.2 C 57 % 15.14 C
1062 22-07-2015 21:10:00 24.1 C 56 % 14.78 C
1063 22-07-2015 21:15:00 24 C 56 % 14.68 C
1064 22-07-2015 21:20:00 23.9 C 55 % 14.31 C
1065 22-07-2015 21:25:00 23.9 C 56 % 14.59 C
1066 22-07-2015 21:30:00 23.8 C 56 % 14.5 C
1067 22-07-2015 21:35:00 23.8 C 57 % 14.77 C
1068 22-07-2015 21:40:00 23.7 C 56 % 14.4 C
1069 22-07-2015 21:45:00 23.6 C 55 % 14.03 C
1070 22-07-2015 21:50:00 23.4 C 55 % 13.85 C
1071 22-07-2015 21:55:00 23.3 C 55 % 13.76 C
1072 22-07-2015 22:00:00 23.2 C 55 % 13.66 C
1073 22-07-2015 22:05:00 23.2 C 55 % 13.66 C
1074 22-07-2015 22:10:00 23.1 C 55 % 13.57 C
1075 22-07-2015 22:15:00 22.9 C 55 % 13.38 C
Sensor: Nr:Datum:Temp:Feuchte:Taupunkt:
Aussen-T/F 1076 22-07-2015 22:20:00 22.8 C 55 % 13.29 C
1077 22-07-2015 22:25:00 22.8 C 55 % 13.29 C
1078 22-07-2015 22:30:00 22.7 C 56 % 13.47 C
1079 22-07-2015 22:35:00 22.6 C 56 % 13.38 C
1080 22-07-2015 22:40:00 22.6 C 56 % 13.38 C
1081 22-07-2015 22:45:00 22.5 C 57 % 13.56 C
1082 22-07-2015 22:50:00 22.4 C 57 % 13.47 C
1083 22-07-2015 22:55:00 22.3 C 57 % 13.37 C
1084 22-07-2015 23:00:00 22.3 C 57 % 13.37 C
1085 22-07-2015 23:05:00 22.2 C 58 % 13.55 C
1086 22-07-2015 23:10:00 22.1 C 58 % 13.45 C
1087 22-07-2015 23:15:00 22.1 C 58 % 13.45 C
1088 22-07-2015 23:20:00 22 C 60 % 13.88 C
1089 22-07-2015 23:25:00 21.8 C 63 % 14.45 C
1090 22-07-2015 23:30:00 21.6 C 65 % 14.74 C
1091 22-07-2015 23:35:00 21.4 C 64 % 14.31 C
1092 22-07-2015 23:40:00 21.3 C 67 % 14.93 C
1093 22-07-2015 23:45:00 21.2 C 65 % 14.36 C
1094 22-07-2015 23:50:00 21.2 C 66 % 14.6 C
1095 22-07-2015 23:55:00 21.1 C 66 % 14.5 C
1096 23-07-2015 00:00:00 21 C 69 % 15.1 C
1097 23-07-2015 00:05:00 20.8 C 71 % 15.35 C
1098 23-07-2015 00:10:00 20.7 C 72 % 15.47 C
1099 23-07-2015 00:15:00 20.6 C 72 % 15.38 C
1100 23-07-2015 00:20:00 20.3 C 72 % 15.09 C
Sensor: Nr:Datum:Temp:Feuchte:Taupunkt:
Aussen-T/F 1101 23-07-2015 00:25:00 20.1 C 71 % 14.68 C
1102 23-07-2015 00:30:00 19.8 C 73 % 14.82 C
1103 23-07-2015 00:35:00 19.6 C 74 % 14.84 C
1104 23-07-2015 00:40:00 19.4 C 74 % 14.65 C
1105 23-07-2015 00:45:00 19.3 C 74 % 14.55 C
1106 23-07-2015 00:50:00 19.3 C 75 % 14.76 C
1107 23-07-2015 00:55:00 19.2 C 75 % 14.66 C
1108 23-07-2015 01:00:00 19.1 C 75 % 14.57 C
1109 23-07-2015 01:05:00 19 C 77 % 14.88 C
1110 23-07-2015 01:10:00 18.9 C 76 % 14.58 C
1111 23-07-2015 01:15:00 18.8 C 77 % 14.68 C
1112 23-07-2015 01:20:00 18.7 C 77 % 14.59 C
1113 23-07-2015 01:25:00 18.6 C 77 % 14.49 C
1114 23-07-2015 01:30:00 18.4 C 78 % 14.5 C
1115 23-07-2015 01:35:00 18.4 C 78 % 14.5 C
1116 23-07-2015 01:40:00 18.3 C 78 % 14.4 C
1117 23-07-2015 01:45:00 18.2 C 78 % 14.3 C
1118 23-07-2015 01:50:00 18.2 C 79 % 14.5 C
1119 23-07-2015 01:55:00 18.1 C 79 % 14.4 C
1120 23-07-2015 02:00:00 18.1 C 79 % 14.4 C
1121 23-07-2015 02:05:00 17.9 C 79 % 14.21 C
1122 23-07-2015 02:10:00 17.9 C 79 % 14.21 C
1123 23-07-2015 02:15:00 17.8 C 78 % 13.91 C
1124 23-07-2015 02:20:00 17.7 C 78 % 13.82 C
1125 23-07-2015 02:25:00 17.7 C 79 % 14.01 C
Sensor: Nr:Datum:Temp:Feuchte:Taupunkt:
Aussen-T/F 1126 23-07-2015 02:30:00 17.7 C 79 % 14.01 C
1127 23-07-2015 02:35:00 17.7 C 79 % 14.01 C
1128 23-07-2015 02:40:00 17.7 C 79 % 14.01 C
1129 23-07-2015 02:45:00 17.6 C 79 % 13.92 C
1130 23-07-2015 02:50:00 17.5 C 79 % 13.82 C
1131 23-07-2015 02:55:00 17.4 C 80 % 13.92 C
1132 23-07-2015 03:00:00 17.3 C 79 % 13.63 C
1133 23-07-2015 03:05:00 17.3 C 80 % 13.82 C
1134 23-07-2015 03:10:00 17.2 C 80 % 13.72 C
1135 23-07-2015 03:15:00 17.1 C 80 % 13.62 C
1136 23-07-2015 03:20:00 17 C 80 % 13.53 C
1137 23-07-2015 03:25:00 17 C 80 % 13.53 C
1138 23-07-2015 03:30:00 16.9 C 81 % 13.62 C
1139 23-07-2015 03:35:00 16.9 C 81 % 13.62 C
1140 23-07-2015 03:40:00 16.8 C 81 % 13.52 C
1141 23-07-2015 03:45:00 16.8 C 82 % 13.71 C
1142 23-07-2015 03:50:00 16.7 C 82 % 13.61 C
1143 23-07-2015 03:55:00 16.6 C 81 % 13.33 C
1144 23-07-2015 04:00:00 16.5 C 81 % 13.23 C
1145 23-07-2015 04:05:00 16.4 C 82 % 13.32 C
1146 23-07-2015 04:10:00 16.4 C 82 % 13.32 C
1147 23-07-2015 04:15:00 16.4 C 82 % 13.32 C
1148 23-07-2015 04:20:00 16.5 C 83 % 13.6 C
1149 23-07-2015 04:25:00 16.6 C 83 % 13.7 C
1150 23-07-2015 04:30:00 16.7 C 83 % 13.8 C
Sensor: Nr:Datum:Temp:Feuchte:Taupunkt:
Aussen-T/F 1151 23-07-2015 04:35:00 16.7 C 83 % 13.8 C
1152 23-07-2015 04:40:00 16.8 C 83 % 13.9 C
1153 23-07-2015 04:45:00 16.8 C 83 % 13.9 C
1154 23-07-2015 04:50:00 16.8 C 83 % 13.9 C
1155 23-07-2015 04:55:00 16.8 C 83 % 13.9 C
1156 23-07-2015 05:00:00 16.8 C 83 % 13.9 C
1157 23-07-2015 05:05:00 16.8 C 83 % 13.9 C
1158 23-07-2015 05:10:00 16.9 C 83 % 14 C
1159 23-07-2015 05:15:00 16.9 C 83 % 14 C
1160 23-07-2015 05:20:00 16.9 C 82 % 13.81 C
1161 23-07-2015 05:25:00 16.9 C 82 % 13.81 C
1162 23-07-2015 05:30:00 16.9 C 83 % 14 C
1163 23-07-2015 05:35:00 16.9 C 82 % 13.81 C
1164 23-07-2015 05:40:00 16.9 C 83 % 14 C
1165 23-07-2015 05:45:00 16.9 C 83 % 14 C
1166 23-07-2015 05:50:00 16.9 C 83 % 14 C
1167 23-07-2015 05:55:00 16.9 C 83 % 14 C
1168 23-07-2015 06:00:00 16.9 C 82 % 13.81 C
1169 23-07-2015 06:05:00 16.9 C 82 % 13.81 C
1170 23-07-2015 06:10:00 17 C 82 % 13.91 C
1171 23-07-2015 06:15:00 17 C 81 % 13.72 C
1172 23-07-2015 06:20:00 17.1 C 82 % 14 C
1173 23-07-2015 06:25:00 17.1 C 82 % 14 C
1174 23-07-2015 06:30:00 17.1 C 80 % 13.62 C
1175 23-07-2015 06:35:00 17.2 C 79 % 13.53 C
Sensor: Nr:Datum:Temp:Feuchte:Taupunkt:
Aussen-T/F 1176 23-07-2015 06:40:00 17.3 C 78 % 13.43 C
1177 23-07-2015 06:45:00 17.4 C 79 % 13.72 C
1178 23-07-2015 06:50:00 17.4 C 75 % 12.93 C
1179 23-07-2015 06:55:00 17.6 C 76 % 13.32 C
1180 23-07-2015 07:00:00 17.7 C 75 % 13.22 C
1181 23-07-2015 07:05:00 17.7 C 74 % 13.01 C
1182 23-07-2015 07:10:00 17.7 C 74 % 13.01 C
1183 23-07-2015 07:15:00 17.8 C 73 % 12.9 C
1184 23-07-2015 07:20:00 17.8 C 73 % 12.9 C
1185 23-07-2015 07:25:00 17.8 C 72 % 12.69 C
1186 23-07-2015 07:30:00 17.8 C 72 % 12.69 C
1187 23-07-2015 07:35:00 17.8 C 71 % 12.47 C
1188 23-07-2015 07:40:00 17.8 C 71 % 12.47 C
1189 23-07-2015 07:45:00 17.9 C 71 % 12.57 C
1190 23-07-2015 07:50:00 17.9 C 72 % 12.78 C
1191 23-07-2015 07:55:00 18 C 71 % 12.67 C
1192 23-07-2015 08:00:00 18.1 C 70 % 12.55 C
1193 23-07-2015 08:05:00 18.1 C 71 % 12.76 C
1194 23-07-2015 08:10:00 18.2 C 70 % 12.64 C
1195 23-07-2015 08:15:00 18.3 C 69 % 12.52 C
1196 23-07-2015 08:20:00 18.4 C 70 % 12.83 C
1197 23-07-2015 08:25:00 18.5 C 70 % 12.93 C
1198 23-07-2015 08:30:00 18.6 C 69 % 12.8 C
1199 23-07-2015 08:35:00 18.7 C 69 % 12.9 C
1200 23-07-2015 08:40:00 18.7 C 68 % 12.68 C
Sensor: Nr:Datum:Temp:Feuchte:Taupunkt:
Aussen-T/F 1201 23-07-2015 08:45:00 18.8 C 68 % 12.77 C
1202 23-07-2015 08:50:00 18.8 C 67 % 12.55 C
1203 23-07-2015 08:55:00 18.8 C 67 % 12.55 C
1204 23-07-2015 09:00:00 19 C 67 % 12.74 C
1205 23-07-2015 09:05:00 19.1 C 66 % 12.6 C
1206 23-07-2015 09:10:00 19.1 C 67 % 12.83 C
1207 23-07-2015 09:15:00 19.1 C 67 % 12.83 C
1208 23-07-2015 09:20:00 19.1 C 67 % 12.83 C
1209 23-07-2015 09:25:00 19.1 C 67 % 12.83 C
1210 23-07-2015 09:30:00 19.2 C 66 % 12.7 C
1211 23-07-2015 09:35:00 19.2 C 66 % 12.7 C
1212 23-07-2015 09:40:00 19.2 C 65 % 12.47 C
1213 23-07-2015 09:45:00 19.2 C 65 % 12.47 C
1214 23-07-2015 09:50:00 19.1 C 66 % 12.6 C
1215 23-07-2015 09:55:00 19.1 C 66 % 12.6 C
1216 23-07-2015 10:00:00 19.2 C 65 % 12.47 C
1217 23-07-2015 10:05:00 19.3 C 66 % 12.79 C
1218 23-07-2015 10:10:00 19.7 C 63 % 12.46 C
1219 23-07-2015 10:15:00 19.9 C 62 % 12.41 C
1220 23-07-2015 10:20:00 20.3 C 63 % 13.03 C
1221 23-07-2015 10:25:00 20.6 C 61 % 12.82 C
1222 23-07-2015 10:30:00 20.9 C 60 % 12.85 C
1223 23-07-2015 10:35:00 21.1 C 60 % 13.04 C
1224 23-07-2015 10:40:00 21 C 60 % 12.94 C
1225 23-07-2015 10:45:00 21.2 C 60 % 13.13 C
Sensor: Nr:Datum:Temp:Feuchte:Taupunkt:
Aussen-T/F 1226 23-07-2015 10:50:00 21.6 C 61 % 13.76 C
1227 23-07-2015 10:55:00 21.8 C 58 % 13.17 C
1228 23-07-2015 11:00:00 21.9 C 58 % 13.27 C
1229 23-07-2015 11:05:00 22.2 C 58 % 13.55 C
1230 23-07-2015 11:10:00 22.3 C 55 % 12.83 C
1231 23-07-2015 11:15:00 22.3 C 55 % 12.83 C
1232 23-07-2015 11:20:00 22.3 C 55 % 12.83 C
1233 23-07-2015 11:25:00 22.4 C 56 % 13.2 C
1234 23-07-2015 11:30:00 22.6 C 55 % 13.11 C
1235 23-07-2015 11:35:00 22.6 C 56 % 13.38 C
1236 23-07-2015 11:40:00 22.4 C 56 % 13.2 C
1237 23-07-2015 11:45:00 22.6 C 57 % 13.65 C
1238 23-07-2015 11:50:00 22.8 C 56 % 13.57 C
1239 23-07-2015 11:55:00 22.8 C 55 % 13.29 C
1240 23-07-2015 12:00:00 22.7 C 58 % 14.01 C
1241 23-07-2015 12:05:00 22.6 C 56 % 13.38 C
1242 23-07-2015 12:10:00 22.6 C 55 % 13.11 C
1243 23-07-2015 12:15:00 22.4 C 55 % 12.92 C
1244 23-07-2015 12:20:00 22.3 C 56 % 13.1 C
1245 23-07-2015 12:25:00 22.2 C 57 % 13.28 C
1246 23-07-2015 12:30:00 22.2 C 57 % 13.28 C
1247 23-07-2015 12:35:00 22.2 C 58 % 13.55 C
1248 23-07-2015 12:40:00 22.2 C 58 % 13.55 C
1249 23-07-2015 12:45:00 22.5 C 58 % 13.83 C
1250 23-07-2015 12:50:00 22.9 C 55 % 13.38 C
Sensor: Nr:Datum:Temp:Feuchte:Taupunkt:
Aussen-T/F 1251 23-07-2015 12:55:00 23.1 C 54 % 13.29 C
1252 23-07-2015 13:00:00 23 C 55 % 13.48 C
1253 23-07-2015 13:05:00 22.8 C 56 % 13.57 C
1254 23-07-2015 13:10:00 22.7 C 55 % 13.2 C
1255 23-07-2015 13:15:00 22.7 C 59 % 14.28 C
1256 23-07-2015 13:20:00 23.1 C 57 % 14.12 C
1257 23-07-2015 13:25:00 23.8 C 56 % 14.5 C
1258 23-07-2015 13:30:00 24.2 C 53 % 14.02 C
1259 23-07-2015 13:35:00 24.5 C 52 % 14 C
1260 23-07-2015 13:40:00 24.3 C 50 % 13.22 C
1261 23-07-2015 13:45:00 24.4 C 49 % 13 C
1262 23-07-2015 13:50:00 24.2 C 50 % 13.12 C
1263 23-07-2015 13:55:00 24.1 C 52 % 13.63 C
1264 23-07-2015 14:00:00 24 C 53 % 13.83 C
1265 23-07-2015 14:05:00 24.1 C 54 % 14.21 C
1266 23-07-2015 14:10:00 24.3 C 55 % 14.68 C
1267 23-07-2015 14:15:00 24.3 C 50 % 13.22 C
1268 23-07-2015 14:20:00 24.6 C 54 % 14.68 C
1269 23-07-2015 14:25:00 24.9 C 51 % 14.07 C
1270 23-07-2015 14:30:00 25.3 C 47 % 13.18 C
1271 23-07-2015 14:35:00 25.2 C 47 % 13.09 C
1272 23-07-2015 14:40:00 24.8 C 48 % 13.05 C
1273 23-07-2015 14:45:00 24.4 C 49 % 13 C
1274 23-07-2015 14:50:00 24.3 C 50 % 13.22 C
1275 23-07-2015 14:55:00 24.5 C 49 % 13.09 C
Sensor: Nr:Datum:Temp:Feuchte:Taupunkt:
Aussen-T/F 1276 23-07-2015 15:00:00 24.6 C 48 % 12.87 C
1277 23-07-2015 15:05:00 24.7 C 54 % 14.77 C
1278 23-07-2015 15:10:00 25 C 49 % 13.55 C
1279 23-07-2015 15:15:00 24.9 C 48 % 13.14 C
1280 23-07-2015 15:20:00 24.9 C 48 % 13.14 C
1281 23-07-2015 15:25:00 25.1 C 46 % 12.67 C
1282 23-07-2015 15:30:00 25.2 C 47 % 13.09 C
1283 23-07-2015 15:35:00 25.1 C 46 % 12.67 C
1284 23-07-2015 15:40:00 24.9 C 46 % 12.49 C
1285 23-07-2015 15:45:00 24.7 C 47 % 12.64 C
1286 23-07-2015 15:50:00 24.6 C 48 % 12.87 C
1287 23-07-2015 15:55:00 24.7 C 47 % 12.64 C
1288 23-07-2015 16:00:00 25.3 C 47 % 13.18 C
1289 23-07-2015 16:05:00 25.6 C 47 % 13.45 C
1290 23-07-2015 16:10:00 25.8 C 46 % 13.31 C
1291 23-07-2015 16:15:00 25.7 C 45 % 12.88 C
1292 23-07-2015 16:20:00 25.6 C 46 % 13.12 C
1293 23-07-2015 16:25:00 25.3 C 45 % 12.52 C
1294 23-07-2015 16:30:00 25.1 C 47 % 13 C
1295 23-07-2015 16:35:00 24.9 C 48 % 13.14 C
1296 23-07-2015 16:40:00 24.9 C 49 % 13.46 C
1297 23-07-2015 16:45:00 24.7 C 49 % 13.27 C
1298 23-07-2015 16:50:00 24.6 C 48 % 12.87 C
1299 23-07-2015 16:55:00 24.5 C 48 % 12.77 C
1300 23-07-2015 17:00:00 24.4 C 47 % 12.36 C
Sensor: Nr:Datum:Temp:Feuchte:Taupunkt:
Aussen-T/F 1301 23-07-2015 17:05:00 24.4 C 48 % 12.68 C
1302 23-07-2015 17:10:00 24.5 C 48 % 12.77 C
1303 23-07-2015 17:15:00 24.6 C 48 % 12.87 C
1304 23-07-2015 17:20:00 24.4 C 49 % 13 C
1305 23-07-2015 17:25:00 24.4 C 48 % 12.68 C
1306 23-07-2015 17:30:00 24.4 C 48 % 12.68 C
1307 23-07-2015 17:35:00 24.6 C 48 % 12.87 C
1308 23-07-2015 17:40:00 24.8 C 46 % 12.4 C
1309 23-07-2015 17:45:00 24.8 C 48 % 13.05 C
1310 23-07-2015 17:50:00 24.7 C 47 % 12.64 C
1311 23-07-2015 17:55:00 24.6 C 47 % 12.54 C
1312 23-07-2015 18:00:00 24.4 C 49 % 13 C
1313 23-07-2015 18:05:00 24.5 C 48 % 12.77 C
1314 23-07-2015 18:10:00 24.8 C 47 % 12.73 C
1315 23-07-2015 18:15:00 25.3 C 47 % 13.18 C
1316 23-07-2015 18:20:00 25.8 C 47 % 13.64 C
1317 23-07-2015 18:25:00 25.9 C 45 % 13.06 C
1318 23-07-2015 18:30:00 25.9 C 45 % 13.06 C
1319 23-07-2015 18:35:00 25.7 C 45 % 12.88 C
1320 23-07-2015 18:40:00 25.7 C 45 % 12.88 C
1321 23-07-2015 18:45:00 25.8 C 45 % 12.97 C
1322 23-07-2015 18:50:00 25.9 C 45 % 13.06 C
1323 23-07-2015 18:55:00 25.9 C 44 % 12.72 C
1324 23-07-2015 19:00:00 25.8 C 44 % 12.63 C
1325 23-07-2015 19:05:00 25.8 C 44 % 12.63 C
Sensor: Nr:Datum:Temp:Feuchte:Taupunkt:
Aussen-T/F 1326 23-07-2015 19:10:00 25.9 C 44 % 12.72 C
1327 23-07-2015 19:15:00 25.8 C 45 % 12.97 C
1328 23-07-2015 19:20:00 25.7 C 46 % 13.22 C
1329 23-07-2015 19:25:00 25.4 C 47 % 13.27 C
1330 23-07-2015 19:30:00 25.3 C 46 % 12.85 C
1331 23-07-2015 19:35:00 25.2 C 46 % 12.76 C
1332 23-07-2015 19:40:00 24.9 C 47 % 12.82 C
1333 23-07-2015 19:45:00 24.6 C 48 % 12.87 C
1334 23-07-2015 19:50:00 24.3 C 49 % 12.91 C
1335 23-07-2015 19:55:00 24.2 C 49 % 12.81 C
1336 23-07-2015 20:00:00 24.1 C 50 % 13.03 C
1337 23-07-2015 20:05:00 23.8 C 50 % 12.76 C
1338 23-07-2015 20:10:00 23.6 C 52 % 13.17 C
1339 23-07-2015 20:15:00 23.3 C 52 % 12.9 C
1340 23-07-2015 20:20:00 23.1 C 53 % 13 C
1341 23-07-2015 20:25:00 22.8 C 55 % 13.29 C
1342 23-07-2015 20:30:00 22.5 C 60 % 14.35 C
1343 23-07-2015 20:35:00 21.9 C 61 % 14.04 C
1344 23-07-2015 20:40:00 21.4 C 62 % 13.82 C
1345 23-07-2015 20:45:00 20.9 C 63 % 13.6 C
1346 23-07-2015 20:50:00 20.7 C 65 % 13.89 C
1347 23-07-2015 20:55:00 20.4 C 67 % 14.07 C
1348 23-07-2015 21:00:00 20.2 C 68 % 14.11 C
1349 23-07-2015 21:05:00 19.9 C 68 % 13.82 C
1350 23-07-2015 21:10:00 19.6 C 69 % 13.76 C
Sensor: Nr:Datum:Temp:Feuchte:Taupunkt:
Aussen-T/F 1351 23-07-2015 21:15:00 19.4 C 69 % 13.57 C
1352 23-07-2015 21:20:00 19.3 C 70 % 13.69 C
1353 23-07-2015 21:25:00 19.1 C 71 % 13.72 C
1354 23-07-2015 21:30:00 18.9 C 72 % 13.74 C
1355 23-07-2015 21:35:00 18.7 C 72 % 13.55 C
1356 23-07-2015 21:40:00 18.6 C 74 % 13.88 C
1357 23-07-2015 21:45:00 18.4 C 74 % 13.68 C
1358 23-07-2015 21:50:00 18.4 C 75 % 13.89 C
1359 23-07-2015 21:55:00 18.3 C 74 % 13.59 C
1360 23-07-2015 22:00:00 18.2 C 75 % 13.7 C
1361 23-07-2015 22:05:00 18.1 C 75 % 13.6 C
1362 23-07-2015 22:10:00 18 C 76 % 13.71 C
1363 23-07-2015 22:15:00 17.9 C 75 % 13.41 C
1364 23-07-2015 22:20:00 17.8 C 76 % 13.52 C
1365 23-07-2015 22:25:00 17.8 C 76 % 13.52 C
1366 23-07-2015 22:30:00 17.7 C 76 % 13.42 C
1367 23-07-2015 22:35:00 17.7 C 76 % 13.42 C
1368 23-07-2015 22:40:00 17.6 C 76 % 13.32 C
1369 23-07-2015 22:45:00 17.5 C 76 % 13.23 C
1370 23-07-2015 22:50:00 17.4 C 76 % 13.13 C
1371 23-07-2015 22:55:00 17.3 C 77 % 13.23 C
1372 23-07-2015 23:00:00 17.3 C 78 % 13.43 C
1373 23-07-2015 23:05:00 17.2 C 78 % 13.33 C
1374 23-07-2015 23:10:00 17.2 C 79 % 13.53 C
1375 23-07-2015 23:15:00 17.1 C 78 % 13.24 C
Sensor: Nr:Datum:Temp:Feuchte:Taupunkt:
Aussen-T/F 1376 23-07-2015 23:20:00 17.1 C 79 % 13.43 C
1377 23-07-2015 23:25:00 17 C 79 % 13.33 C
1378 23-07-2015 23:30:00 16.9 C 78 % 13.04 C
1379 23-07-2015 23:35:00 16.8 C 78 % 12.94 C
1380 23-07-2015 23:40:00 16.8 C 78 % 12.94 C
1381 23-07-2015 23:45:00 16.7 C 79 % 13.04 C
1382 23-07-2015 23:50:00 16.7 C 80 % 13.23 C
1383 23-07-2015 23:55:00 16.6 C 80 % 13.14 C
1384 24-07-2015 00:00:00 16.6 C 80 % 13.14 C
1385 24-07-2015 00:05:00 16.5 C 80 % 13.04 C
1386 24-07-2015 00:10:00 16.5 C 79 % 12.85 C
1387 24-07-2015 00:15:00 16.4 C 79 % 12.75 C
1388 24-07-2015 00:20:00 16.4 C 79 % 12.75 C
1389 24-07-2015 00:25:00 16.4 C 79 % 12.75 C
1390 24-07-2015 00:30:00 16.3 C 79 % 12.65 C
1391 24-07-2015 00:35:00 16.2 C 80 % 12.75 C
1392 24-07-2015 00:40:00 16.2 C 80 % 12.75 C
1393 24-07-2015 00:45:00 16.1 C 80 % 12.65 C
1394 24-07-2015 00:50:00 16.1 C 80 % 12.65 C
1395 24-07-2015 00:55:00 15.9 C 80 % 12.46 C
1396 24-07-2015 01:00:00 15.8 C 81 % 12.55 C
1397 24-07-2015 01:05:00 15.8 C 81 % 12.55 C
1398 24-07-2015 01:10:00 15.7 C 82 % 12.64 C
1399 24-07-2015 01:15:00 15.5 C 82 % 12.44 C
1400 24-07-2015 01:20:00 15.4 C 82 % 12.35 C
Sensor: Nr:Datum:Temp:Feuchte:Taupunkt:
Aussen-T/F 1401 24-07-2015 01:25:00 15.3 C 83 % 12.43 C
1402 24-07-2015 01:30:00 15.3 C 83 % 12.43 C
1403 24-07-2015 01:35:00 15.2 C 83 % 12.33 C
1404 24-07-2015 01:40:00 15.1 C 84 % 12.42 C
1405 24-07-2015 01:45:00 15.1 C 84 % 12.42 C
1406 24-07-2015 01:50:00 14.9 C 84 % 12.22 C
1407 24-07-2015 01:55:00 14.9 C 84 % 12.22 C
1408 24-07-2015 02:00:00 14.8 C 85 % 12.3 C
1409 24-07-2015 02:05:00 14.7 C 85 % 12.21 C
1410 24-07-2015 02:10:00 14.7 C 85 % 12.21 C
1411 24-07-2015 02:15:00 14.6 C 86 % 12.29 C
1412 24-07-2015 02:20:00 14.6 C 86 % 12.29 C
1413 24-07-2015 02:25:00 14.5 C 86 % 12.19 C
1414 24-07-2015 02:30:00 14.4 C 86 % 12.09 C
1415 24-07-2015 02:35:00 14.4 C 86 % 12.09 C
1416 24-07-2015 02:40:00 14.3 C 86 % 11.99 C
1417 24-07-2015 02:45:00 14.3 C 87 % 12.17 C
1418 24-07-2015 02:50:00 14.2 C 87 % 12.07 C
1419 24-07-2015 02:55:00 14.2 C 87 % 12.07 C
1420 24-07-2015 03:00:00 14.2 C 87 % 12.07 C
1421 24-07-2015 03:05:00 14.2 C 87 % 12.07 C
1422 24-07-2015 03:10:00 14.2 C 88 % 12.24 C
1423 24-07-2015 03:15:00 14.2 C 88 % 12.24 C
1424 24-07-2015 03:20:00 14.3 C 87 % 12.17 C
1425 24-07-2015 03:25:00 14.3 C 87 % 12.17 C
Sensor: Nr:Datum:Temp:Feuchte:Taupunkt:
Aussen-T/F 1426 24-07-2015 03:30:00 14.3 C 87 % 12.17 C
1427 24-07-2015 03:35:00 14.4 C 87 % 12.27 C
1428 24-07-2015 03:40:00 14.3 C 87 % 12.17 C
1429 24-07-2015 03:45:00 14.3 C 88 % 12.34 C
1430 24-07-2015 03:50:00 14.3 C 88 % 12.34 C
1431 24-07-2015 03:55:00 14.2 C 87 % 12.07 C
1432 24-07-2015 04:00:00 14.2 C 88 % 12.24 C
1433 24-07-2015 04:05:00 14.1 C 88 % 12.14 C
1434 24-07-2015 04:10:00 14 C 88 % 12.05 C
1435 24-07-2015 04:15:00 13.9 C 88 % 11.95 C
1436 24-07-2015 04:20:00 13.9 C 88 % 11.95 C
1437 24-07-2015 04:25:00 13.8 C 89 % 12.02 C
1438 24-07-2015 04:30:00 13.8 C 89 % 12.02 C
1439 24-07-2015 04:35:00 13.8 C 90 % 12.19 C
1440 24-07-2015 04:40:00 13.8 C 90 % 12.19 C
1441 24-07-2015 04:45:00 13.9 C 90 % 12.29 C
1442 24-07-2015 04:50:00 13.9 C 90 % 12.29 C
1443 24-07-2015 04:55:00 13.9 C 90 % 12.29 C
1444 24-07-2015 05:00:00 13.9 C 90 % 12.29 C
1445 24-07-2015 05:05:00 13.9 C 90 % 12.29 C
1446 24-07-2015 05:10:00 13.9 C 90 % 12.29 C
1447 24-07-2015 05:15:00 13.9 C 90 % 12.29 C
1448 24-07-2015 05:20:00 13.9 C 90 % 12.29 C
1449 24-07-2015 05:25:00 13.9 C 90 % 12.29 C
1450 24-07-2015 05:30:00 13.8 C 90 % 12.19 C
Sensor: Nr:Datum:Temp:Feuchte:Taupunkt:
Aussen-T/F 1451 24-07-2015 05:35:00 13.8 C 90 % 12.19 C
1452 24-07-2015 05:40:00 13.7 C 90 % 12.09 C
1453 24-07-2015 05:45:00 13.7 C 90 % 12.09 C
1454 24-07-2015 05:50:00 13.7 C 90 % 12.09 C
1455 24-07-2015 05:55:00 13.6 C 90 % 11.99 C
1456 24-07-2015 06:00:00 13.6 C 91 % 12.16 C
1457 24-07-2015 06:05:00 13.7 C 91 % 12.26 C
1458 24-07-2015 06:10:00 13.7 C 91 % 12.26 C
1459 24-07-2015 06:15:00 13.7 C 91 % 12.26 C
1460 24-07-2015 06:20:00 13.7 C 91 % 12.26 C
1461 24-07-2015 06:25:00 13.7 C 91 % 12.26 C
1462 24-07-2015 06:30:00 13.7 C 91 % 12.26 C
1463 24-07-2015 06:35:00 13.7 C 91 % 12.26 C
1464 24-07-2015 06:40:00 13.8 C 91 % 12.36 C
1465 24-07-2015 06:45:00 13.8 C 91 % 12.36 C
1466 24-07-2015 06:50:00 13.8 C 91 % 12.36 C
1467 24-07-2015 06:55:00 13.9 C 91 % 12.46 C
1468 24-07-2015 07:00:00 14.1 C 91 % 12.65 C
1469 24-07-2015 07:05:00 14.2 C 91 % 12.75 C
1470 24-07-2015 07:10:00 14.3 C 91 % 12.85 C
1471 24-07-2015 07:15:00 14.4 C 91 % 12.95 C
1472 24-07-2015 07:20:00 14.5 C 90 % 12.88 C
1473 24-07-2015 07:25:00 14.6 C 90 % 12.98 C
1474 24-07-2015 07:30:00 14.7 C 90 % 13.08 C
1475 24-07-2015 07:35:00 14.8 C 90 % 13.18 C
Sensor: Nr:Datum:Temp:Feuchte:Taupunkt:
Aussen-T/F 1476 24-07-2015 07:40:00 14.8 C 90 % 13.18 C
1477 24-07-2015 07:45:00 14.8 C 90 % 13.18 C
1478 24-07-2015 09:35:00 18.6 C 76 % 14.29 C
1479 24-07-2015 09:40:00 18.7 C 77 % 14.59 C
1480 24-07-2015 09:45:00 18.8 C 79 % 15.08 C
1481 24-07-2015 09:50:00 19 C 76 % 14.68 C
1482 24-07-2015 09:55:00 19.3 C 77 % 15.17 C
1483 24-07-2015 10:00:00 19.6 C 74 % 14.84 C
1484 24-07-2015 10:05:00 19.9 C 73 % 14.92 C
1485 24-07-2015 10:10:00 20.2 C 74 % 15.42 C
1486 24-07-2015 10:15:00 20.4 C 73 % 15.4 C
1487 24-07-2015 10:20:00 20.7 C 71 % 15.25 C
1488 24-07-2015 10:25:00 20.9 C 70 % 15.23 C
1489 24-07-2015 10:30:00 21.1 C 69 % 15.19 C
1490 24-07-2015 10:35:00 21.2 C 71 % 15.73 C
1491 24-07-2015 10:40:00 21.2 C 71 % 15.73 C
1492 24-07-2015 10:45:00 21.2 C 71 % 15.73 C
1493 24-07-2015 10:50:00 21.4 C 67 % 15.02 C
1494 24-07-2015 10:55:00 21.7 C 68 % 15.54 C
1495 24-07-2015 11:00:00 22.1 C 67 % 15.69 C
1496 24-07-2015 11:05:00 22.6 C 67 % 16.16 C
1497 24-07-2015 11:10:00 23 C 65 % 16.07 C
1498 24-07-2015 11:15:00 23.4 C 63 % 15.96 C
1499 24-07-2015 11:20:00 23.6 C 61 % 15.64 C
1500 24-07-2015 11:25:00 23.7 C 59 % 15.21 C
Sensor: Nr:Datum:Temp:Feuchte:Taupunkt:
Aussen-T/F 1501 24-07-2015 11:30:00 23.9 C 61 % 15.92 C
1502 24-07-2015 11:35:00 24 C 61 % 16.02 C
1503 24-07-2015 11:40:00 24.2 C 61 % 16.2 C
1504 24-07-2015 11:45:00 24.4 C 59 % 15.87 C
1505 24-07-2015 11:50:00 24.8 C 57 % 15.7 C
1506 24-07-2015 11:55:00 24.9 C 56 % 15.52 C
1507 24-07-2015 12:00:00 25.1 C 58 % 16.26 C
1508 24-07-2015 12:05:00 25.2 C 57 % 16.08 C
1509 24-07-2015 12:10:00 25.4 C 55 % 15.7 C
1510 24-07-2015 12:15:00 25.8 C 56 % 16.36 C
1511 24-07-2015 12:20:00 26 C 55 % 16.26 C
1512 24-07-2015 12:25:00 26.1 C 51 % 15.17 C
1513 24-07-2015 12:30:00 26.3 C 52 % 15.66 C
1514 24-07-2015 12:35:00 26.3 C 50 % 15.05 C
1515 24-07-2015 12:40:00 26.2 C 52 % 15.57 C
1516 24-07-2015 12:45:00 26.2 C 52 % 15.57 C
1517 24-07-2015 12:50:00 26.2 C 50 % 14.96 C
1518 24-07-2015 12:55:00 26.1 C 51 % 15.17 C
1519 24-07-2015 13:00:00 26.3 C 51 % 15.36 C
1520 24-07-2015 13:05:00 26.4 C 49 % 14.83 C
1521 24-07-2015 13:10:00 26.6 C 48 % 14.69 C
1522 24-07-2015 13:15:00 26.6 C 48 % 14.69 C
1523 24-07-2015 13:20:00 26.6 C 49 % 15.01 C
1524 24-07-2015 13:25:00 26.6 C 52 % 15.94 C
1525 24-07-2015 13:30:00 26.6 C 49 % 15.01 C
Sensor: Nr:Datum:Temp:Feuchte:Taupunkt:
Aussen-T/F 1526 24-07-2015 13:35:00 26.5 C 53 % 16.14 C
1527 24-07-2015 13:40:00 26.7 C 49 % 15.1 C
1528 24-07-2015 13:45:00 26.8 C 48 % 14.87 C
1529 24-07-2015 13:50:00 26.8 C 49 % 15.19 C
1530 24-07-2015 13:55:00 26.8 C 48 % 14.87 C
1531 24-07-2015 14:00:00 26.9 C 47 % 14.64 C
1532 24-07-2015 14:05:00 26.9 C 47 % 14.64 C
1533 24-07-2015 14:10:00 27.1 C 46 % 14.49 C
1534 24-07-2015 14:15:00 26.8 C 47 % 14.55 C
1535 24-07-2015 14:20:00 26.8 C 48 % 14.87 C
1536 24-07-2015 14:25:00 26.9 C 49 % 15.28 C
1537 24-07-2015 14:30:00 27.1 C 46 % 14.49 C
1538 24-07-2015 14:35:00 27.2 C 48 % 15.24 C
1539 24-07-2015 14:40:00 27.1 C 50 % 15.78 C
1540 24-07-2015 14:45:00 27.2 C 49 % 15.56 C
1541 24-07-2015 14:50:00 27.4 C 49 % 15.74 C
1542 24-07-2015 14:55:00 27.8 C 46 % 15.12 C
1543 24-07-2015 15:00:00 28.3 C 46 % 15.57 C
1544 24-07-2015 15:05:00 28.7 C 44 % 15.24 C
1545 24-07-2015 15:10:00 28.7 C 44 % 15.24 C
1546 24-07-2015 15:15:00 28.7 C 44 % 15.24 C
1547 24-07-2015 15:20:00 28.9 C 44 % 15.42 C
1548 24-07-2015 15:25:00 29.1 C 46 % 16.3 C
1549 24-07-2015 15:30:00 29.1 C 44 % 15.6 C
1550 24-07-2015 15:35:00 29.1 C 45 % 15.95 C
Sensor: Nr:Datum:Temp:Feuchte:Taupunkt:
Aussen-T/F 1551 24-07-2015 15:40:00 28.9 C 45 % 15.77 C
1552 24-07-2015 15:45:00 28.8 C 45 % 15.68 C
1553 24-07-2015 15:50:00 28.9 C 46 % 16.12 C
1554 24-07-2015 15:55:00 28.9 C 47 % 16.45 C
1555 24-07-2015 16:00:00 29.3 C 44 % 15.78 C
1556 24-07-2015 16:05:00 29.5 C 45 % 16.32 C
1557 24-07-2015 16:10:00 29.6 C 44 % 16.05 C
1558 24-07-2015 16:15:00 29.7 C 44 % 16.14 C
1559 24-07-2015 16:20:00 29.8 C 43 % 15.87 C
1560 24-07-2015 16:25:00 30.1 C 41 % 15.4 C
1561 24-07-2015 16:30:00 30.3 C 40 % 15.19 C
1562 24-07-2015 16:35:00 30.2 C 43 % 16.23 C
1563 24-07-2015 16:40:00 30 C 45 % 16.77 C
1564 24-07-2015 16:45:00 29.8 C 43 % 15.87 C
1565 24-07-2015 16:50:00 29.7 C 42 % 15.42 C
1566 24-07-2015 16:55:00 29.6 C 43 % 15.69 C
1567 24-07-2015 17:00:00 29.6 C 42 % 15.33 C
1568 24-07-2015 17:05:00 29.8 C 42 % 15.51 C
1569 24-07-2015 17:10:00 29.7 C 43 % 15.78 C
1570 24-07-2015 17:15:00 29.5 C 43 % 15.6 C
1571 24-07-2015 17:20:00 29.7 C 43 % 15.78 C
1572 24-07-2015 17:25:00 30.2 C 41 % 15.49 C
1573 24-07-2015 17:30:00 30.3 C 46 % 17.39 C
1574 24-07-2015 17:35:00 30.1 C 42 % 15.77 C
1575 24-07-2015 17:40:00 29.8 C 43 % 15.87 C
Sensor: Nr:Datum:Temp:Feuchte:Taupunkt:
Aussen-T/F 1576 24-07-2015 17:45:00 29.7 C 49 % 17.84 C
1577 24-07-2015 17:50:00 29.2 C 52 % 18.33 C
1578 24-07-2015 17:55:00 28.8 C 56 % 19.14 C
1579 24-07-2015 18:00:00 28.2 C 56 % 18.59 C
1580 24-07-2015 18:05:00 27.6 C 59 % 18.86 C
1581 24-07-2015 18:10:00 27.3 C 59 % 18.58 C
1582 24-07-2015 18:15:00 27.1 C 62 % 19.19 C
1583 24-07-2015 18:20:00 26.9 C 61 % 18.74 C
1584 24-07-2015 18:25:00 26.7 C 62 % 18.81 C
1585 24-07-2015 18:30:00 26.4 C 64 % 19.04 C
1586 24-07-2015 18:35:00 26.3 C 64 % 18.94 C
1587 24-07-2015 18:40:00 26.2 C 64 % 18.85 C
1588 24-07-2015 18:45:00 26.4 C 65 % 19.29 C
1589 24-07-2015 18:50:00 26.8 C 62 % 18.91 C
1590 24-07-2015 18:55:00 27.1 C 62 % 19.19 C
1591 24-07-2015 19:00:00 26.9 C 63 % 19.26 C
1592 24-07-2015 19:05:00 26.7 C 63 % 19.07 C
1593 24-07-2015 19:10:00 26.5 C 63 % 18.88 C
1594 24-07-2015 19:15:00 26.3 C 62 % 18.44 C
1595 24-07-2015 19:20:00 26.1 C 64 % 18.76 C
1596 24-07-2015 19:25:00 25.9 C 65 % 18.81 C
1597 24-07-2015 19:30:00 25.7 C 65 % 18.62 C
1598 24-07-2015 19:35:00 25.4 C 66 % 18.58 C
1599 24-07-2015 19:40:00 25.1 C 65 % 18.06 C
1600 24-07-2015 19:45:00 24.9 C 66 % 18.11 C
Sensor: Nr:Datum:Temp:Feuchte:Taupunkt:
Aussen-T/F 1601 24-07-2015 19:50:00 24.8 C 67 % 18.25 C
1602 24-07-2015 19:55:00 24.9 C 68 % 18.59 C
1603 24-07-2015 20:00:00 25 C 67 % 18.44 C
1604 24-07-2015 20:05:00 25.1 C 67 % 18.54 C
1605 24-07-2015 20:10:00 25.2 C 67 % 18.63 C
1606 24-07-2015 20:15:00 25.2 C 66 % 18.39 C
1607 24-07-2015 20:20:00 25 C 67 % 18.44 C
1608 24-07-2015 20:25:00 24.8 C 67 % 18.25 C
1609 24-07-2015 20:30:00 24.6 C 67 % 18.06 C
1610 24-07-2015 20:35:00 24.3 C 68 % 18.01 C
1611 24-07-2015 20:40:00 24.1 C 68 % 17.82 C
1612 24-07-2015 20:45:00 23.9 C 68 % 17.63 C
1613 24-07-2015 20:50:00 23.8 C 69 % 17.77 C
1614 24-07-2015 20:55:00 23.6 C 69 % 17.58 C
1615 24-07-2015 21:00:00 23.6 C 68 % 17.35 C
1616 24-07-2015 21:05:00 23.5 C 70 % 17.71 C
1617 24-07-2015 21:10:00 23.4 C 70 % 17.62 C
1618 24-07-2015 21:15:00 23.3 C 69 % 17.29 C
1619 24-07-2015 21:20:00 23.2 C 70 % 17.42 C
1620 24-07-2015 21:25:00 23 C 69 % 17.01 C
1621 24-07-2015 21:30:00 22.8 C 69 % 16.82 C
1622 24-07-2015 21:35:00 22.8 C 69 % 16.82 C
1623 24-07-2015 21:40:00 22.7 C 70 % 16.95 C
1624 24-07-2015 21:45:00 22.7 C 71 % 17.17 C
1625 24-07-2015 21:50:00 22.7 C 72 % 17.39 C
Sensor: Nr:Datum:Temp:Feuchte:Taupunkt:
Aussen-T/F 1626 24-07-2015 21:55:00 22.7 C 72 % 17.39 C
1627 24-07-2015 22:00:00 22.7 C 72 % 17.39 C
1628 24-07-2015 22:05:00 22.7 C 72 % 17.39 C
1629 24-07-2015 22:10:00 22.7 C 71 % 17.17 C
1630 24-07-2015 22:15:00 22.7 C 71 % 17.17 C
1631 24-07-2015 22:20:00 22.7 C 73 % 17.61 C
1632 24-07-2015 22:25:00 22.7 C 73 % 17.61 C
1633 24-07-2015 22:30:00 22.6 C 73 % 17.51 C
1634 24-07-2015 22:35:00 22.6 C 72 % 17.3 C
1635 24-07-2015 22:40:00 22.8 C 68 % 16.59 C
1636 24-07-2015 22:45:00 23.6 C 67 % 17.11 C
1637 24-07-2015 22:50:00 23.6 C 67 % 17.11 C
1638 24-07-2015 22:55:00 23.1 C 70 % 17.33 C
1639 24-07-2015 23:00:00 22.5 C 74 % 17.63 C
1640 24-07-2015 23:05:00 21.8 C 78 % 17.79 C
1641 24-07-2015 23:10:00 21.1 C 81 % 17.71 C
1642 24-07-2015 23:15:00 20.4 C 84 % 17.61 C
1643 24-07-2015 23:20:00 19.9 C 86 % 17.49 C
1644 24-07-2015 23:25:00 19.6 C 87 % 17.38 C
1645 24-07-2015 23:30:00 19.3 C 88 % 17.26 C
1646 24-07-2015 23:35:00 19.1 C 89 % 17.24 C
1647 24-07-2015 23:40:00 19.1 C 89 % 17.24 C
1648 24-07-2015 23:45:00 19.1 C 89 % 17.24 C
1649 24-07-2015 23:50:00 18.9 C 89 % 17.05 C
1650 24-07-2015 23:55:00 18.9 C 90 % 17.22 C
Sensor: Nr:Datum:Temp:Feuchte:Taupunkt:
Aussen-T/F 1651 25-07-2015 00:00:00 18.8 C 91 % 17.3 C
1652 25-07-2015 00:05:00 18.7 C 91 % 17.2 C
1653 25-07-2015 00:10:00 18.6 C 91 % 17.1 C
1654 25-07-2015 00:15:00 18.5 C 91 % 17 C
1655 25-07-2015 00:20:00 18.4 C 91 % 16.9 C
1656 25-07-2015 00:25:00 18.4 C 92 % 17.08 C
1657 25-07-2015 00:30:00 18.3 C 92 % 16.98 C
1658 25-07-2015 00:35:00 18.3 C 93 % 17.15 C
1659 25-07-2015 00:40:00 18.2 C 93 % 17.05 C
1660 25-07-2015 00:45:00 18.2 C 93 % 17.05 C
1661 25-07-2015 00:50:00 18.1 C 93 % 16.95 C
1662 25-07-2015 00:55:00 18 C 94 % 17.02 C
1663 25-07-2015 01:00:00 17.9 C 94 % 16.92 C
1664 25-07-2015 01:05:00 17.9 C 94 % 16.92 C
1665 25-07-2015 01:10:00 17.8 C 94 % 16.82 C
1666 25-07-2015 01:15:00 17.8 C 94 % 16.82 C
1667 25-07-2015 01:20:00 17.8 C 94 % 16.82 C
1668 25-07-2015 01:25:00 17.8 C 95 % 16.99 C
1669 25-07-2015 01:30:00 17.8 C 95 % 16.99 C
1670 25-07-2015 01:35:00 17.8 C 95 % 16.99 C
1671 25-07-2015 01:40:00 17.8 C 95 % 16.99 C
1672 25-07-2015 01:45:00 17.7 C 95 % 16.89 C
1673 25-07-2015 01:50:00 17.7 C 95 % 16.89 C
1674 25-07-2015 01:55:00 17.6 C 95 % 16.79 C
1675 25-07-2015 02:00:00 17.6 C 95 % 16.79 C
Sensor: Nr:Datum:Temp:Feuchte:Taupunkt:
Aussen-T/F 1676 25-07-2015 02:05:00 17.6 C 95 % 16.79 C
1677 25-07-2015 02:10:00 17.6 C 95 % 16.79 C
1678 25-07-2015 02:15:00 17.6 C 95 % 16.79 C
1679 25-07-2015 02:20:00 17.6 C 95 % 16.79 C
1680 25-07-2015 02:25:00 17.5 C 95 % 16.69 C
1681 25-07-2015 02:30:00 17.4 C 95 % 16.59 C
1682 25-07-2015 02:35:00 17.4 C 95 % 16.59 C
1683 25-07-2015 02:40:00 17.4 C 95 % 16.59 C
1684 25-07-2015 02:45:00 17.3 C 95 % 16.49 C
1685 25-07-2015 02:50:00 17.3 C 95 % 16.49 C
1686 25-07-2015 02:55:00 17.3 C 95 % 16.49 C
1687 25-07-2015 03:00:00 17.2 C 95 % 16.39 C
1688 25-07-2015 03:05:00 17.2 C 96 % 16.56 C
1689 25-07-2015 03:10:00 17.2 C 95 % 16.39 C
1690 25-07-2015 03:15:00 17.1 C 95 % 16.29 C
1691 25-07-2015 03:20:00 17.1 C 95 % 16.29 C
1692 25-07-2015 03:25:00 17 C 96 % 16.36 C
1693 25-07-2015 03:30:00 16.9 C 96 % 16.26 C
1694 25-07-2015 03:35:00 16.8 C 96 % 16.16 C
1695 25-07-2015 03:40:00 16.8 C 95 % 15.99 C
1696 25-07-2015 03:45:00 16.8 C 96 % 16.16 C
1697 25-07-2015 03:50:00 16.7 C 96 % 16.06 C
1698 25-07-2015 03:55:00 16.7 C 96 % 16.06 C
1699 25-07-2015 04:00:00 16.6 C 96 % 15.96 C
1700 25-07-2015 04:05:00 16.6 C 96 % 15.96 C
Sensor: Nr:Datum:Temp:Feuchte:Taupunkt:
Aussen-T/F 1701 25-07-2015 04:10:00 16.6 C 96 % 15.96 C
1702 25-07-2015 04:15:00 16.6 C 96 % 15.96 C
1703 25-07-2015 04:20:00 16.6 C 96 % 15.96 C
1704 25-07-2015 04:25:00 16.6 C 96 % 15.96 C
1705 25-07-2015 06:40:00 16.8 C 96 % 16.16 C
1706 25-07-2015 06:45:00 16.8 C 96 % 16.16 C
1707 25-07-2015 06:50:00 16.8 C 96 % 16.16 C
1708 25-07-2015 07:45:00 17.2 C 93 % 16.06 C
1709 25-07-2015 07:50:00 17.4 C 93 % 16.26 C
1710 25-07-2015 07:55:00 17.4 C 93 % 16.26 C
1711 25-07-2015 08:00:00 17.4 C 92 % 16.09 C
1712 25-07-2015 08:05:00 17.7 C 91 % 16.21 C
1713 25-07-2015 08:10:00 18 C 88 % 15.98 C
1714 25-07-2015 08:15:00 18.6 C 87 % 16.39 C
1715 25-07-2015 08:20:00 19.1 C 84 % 16.33 C
1716 25-07-2015 08:25:00 19.4 C 80 % 15.86 C
1717 25-07-2015 08:30:00 19.4 C 80 % 15.86 C
1718 25-07-2015 08:35:00 19.4 C 79 % 15.66 C
1719 25-07-2015 08:40:00 19.3 C 79 % 15.57 C
1720 25-07-2015 08:45:00 19.4 C 79 % 15.66 C
1721 25-07-2015 08:50:00 19.4 C 77 % 15.27 C
1722 25-07-2015 08:55:00 19.6 C 76 % 15.26 C
1723 25-07-2015 09:00:00 19.7 C 75 % 15.15 C
1724 25-07-2015 09:05:00 19.8 C 74 % 15.03 C
1725 25-07-2015 09:10:00 19.9 C 74 % 15.13 C
Sensor: Nr:Datum:Temp:Feuchte:Taupunkt:
Aussen-T/F 1726 25-07-2015 09:15:00 19.9 C 73 % 14.92 C
1727 25-07-2015 09:20:00 20.1 C 73 % 15.11 C
1728 25-07-2015 09:25:00 20.2 C 71 % 14.78 C
1729 25-07-2015 09:30:00 20.3 C 72 % 15.09 C
1730 25-07-2015 09:35:00 20.3 C 71 % 14.87 C
1731 25-07-2015 09:40:00 20.2 C 72 % 14.99 C
1732 25-07-2015 09:45:00 20.1 C 72 % 14.9 C
1733 25-07-2015 09:50:00 19.8 C 73 % 14.82 C
1734 25-07-2015 09:55:00 19.7 C 74 % 14.94 C
1735 25-07-2015 10:00:00 19.8 C 73 % 14.82 C
1736 25-07-2015 10:05:00 20 C 73 % 15.01 C
1737 25-07-2015 10:10:00 20.3 C 73 % 15.3 C
1738 25-07-2015 10:15:00 20.1 C 74 % 15.32 C
1739 25-07-2015 10:20:00 19.6 C 78 % 15.66 C
1740 25-07-2015 10:25:00 19.1 C 81 % 15.76 C
1741 25-07-2015 10:30:00 18.8 C 83 % 15.85 C
1742 25-07-2015 10:35:00 18.7 C 82 % 15.57 C
1743 25-07-2015 10:40:00 18.7 C 83 % 15.75 C
1744 25-07-2015 10:45:00 18.8 C 83 % 15.85 C
1745 25-07-2015 10:50:00 19.2 C 81 % 15.86 C
1746 25-07-2015 10:55:00 19.2 C 80 % 15.67 C
1747 25-07-2015 11:00:00 19.1 C 79 % 15.37 C
1748 25-07-2015 11:05:00 18.7 C 80 % 15.18 C
1749 25-07-2015 11:10:00 18.4 C 83 % 15.46 C
1750 25-07-2015 11:15:00 18 C 83 % 15.07 C
Sensor: Nr:Datum:Temp:Feuchte:Taupunkt:
Aussen-T/F 1751 25-07-2015 11:20:00 18 C 83 % 15.07 C
1752 25-07-2015 11:25:00 18 C 84 % 15.26 C
1753 25-07-2015 11:30:00 17.9 C 83 % 14.97 C
1754 25-07-2015 11:35:00 17.9 C 83 % 14.97 C
1755 25-07-2015 11:40:00 18 C 84 % 15.26 C
1756 25-07-2015 11:45:00 18.1 C 84 % 15.35 C
1757 25-07-2015 11:50:00 18.2 C 84 % 15.45 C
1758 25-07-2015 11:55:00 18.2 C 83 % 15.27 C
1759 25-07-2015 12:00:00 18.2 C 84 % 15.45 C
1760 25-07-2015 12:05:00 18.2 C 84 % 15.45 C
1761 25-07-2015 12:10:00 18.6 C 85 % 16.03 C
1762 25-07-2015 12:15:00 18.9 C 83 % 15.95 C
1763 25-07-2015 12:20:00 18.7 C 80 % 15.18 C
1764 25-07-2015 12:25:00 18.5 C 79 % 14.79 C
1765 25-07-2015 12:30:00 18.5 C 81 % 15.18 C
1766 25-07-2015 12:35:00 18.5 C 79 % 14.79 C
1767 25-07-2015 12:40:00 18.3 C 80 % 14.79 C
1768 25-07-2015 12:45:00 17.7 C 82 % 14.59 C
1769 25-07-2015 12:50:00 17.1 C 84 % 14.38 C
1770 25-07-2015 12:55:00 16.7 C 84 % 13.98 C
1771 25-07-2015 13:00:00 16.7 C 86 % 14.35 C
1772 25-07-2015 13:05:00 16.8 C 85 % 14.26 C
1773 25-07-2015 13:10:00 17 C 85 % 14.46 C
1774 25-07-2015 13:15:00 17.3 C 83 % 14.39 C
1775 25-07-2015 13:20:00 17.7 C 80 % 14.21 C
Sensor: Nr:Datum:Temp:Feuchte:Taupunkt:
Aussen-T/F 1776 25-07-2015 13:25:00 17.9 C 77 % 13.81 C
1777 25-07-2015 13:30:00 17.9 C 75 % 13.41 C
1778 25-07-2015 13:35:00 18 C 76 % 13.71 C
1779 25-07-2015 13:40:00 18.3 C 74 % 13.59 C
1780 25-07-2015 13:45:00 18.3 C 74 % 13.59 C
1781 25-07-2015 13:50:00 18.3 C 72 % 13.17 C
1782 25-07-2015 13:55:00 18.1 C 70 % 12.55 C
1783 25-07-2015 14:00:00 18.2 C 71 % 12.86 C
1784 25-07-2015 14:05:00 18.4 C 70 % 12.83 C
1785 25-07-2015 14:10:00 18.7 C 68 % 12.68 C
1786 25-07-2015 14:15:00 18.8 C 68 % 12.77 C
1787 25-07-2015 14:20:00 19.1 C 68 % 13.06 C
1788 25-07-2015 14:25:00 19.2 C 67 % 12.93 C
1789 25-07-2015 14:30:00 18.9 C 65 % 12.18 C
1790 25-07-2015 14:35:00 18.7 C 66 % 12.22 C
1791 25-07-2015 14:40:00 18.8 C 67 % 12.55 C
1792 25-07-2015 14:45:00 18.9 C 65 % 12.18 C
1793 25-07-2015 14:50:00 19.1 C 65 % 12.37 C
1794 25-07-2015 14:55:00 19.2 C 63 % 11.99 C
1795 25-07-2015 15:00:00 19 C 64 % 12.04 C
1796 25-07-2015 15:05:00 18.8 C 65 % 12.09 C
1797 25-07-2015 15:10:00 18.7 C 66 % 12.22 C
1798 25-07-2015 15:15:00 18.7 C 66 % 12.22 C
1799 25-07-2015 15:20:00 18.9 C 65 % 12.18 C
1800 25-07-2015 15:25:00 19.2 C 63 % 11.99 C
Sensor: Nr:Datum:Temp:Feuchte:Taupunkt:
Aussen-T/F 1801 25-07-2015 15:30:00 19.1 C 62 % 11.65 C
1802 25-07-2015 15:35:00 18.8 C 63 % 11.61 C
1803 25-07-2015 15:40:00 18.6 C 62 % 11.18 C
1804 25-07-2015 15:45:00 18.5 C 63 % 11.33 C
1805 25-07-2015 15:50:00 18.6 C 64 % 11.66 C
1806 25-07-2015 15:55:00 18.6 C 63 % 11.42 C
1807 25-07-2015 16:00:00 18.3 C 63 % 11.14 C
1808 25-07-2015 16:05:00 18.2 C 65 % 11.52 C
1809 25-07-2015 16:10:00 18.1 C 66 % 11.65 C
1810 25-07-2015 16:15:00 18.1 C 67 % 11.88 C
1811 25-07-2015 16:20:00 18.2 C 63 % 11.05 C
1812 25-07-2015 16:25:00 18.1 C 65 % 11.42 C
1813 25-07-2015 16:30:00 17.9 C 67 % 11.69 C
1814 25-07-2015 16:35:00 18.1 C 67 % 11.88 C
1815 25-07-2015 16:40:00 18.3 C 67 % 12.07 C
1816 25-07-2015 16:45:00 18.4 C 66 % 11.94 C
1817 25-07-2015 16:50:00 18.3 C 66 % 11.84 C
1818 25-07-2015 16:55:00 18.1 C 65 % 11.42 C
1819 25-07-2015 17:00:00 17.9 C 66 % 11.46 C
1820 25-07-2015 17:05:00 17.7 C 66 % 11.27 C
1821 25-07-2015 17:10:00 17.7 C 68 % 11.72 C
1822 25-07-2015 17:15:00 17.6 C 67 % 11.4 C
1823 25-07-2015 17:20:00 17.5 C 67 % 11.31 C
1824 25-07-2015 17:25:00 17.3 C 68 % 11.34 C
1825 25-07-2015 17:30:00 17.1 C 70 % 11.59 C
Sensor: Nr:Datum:Temp:Feuchte:Taupunkt:
Aussen-T/F 1826 25-07-2015 17:35:00 17.2 C 70 % 11.68 C
1827 25-07-2015 17:40:00 17.1 C 70 % 11.59 C
1828 25-07-2015 17:45:00 17.1 C 70 % 11.59 C
1829 25-07-2015 17:50:00 16.9 C 70 % 11.4 C
1830 25-07-2015 17:55:00 16.8 C 71 % 11.52 C
1831 25-07-2015 18:00:00 16.8 C 70 % 11.3 C
1832 25-07-2015 18:05:00 16.8 C 69 % 11.09 C
1833 25-07-2015 18:10:00 16.8 C 69 % 11.09 C
1834 25-07-2015 18:15:00 16.8 C 68 % 10.87 C
1835 25-07-2015 18:20:00 16.8 C 68 % 10.87 C
1836 25-07-2015 18:25:00 16.8 C 67 % 10.64 C
1837 25-07-2015 18:30:00 16.8 C 67 % 10.64 C
1838 25-07-2015 18:35:00 16.8 C 68 % 10.87 C
1839 25-07-2015 18:40:00 16.9 C 67 % 10.74 C
1840 25-07-2015 18:45:00 16.9 C 68 % 10.96 C
1841 25-07-2015 18:50:00 16.8 C 68 % 10.87 C
1842 25-07-2015 18:55:00 16.8 C 67 % 10.64 C
1843 25-07-2015 19:00:00 16.8 C 67 % 10.64 C
1844 25-07-2015 19:05:00 16.8 C 66 % 10.42 C
1845 25-07-2015 19:10:00 16.8 C 67 % 10.64 C
1846 25-07-2015 19:15:00 16.8 C 67 % 10.64 C
1847 25-07-2015 19:20:00 16.7 C 67 % 10.55 C
1848 25-07-2015 19:25:00 16.6 C 67 % 10.45 C
1849 25-07-2015 19:30:00 16.6 C 68 % 10.67 C
1850 25-07-2015 19:35:00 16.5 C 68 % 10.58 C
Sensor: Nr:Datum:Temp:Feuchte:Taupunkt:
Aussen-T/F 1851 25-07-2015 19:40:00 16.4 C 69 % 10.7 C
1852 25-07-2015 19:45:00 16.4 C 68 % 10.48 C
1853 25-07-2015 19:50:00 16.4 C 68 % 10.48 C
1854 25-07-2015 19:55:00 16.4 C 68 % 10.48 C
1855 25-07-2015 20:00:00 16.4 C 68 % 10.48 C
1856 25-07-2015 20:05:00 16.4 C 68 % 10.48 C
1857 25-07-2015 20:10:00 16.3 C 68 % 10.39 C
1858 25-07-2015 20:15:00 16.2 C 68 % 10.29 C
1859 25-07-2015 20:20:00 16.2 C 68 % 10.29 C
1860 25-07-2015 20:25:00 16.1 C 67 % 9.98 C
1861 25-07-2015 20:30:00 16 C 66 % 9.66 C
1862 25-07-2015 20:35:00 16 C 67 % 9.88 C
1863 25-07-2015 20:40:00 16 C 67 % 9.88 C
1864 25-07-2015 20:45:00 16.1 C 66 % 9.75 C
1865 25-07-2015 20:50:00 16 C 65 % 9.43 C
1866 25-07-2015 20:55:00 15.9 C 65 % 9.34 C
1867 25-07-2015 21:00:00 15.8 C 66 % 9.47 C
1868 25-07-2015 21:05:00 15.7 C 66 % 9.37 C
1869 25-07-2015 21:10:00 15.6 C 66 % 9.28 C
1870 25-07-2015 21:15:00 15.4 C 67 % 9.31 C
1871 25-07-2015 21:20:00 15.3 C 67 % 9.21 C
1872 25-07-2015 21:25:00 15.2 C 69 % 9.56 C
1873 25-07-2015 21:30:00 15.1 C 69 % 9.46 C
1874 25-07-2015 21:35:00 14.9 C 70 % 9.48 C
1875 25-07-2015 21:40:00 14.8 C 71 % 9.6 C
Sensor: Nr:Datum:Temp:Feuchte:Taupunkt:
Aussen-T/F 1876 25-07-2015 21:45:00 14.8 C 71 % 9.6 C
1877 25-07-2015 21:50:00 14.7 C 71 % 9.5 C
1878 25-07-2015 21:55:00 14.6 C 71 % 9.41 C
1879 25-07-2015 22:00:00 14.5 C 72 % 9.52 C
1880 25-07-2015 22:05:00 14.4 C 72 % 9.42 C
1881 25-07-2015 22:10:00 14.3 C 72 % 9.33 C
1882 25-07-2015 22:15:00 14.3 C 72 % 9.33 C
1883 25-07-2015 22:20:00 14.3 C 72 % 9.33 C
1884 25-07-2015 22:25:00 14.2 C 73 % 9.43 C
1885 25-07-2015 22:30:00 14.2 C 73 % 9.43 C
1886 25-07-2015 22:35:00 14.1 C 73 % 9.34 C
1887 25-07-2015 22:40:00 14 C 74 % 9.44 C
1888 25-07-2015 22:45:00 13.9 C 74 % 9.35 C
1889 25-07-2015 22:50:00 13.9 C 74 % 9.35 C
1890 25-07-2015 22:55:00 13.9 C 74 % 9.35 C
1891 25-07-2015 23:00:00 13.8 C 75 % 9.45 C
1892 25-07-2015 23:05:00 13.8 C 76 % 9.65 C
1893 25-07-2015 23:10:00 13.7 C 76 % 9.55 C
1894 25-07-2015 23:15:00 13.7 C 76 % 9.55 C
1895 25-07-2015 23:20:00 13.6 C 77 % 9.65 C
1896 25-07-2015 23:25:00 13.5 C 77 % 9.55 C
1897 25-07-2015 23:30:00 13.4 C 78 % 9.65 C
1898 25-07-2015 23:35:00 13.3 C 78 % 9.55 C
1899 25-07-2015 23:40:00 13.2 C 79 % 9.64 C
1900 25-07-2015 23:45:00 13.1 C 79 % 9.54 C
Sensor: Nr:Datum:Temp:Feuchte:Taupunkt:
Aussen-T/F 1901 25-07-2015 23:50:00 13.1 C 79 % 9.54 C
1902 25-07-2015 23:55:00 13 C 80 % 9.63 C
1903 26-07-2015 00:00:00 13 C 80 % 9.63 C
1904 26-07-2015 00:05:00 13 C 80 % 9.63 C
1905 26-07-2015 00:10:00 12.9 C 80 % 9.54 C
1906 26-07-2015 00:15:00 12.9 C 80 % 9.54 C
1907 26-07-2015 00:20:00 12.9 C 81 % 9.72 C
1908 26-07-2015 00:25:00 12.9 C 81 % 9.72 C
1909 26-07-2015 00:30:00 12.9 C 81 % 9.72 C
1910 26-07-2015 00:35:00 12.9 C 81 % 9.72 C
1911 26-07-2015 00:40:00 12.8 C 81 % 9.62 C
1912 26-07-2015 00:45:00 12.7 C 81 % 9.53 C
1913 26-07-2015 00:50:00 12.7 C 82 % 9.71 C
1914 26-07-2015 00:55:00 12.7 C 82 % 9.71 C
1915 26-07-2015 01:00:00 12.6 C 82 % 9.61 C
1916 26-07-2015 01:05:00 12.6 C 82 % 9.61 C
1917 26-07-2015 01:10:00 12.5 C 82 % 9.51 C
1918 26-07-2015 01:15:00 12.5 C 82 % 9.51 C
1919 26-07-2015 01:20:00 12.4 C 83 % 9.6 C
1920 26-07-2015 01:25:00 12.4 C 83 % 9.6 C
1921 26-07-2015 01:30:00 12.3 C 83 % 9.5 C
1922 26-07-2015 01:35:00 12.2 C 84 % 9.58 C
1923 26-07-2015 01:40:00 12.2 C 84 % 9.58 C
1924 26-07-2015 01:45:00 12.1 C 84 % 9.48 C
1925 26-07-2015 01:50:00 12.1 C 84 % 9.48 C
Sensor: Nr:Datum:Temp:Feuchte:Taupunkt:
Aussen-T/F 1926 26-07-2015 01:55:00 12 C 85 % 9.56 C
1927 26-07-2015 02:00:00 11.9 C 85 % 9.46 C
1928 26-07-2015 02:05:00 11.9 C 85 % 9.46 C
1929 26-07-2015 02:10:00 11.9 C 85 % 9.46 C
1930 26-07-2015 02:15:00 11.9 C 85 % 9.46 C
1931 26-07-2015 02:20:00 12 C 85 % 9.56 C
1932 26-07-2015 02:25:00 12.1 C 85 % 9.66 C
1933 26-07-2015 02:30:00 12.1 C 84 % 9.48 C
1934 26-07-2015 02:35:00 12.2 C 84 % 9.58 C
1935 26-07-2015 02:40:00 12.2 C 84 % 9.58 C
1936 26-07-2015 02:45:00 12.1 C 84 % 9.48 C
1937 26-07-2015 02:50:00 12 C 84 % 9.38 C
1938 26-07-2015 02:55:00 12 C 85 % 9.56 C
1939 26-07-2015 03:00:00 11.9 C 85 % 9.46 C
1940 26-07-2015 03:05:00 11.9 C 85 % 9.46 C
1941 26-07-2015 03:10:00 11.9 C 85 % 9.46 C
1942 26-07-2015 03:15:00 11.9 C 85 % 9.46 C
1943 26-07-2015 03:20:00 11.9 C 85 % 9.46 C
1944 26-07-2015 03:25:00 11.9 C 85 % 9.46 C
1945 26-07-2015 03:30:00 11.9 C 85 % 9.46 C
1946 26-07-2015 03:35:00 11.8 C 85 % 9.36 C
1947 26-07-2015 03:40:00 11.8 C 85 % 9.36 C
1948 26-07-2015 03:45:00 11.8 C 85 % 9.36 C
1949 26-07-2015 03:50:00 11.8 C 85 % 9.36 C
1950 26-07-2015 04:15:00 11.1 C 87 % 9.02 C
Sensor: Nr:Datum:Temp:Feuchte:Taupunkt:
Aussen-T/F 1951 26-07-2015 04:20:00 11 C 88 % 9.09 C
1952 26-07-2015 04:25:00 11 C 88 % 9.09 C
1953 26-07-2015 04:30:00 10.7 C 89 % 8.96 C
1954 26-07-2015 04:35:00 10.7 C 89 % 8.96 C
1955 26-07-2015 04:40:00 10.6 C 89 % 8.86 C
1956 26-07-2015 04:45:00 10.5 C 90 % 8.93 C
1957 26-07-2015 04:50:00 10.4 C 90 % 8.83 C
1958 26-07-2015 04:55:00 10.4 C 90 % 8.83 C
1959 26-07-2015 05:00:00 10.4 C 90 % 8.83 C
1960 26-07-2015 05:05:00 10.3 C 91 % 8.9 C
1961 26-07-2015 05:10:00 10.3 C 91 % 8.9 C
1962 26-07-2015 05:15:00 10.3 C 91 % 8.9 C
1963 26-07-2015 05:20:00 10.3 C 91 % 8.9 C
1964 26-07-2015 05:25:00 10.3 C 91 % 8.9 C
1965 26-07-2015 05:30:00 10.3 C 91 % 8.9 C
1966 26-07-2015 05:35:00 10.2 C 91 % 8.8 C
1967 26-07-2015 05:40:00 10.2 C 91 % 8.8 C
1968 26-07-2015 05:45:00 10.1 C 91 % 8.7 C
1969 26-07-2015 05:50:00 10.1 C 91 % 8.7 C
1970 26-07-2015 05:55:00 9.9 C 91 % 8.5 C
1971 26-07-2015 06:00:00 9.8 C 91 % 8.4 C
1972 26-07-2015 06:05:00 9.8 C 92 % 8.56 C
1973 26-07-2015 06:10:00 9.8 C 92 % 8.56 C
1974 26-07-2015 06:15:00 9.8 C 92 % 8.56 C
1975 26-07-2015 06:20:00 9.9 C 92 % 8.66 C
Sensor: Nr:Datum:Temp:Feuchte:Taupunkt:
Aussen-T/F 1976 26-07-2015 06:25:00 9.9 C 92 % 8.66 C
1977 26-07-2015 06:30:00 9.9 C 92 % 8.66 C
1978 26-07-2015 06:35:00 9.9 C 92 % 8.66 C
1979 26-07-2015 06:40:00 9.9 C 92 % 8.66 C
1980 26-07-2015 06:45:00 9.9 C 92 % 8.66 C
1981 26-07-2015 06:50:00 10 C 92 % 8.76 C
1982 26-07-2015 06:55:00 10 C 92 % 8.76 C
1983 26-07-2015 07:00:00 10 C 92 % 8.76 C
1984 26-07-2015 07:05:00 10.1 C 92 % 8.86 C
1985 26-07-2015 07:10:00 10.1 C 92 % 8.86 C
1986 26-07-2015 07:15:00 10.1 C 92 % 8.86 C
1987 26-07-2015 07:20:00 10.1 C 92 % 8.86 C
1988 26-07-2015 07:25:00 10 C 92 % 8.76 C
1989 26-07-2015 07:30:00 10.1 C 92 % 8.86 C
1990 26-07-2015 07:35:00 10.2 C 93 % 9.12 C
1991 26-07-2015 07:40:00 10.2 C 93 % 9.12 C
1992 26-07-2015 07:45:00 10.3 C 93 % 9.22 C
1993 26-07-2015 07:50:00 10.3 C 93 % 9.22 C
1994 26-07-2015 07:55:00 10.3 C 93 % 9.22 C
1995 26-07-2015 08:00:00 10.4 C 92 % 9.16 C
1996 26-07-2015 08:05:00 10.4 C 92 % 9.16 C
1997 26-07-2015 08:10:00 10.4 C 93 % 9.32 C
1998 26-07-2015 08:15:00 10.4 C 93 % 9.32 C
1999 26-07-2015 08:20:00 11 C 93 % 9.91 C
2000 26-07-2015 08:25:00 11.3 C 92 % 10.05 C
Sensor: Nr:Datum:Temp:Feuchte:Taupunkt:
Aussen-T/F 2001 26-07-2015 08:30:00 11.6 C 91 % 10.18 C
2002 26-07-2015 08:35:00 11.9 C 91 % 10.48 C
2003 26-07-2015 08:40:00 12.4 C 89 % 10.64 C
2004 26-07-2015 08:45:00 12.8 C 88 % 10.86 C
2005 26-07-2015 08:50:00 13.3 C 85 % 10.83 C
2006 26-07-2015 08:55:00 13.7 C 83 % 10.87 C
2007 26-07-2015 09:00:00 13.9 C 81 % 10.7 C
2008 26-07-2015 09:05:00 14.1 C 81 % 10.89 C
2009 26-07-2015 09:10:00 14.2 C 81 % 10.99 C
2010 26-07-2015 09:15:00 14.2 C 79 % 10.61 C
2011 26-07-2015 09:20:00 14.3 C 80 % 10.9 C
2012 26-07-2015 09:25:00 14.4 C 79 % 10.81 C
2013 26-07-2015 09:30:00 14.7 C 77 % 10.71 C
2014 26-07-2015 09:35:00 14.9 C 77 % 10.91 C
2015 26-07-2015 09:40:00 15.2 C 75 % 10.8 C
2016 26-07-2015 09:45:00 15.3 C 76 % 11.1 C
2017 26-07-2015 09:50:00 15.3 C 75 % 10.9 C
2018 26-07-2015 09:55:00 15.5 C 73 % 10.69 C
2019 26-07-2015 10:00:00 15.7 C 72 % 10.67 C
2020 26-07-2015 10:05:00 15.8 C 72 % 10.77 C
2021 26-07-2015 10:10:00 16.1 C 71 % 10.84 C
2022 26-07-2015 10:15:00 16.4 C 67 % 10.26 C
2023 26-07-2015 10:20:00 16.8 C 65 % 10.19 C
2024 26-07-2015 10:25:00 17.1 C 65 % 10.47 C
2025 26-07-2015 10:30:00 17.4 C 64 % 10.53 C
Sensor: Nr:Datum:Temp:Feuchte:Taupunkt:
Aussen-T/F 2026 26-07-2015 10:35:00 17.5 C 63 % 10.38 C
2027 26-07-2015 10:40:00 17.8 C 60 % 9.94 C
2028 26-07-2015 10:45:00 17.8 C 64 % 10.9 C
2029 26-07-2015 10:50:00 17.6 C 67 % 11.4 C
2030 26-07-2015 10:55:00 17.5 C 65 % 10.85 C
2031 26-07-2015 11:00:00 17.9 C 58 % 9.53 C
2032 26-07-2015 11:05:00 18.4 C 61 % 10.75 C
2033 26-07-2015 11:10:00 18.8 C 57 % 10.11 C
2034 26-07-2015 11:15:00 19.1 C 56 % 10.12 C
2035 26-07-2015 11:20:00 19.3 C 53 % 9.49 C
2036 26-07-2015 11:25:00 19.6 C 52 % 9.48 C
2037 26-07-2015 11:30:00 19.1 C 52 % 9.02 C
2038 26-07-2015 11:35:00 18.8 C 55 % 9.58 C
2039 26-07-2015 11:40:00 18.9 C 56 % 9.94 C
2040 26-07-2015 11:45:00 19.3 C 51 % 8.92 C
2041 26-07-2015 11:50:00 19.3 C 51 % 8.92 C
2042 26-07-2015 11:55:00 19.3 C 54 % 9.77 C
2043 26-07-2015 12:00:00 19.5 C 51 % 9.1 C
2044 26-07-2015 12:05:00 19.8 C 58 % 11.3 C
2045 26-07-2015 12:10:00 20.4 C 53 % 10.51 C
2046 26-07-2015 12:15:00 20.9 C 48 % 9.49 C
2047 26-07-2015 12:20:00 20.9 C 47 % 9.17 C
2048 26-07-2015 12:25:00 20.9 C 48 % 9.49 C
2049 26-07-2015 12:30:00 21.1 C 46 % 9.04 C
2050 26-07-2015 12:35:00 21.4 C 46 % 9.31 C
Sensor: Nr:Datum:Temp:Feuchte:Taupunkt:
Aussen-T/F 2051 26-07-2015 12:40:00 21.6 C 46 % 9.49 C
2052 26-07-2015 12:45:00 21.6 C 48 % 10.13 C
2053 26-07-2015 12:50:00 21.3 C 47 % 9.54 C
2054 26-07-2015 12:55:00 20.8 C 48 % 9.4 C
2055 26-07-2015 13:00:00 20.6 C 48 % 9.21 C
2056 26-07-2015 13:05:00 20.4 C 48 % 9.03 C
2057 26-07-2015 13:10:00 20.5 C 52 % 10.31 C
2058 26-07-2015 13:15:00 21 C 47 % 9.27 C
2059 26-07-2015 13:20:00 21 C 46 % 8.95 C
2060 26-07-2015 13:25:00 21.1 C 46 % 9.04 C
2061 26-07-2015 13:30:00 21.5 C 46 % 9.4 C
2062 26-07-2015 13:35:00 21.8 C 45 % 9.35 C
2063 26-07-2015 13:40:00 21.6 C 44 % 8.83 C
2064 26-07-2015 13:45:00 21.6 C 49 % 10.44 C
2065 26-07-2015 13:50:00 22.1 C 42 % 8.6 C
2066 26-07-2015 13:55:00 21.9 C 42 % 8.42 C
2067 26-07-2015 14:00:00 21.7 C 44 % 8.92 C
2068 26-07-2015 14:05:00 21.7 C 45 % 9.26 C
2069 26-07-2015 14:10:00 22.1 C 42 % 8.6 C
2070 26-07-2015 14:15:00 22.1 C 42 % 8.6 C
2071 26-07-2015 14:20:00 21.8 C 41 % 7.97 C
2072 26-07-2015 14:25:00 21.7 C 45 % 9.26 C
2073 26-07-2015 14:30:00 21.8 C 43 % 8.67 C
2074 26-07-2015 14:35:00 21.8 C 45 % 9.35 C
2075 26-07-2015 14:40:00 21.9 C 46 % 9.77 C
Sensor: Nr:Datum:Temp:Feuchte:Taupunkt:
Aussen-T/F 2076 26-07-2015 14:45:00 22.3 C 43 % 9.13 C
2077 26-07-2015 14:50:00 22.7 C 42 % 9.14 C
2078 26-07-2015 14:55:00 23.1 C 41 % 9.14 C
2079 26-07-2015 15:00:00 23.2 C 41 % 9.23 C
2080 26-07-2015 15:05:00 23.1 C 42 % 9.5 C
2081 26-07-2015 15:10:00 23.1 C 40 % 8.77 C
2082 26-07-2015 15:15:00 23 C 41 % 9.05 C
2083 26-07-2015 15:20:00 22.9 C 43 % 9.67 C
2084 26-07-2015 15:25:00 23.4 C 40 % 9.04 C
2085 26-07-2015 15:30:00 23.7 C 38 % 8.55 C
2086 26-07-2015 15:35:00 23.7 C 38 % 8.55 C
2087 26-07-2015 15:40:00 23.6 C 37 % 8.07 C
2088 26-07-2015 15:45:00 23.3 C 37 % 7.8 C
2089 26-07-2015 15:50:00 23.2 C 38 % 8.11 C
2090 26-07-2015 15:55:00 23.6 C 38 % 8.46 C
2091 26-07-2015 16:00:00 23.8 C 37 % 8.25 C
2092 26-07-2015 16:05:00 23.7 C 37 % 8.16 C
2093 26-07-2015 16:10:00 23.4 C 37 % 7.89 C
2094 26-07-2015 16:15:00 23.3 C 40 % 8.95 C
2095 26-07-2015 16:20:00 23.3 C 39 % 8.58 C
2096 26-07-2015 16:25:00 23.3 C 41 % 9.32 C
2097 26-07-2015 16:30:00 23.3 C 39 % 8.58 C
2098 26-07-2015 16:35:00 23.4 C 36 % 7.49 C
2099 26-07-2015 16:40:00 23.3 C 38 % 8.19 C
2100 26-07-2015 16:45:00 23.1 C 39 % 8.4 C
Sensor: Nr:Datum:Temp:Feuchte:Taupunkt:
Aussen-T/F 2101 26-07-2015 16:50:00 22.8 C 39 % 8.13 C
2102 26-07-2015 16:55:00 22.5 C 41 % 8.6 C
2103 26-07-2015 17:00:00 22.4 C 40 % 8.15 C
2104 26-07-2015 17:05:00 22.4 C 40 % 8.15 C
2105 26-07-2015 17:10:00 22.3 C 42 % 8.78 C
2106 26-07-2015 17:15:00 22.3 C 42 % 8.78 C
2107 26-07-2015 17:20:00 22.2 C 39 % 7.6 C
2108 26-07-2015 17:25:00 22.1 C 40 % 7.88 C
2109 26-07-2015 17:30:00 21.9 C 40 % 7.7 C
2110 26-07-2015 17:35:00 21.8 C 42 % 8.33 C
2111 26-07-2015 17:40:00 21.6 C 50 % 10.74 C
2112 26-07-2015 17:45:00 21.4 C 54 % 11.71 C
2113 26-07-2015 17:50:00 21.1 C 49 % 9.98 C
2114 26-07-2015 17:55:00 20.7 C 61 % 12.91 C
2115 26-07-2015 18:00:00 20.2 C 62 % 12.69 C
2116 26-07-2015 18:05:00 19.7 C 67 % 13.4 C
2117 26-07-2015 18:10:00 19.2 C 69 % 13.38 C
2118 26-07-2015 18:15:00 18.7 C 72 % 13.55 C
2119 26-07-2015 18:20:00 18.3 C 73 % 13.38 C
2120 26-07-2015 18:25:00 17.8 C 75 % 13.31 C
2121 26-07-2015 18:30:00 17.5 C 76 % 13.23 C
2122 26-07-2015 18:35:00 17.2 C 77 % 13.14 C
2123 26-07-2015 18:40:00 16.8 C 80 % 13.33 C
2124 26-07-2015 18:45:00 16.6 C 82 % 13.52 C
2125 26-07-2015 18:50:00 16.3 C 84 % 13.59 C
Sensor: Nr:Datum:Temp:Feuchte:Taupunkt:
Aussen-T/F 2126 26-07-2015 18:55:00 16.2 C 84 % 13.5 C
2127 26-07-2015 19:00:00 16.1 C 84 % 13.4 C
2128 26-07-2015 19:05:00 15.8 C 85 % 13.28 C
2129 26-07-2015 19:10:00 15.7 C 85 % 13.19 C
2130 26-07-2015 19:15:00 15.5 C 87 % 13.35 C
2131 26-07-2015 19:20:00 15.3 C 88 % 13.33 C
2132 26-07-2015 19:25:00 15.2 C 89 % 13.4 C
2133 26-07-2015 19:30:00 15.1 C 90 % 13.47 C
2134 26-07-2015 19:35:00 15 C 90 % 13.37 C
2135 26-07-2015 19:40:00 14.9 C 91 % 13.44 C
2136 26-07-2015 19:45:00 14.8 C 92 % 13.51 C
2137 26-07-2015 19:50:00 14.7 C 91 % 13.25 C
2138 26-07-2015 19:55:00 14.6 C 92 % 13.32 C
2139 26-07-2015 20:00:00 14.5 C 92 % 13.22 C
2140 26-07-2015 20:05:00 14.3 C 92 % 13.02 C
2141 26-07-2015 20:10:00 14.2 C 92 % 12.92 C
2142 26-07-2015 20:15:00 14.2 C 93 % 13.08 C
2143 26-07-2015 20:20:00 14.2 C 93 % 13.08 C
2144 26-07-2015 20:25:00 14.1 C 93 % 12.99 C
2145 26-07-2015 20:30:00 14.1 C 93 % 12.99 C
2146 26-07-2015 22:45:00 13.6 C 95 % 12.81 C
2147 26-07-2015 22:50:00 13.5 C 95 % 12.72 C
2148 26-07-2015 22:55:00 13.5 C 95 % 12.72 C
2149 26-07-2015 23:00:00 13.5 C 95 % 12.72 C
2150 26-07-2015 23:05:00 13.4 C 95 % 12.62 C
Sensor: Nr:Datum:Temp:Feuchte:Taupunkt:
Aussen-T/F 2151 26-07-2015 23:10:00 13.4 C 96 % 12.78 C
2152 26-07-2015 23:15:00 13.4 C 96 % 12.78 C
2153 26-07-2015 23:20:00 13.3 C 96 % 12.68 C
2154 26-07-2015 23:25:00 13.3 C 96 % 12.68 C
2155 26-07-2015 23:30:00 13.3 C 96 % 12.68 C
2156 26-07-2015 23:35:00 13.3 C 96 % 12.68 C
2157 27-07-2015 00:05:00 13.3 C 100 % 13.3 C
2158 27-07-2015 00:10:00 13.3 C 96 % 12.68 C
2159 27-07-2015 00:15:00 13.3 C 96 % 12.68 C
2160 27-07-2015 00:20:00 13.3 C 96 % 12.68 C
2161 27-07-2015 00:25:00 13.3 C 96 % 12.68 C
2162 27-07-2015 00:30:00 13.3 C 96 % 12.68 C
2163 27-07-2015 00:35:00 13.3 C 96 % 12.68 C
2164 27-07-2015 00:40:00 13.3 C 96 % 12.68 C
2165 27-07-2015 00:45:00 13.2 C 96 % 12.58 C
2166 27-07-2015 00:50:00 13.2 C 96 % 12.58 C
2167 27-07-2015 00:55:00 13.2 C 96 % 12.58 C
2168 27-07-2015 01:50:00 12.8 C 100 % 12.8 C
2169 27-07-2015 01:55:00 12.8 C 96 % 12.18 C
2170 27-07-2015 02:00:00 12.8 C 96 % 12.18 C
2171 27-07-2015 02:05:00 12.8 C 96 % 12.18 C
2172 27-07-2015 02:10:00 12.8 C 96 % 12.18 C
2173 27-07-2015 02:15:00 12.8 C 96 % 12.18 C
2174 27-07-2015 02:20:00 12.7 C 96 % 12.08 C
2175 27-07-2015 02:25:00 12.7 C 96 % 12.08 C
Sensor: Nr:Datum:Temp:Feuchte:Taupunkt:
Aussen-T/F 2176 27-07-2015 02:30:00 12.7 C 96 % 12.08 C
2177 27-07-2015 02:35:00 12.8 C 96 % 12.18 C
2178 27-07-2015 02:40:00 12.8 C 96 % 12.18 C
2179 27-07-2015 02:45:00 12.8 C 96 % 12.18 C
2180 27-07-2015 02:50:00 12.8 C 96 % 12.18 C
2181 27-07-2015 02:55:00 12.7 C 96 % 12.08 C
2182 27-07-2015 03:00:00 12.7 C 96 % 12.08 C
2183 27-07-2015 04:05:00 13.7 C 96 % 13.07 C
2184 27-07-2015 04:10:00 13.8 C 96 % 13.17 C
2185 27-07-2015 04:15:00 13.8 C 96 % 13.17 C
2186 27-07-2015 04:20:00 13.8 C 96 % 13.17 C
2187 27-07-2015 04:25:00 13.9 C 96 % 13.27 C
2188 27-07-2015 04:30:00 13.9 C 96 % 13.27 C
2189 27-07-2015 04:35:00 13.9 C 96 % 13.27 C
2190 27-07-2015 04:40:00 14 C 96 % 13.37 C
2191 27-07-2015 04:45:00 14.1 C 96 % 13.47 C
2192 27-07-2015 04:50:00 14.1 C 96 % 13.47 C
2193 27-07-2015 04:55:00 14.2 C 96 % 13.57 C
2194 27-07-2015 05:00:00 14.2 C 96 % 13.57 C
2195 27-07-2015 05:05:00 14.2 C 96 % 13.57 C
2196 27-07-2015 05:10:00 14.2 C 96 % 13.57 C
2197 27-07-2015 05:15:00 14.2 C 96 % 13.57 C
2198 27-07-2015 05:20:00 14.3 C 96 % 13.67 C
2199 27-07-2015 05:25:00 14.2 C 96 % 13.57 C
2200 27-07-2015 05:30:00 14.2 C 96 % 13.57 C
Sensor: Nr:Datum:Temp:Feuchte:Taupunkt:
Aussen-T/F 2201 27-07-2015 05:35:00 14.2 C 96 % 13.57 C
2202 27-07-2015 05:40:00 14.2 C 96 % 13.57 C
2203 27-07-2015 05:45:00 14.2 C 96 % 13.57 C
2204 27-07-2015 05:50:00 14.3 C 96 % 13.67 C
2205 27-07-2015 05:55:00 14.3 C 96 % 13.67 C
2206 27-07-2015 06:00:00 14.3 C 96 % 13.67 C
2207 27-07-2015 06:05:00 14.4 C 96 % 13.77 C
2208 27-07-2015 06:10:00 14.5 C 97 % 14.03 C
2209 27-07-2015 06:15:00 14.6 C 97 % 14.13 C
2210 27-07-2015 06:20:00 14.8 C 97 % 14.33 C
2211 27-07-2015 06:25:00 14.8 C 97 % 14.33 C
2212 27-07-2015 06:30:00 14.9 C 97 % 14.43 C
2213 27-07-2015 06:35:00 14.9 C 96 % 14.27 C
2214 27-07-2015 06:40:00 15 C 96 % 14.37 C
2215 27-07-2015 06:45:00 15.1 C 96 % 14.47 C
2216 27-07-2015 06:50:00 15.1 C 96 % 14.47 C
2217 27-07-2015 06:55:00 15.2 C 96 % 14.57 C
2218 27-07-2015 07:00:00 15.2 C 96 % 14.57 C
2219 27-07-2015 07:05:00 15.2 C 96 % 14.57 C
2220 27-07-2015 07:10:00 15.3 C 96 % 14.67 C
2221 27-07-2015 07:15:00 15.3 C 96 % 14.67 C
2222 27-07-2015 07:20:00 15.4 C 96 % 14.77 C
2223 27-07-2015 07:25:00 15.4 C 96 % 14.77 C
2224 27-07-2015 07:30:00 15.6 C 95 % 14.8 C
2225 27-07-2015 07:35:00 15.7 C 95 % 14.9 C
Sensor: Nr:Datum:Temp:Feuchte:Taupunkt:
Aussen-T/F 2226 27-07-2015 07:40:00 15.8 C 95 % 15 C
2227 27-07-2015 07:45:00 15.9 C 95 % 15.1 C
2228 27-07-2015 07:50:00 15.9 C 95 % 15.1 C
2229 27-07-2015 07:55:00 15.9 C 95 % 15.1 C
2230 27-07-2015 08:00:00 15.9 C 95 % 15.1 C
2231 27-07-2015 08:05:00 15.9 C 95 % 15.1 C
2232 27-07-2015 08:10:00 15.8 C 95 % 15 C
2233 27-07-2015 08:15:00 15.8 C 95 % 15 C
2234 27-07-2015 08:20:00 15.8 C 95 % 15 C
2235 27-07-2015 08:25:00 15.8 C 95 % 15 C
2236 27-07-2015 08:30:00 15.9 C 95 % 15.1 C
2237 27-07-2015 08:35:00 15.9 C 95 % 15.1 C
2238 27-07-2015 08:40:00 15.9 C 95 % 15.1 C
2239 27-07-2015 08:45:00 16.1 C 95 % 15.3 C
2240 27-07-2015 08:50:00 16.1 C 95 % 15.3 C
2241 27-07-2015 08:55:00 16.2 C 95 % 15.4 C
2242 27-07-2015 09:00:00 16.2 C 95 % 15.4 C
2243 27-07-2015 09:05:00 16.2 C 94 % 15.23 C
2244 27-07-2015 09:10:00 16.2 C 94 % 15.23 C
2245 27-07-2015 09:15:00 16.1 C 93 % 14.97 C
2246 27-07-2015 09:20:00 16.1 C 93 % 14.97 C
2247 27-07-2015 09:25:00 16.1 C 94 % 15.13 C
2248 27-07-2015 09:30:00 16.1 C 94 % 15.13 C
2249 27-07-2015 09:35:00 16 C 93 % 14.87 C
2250 27-07-2015 09:40:00 16.1 C 93 % 14.97 C
Sensor: Nr:Datum:Temp:Feuchte:Taupunkt:
Aussen-T/F 2251 27-07-2015 09:45:00 16.3 C 94 % 15.33 C
2252 27-07-2015 09:50:00 16.4 C 92 % 15.1 C
2253 27-07-2015 09:55:00 16.3 C 90 % 14.66 C
2254 27-07-2015 10:00:00 16.5 C 91 % 15.03 C
2255 27-07-2015 10:05:00 16.7 C 90 % 15.05 C
2256 27-07-2015 10:10:00 16.8 C 90 % 15.15 C
2257 27-07-2015 10:15:00 16.9 C 88 % 14.9 C
2258 27-07-2015 10:20:00 17.1 C 88 % 15.1 C
2259 27-07-2015 10:25:00 17.3 C 86 % 14.94 C
2260 27-07-2015 10:30:00 17.3 C 86 % 14.94 C
2261 27-07-2015 10:35:00 17.3 C 86 % 14.94 C
2262 27-07-2015 10:40:00 17.3 C 85 % 14.76 C
2263 27-07-2015 10:45:00 17.3 C 85 % 14.76 C
2264 27-07-2015 10:50:00 17.4 C 86 % 15.03 C
2265 27-07-2015 10:55:00 17.5 C 84 % 14.77 C
2266 27-07-2015 11:00:00 17.7 C 84 % 14.96 C
2267 27-07-2015 11:05:00 17.9 C 83 % 14.97 C
2268 27-07-2015 11:10:00 18 C 81 % 14.69 C
2269 27-07-2015 11:15:00 18.2 C 81 % 14.89 C
2270 27-07-2015 11:20:00 18.3 C 79 % 14.6 C
2271 27-07-2015 11:25:00 18.4 C 81 % 15.08 C
2272 27-07-2015 11:30:00 18.6 C 79 % 14.89 C
2273 27-07-2015 11:35:00 18.8 C 79 % 15.08 C
2274 27-07-2015 11:40:00 18.9 C 78 % 14.98 C
2275 27-07-2015 11:45:00 18.9 C 76 % 14.58 C
Sensor: Nr:Datum:Temp:Feuchte:Taupunkt:
Aussen-T/F 2276 27-07-2015 11:50:00 18.8 C 77 % 14.68 C
2277 27-07-2015 11:55:00 18.4 C 79 % 14.69 C
2278 27-07-2015 12:00:00 18.2 C 80 % 14.69 C
2279 27-07-2015 12:05:00 18.2 C 79 % 14.5 C
2280 27-07-2015 12:10:00 17.9 C 79 % 14.21 C
2281 27-07-2015 12:15:00 17.7 C 83 % 14.78 C
2282 27-07-2015 12:20:00 17.4 C 83 % 14.48 C
2283 27-07-2015 12:25:00 17.6 C 84 % 14.87 C
2284 27-07-2015 12:30:00 17.9 C 83 % 14.97 C
2285 27-07-2015 12:35:00 18.2 C 81 % 14.89 C
2286 27-07-2015 12:40:00 18.3 C 79 % 14.6 C
2287 27-07-2015 12:45:00 18.3 C 79 % 14.6 C
2288 27-07-2015 12:50:00 18.4 C 79 % 14.69 C
2289 27-07-2015 12:55:00 18.4 C 80 % 14.89 C
2290 27-07-2015 13:00:00 18.7 C 79 % 14.99 C
2291 27-07-2015 13:05:00 18.9 C 78 % 14.98 C
2292 27-07-2015 13:10:00 19.1 C 78 % 15.18 C
2293 27-07-2015 13:15:00 19.2 C 77 % 15.07 C
2294 27-07-2015 13:20:00 19.3 C 77 % 15.17 C
2295 27-07-2015 13:25:00 19.1 C 76 % 14.77 C
2296 27-07-2015 13:30:00 19.2 C 75 % 14.66 C
2297 27-07-2015 13:35:00 19.2 C 75 % 14.66 C
2298 27-07-2015 13:40:00 19.2 C 74 % 14.46 C
2299 27-07-2015 13:45:00 19.3 C 75 % 14.76 C
2300 27-07-2015 13:50:00 19.3 C 75 % 14.76 C
Sensor: Nr:Datum:Temp:Feuchte:Taupunkt:
Aussen-T/F 2301 27-07-2015 13:55:00 19.3 C 75 % 14.76 C
2302 27-07-2015 14:00:00 19.1 C 75 % 14.57 C
2303 27-07-2015 14:05:00 18.8 C 78 % 14.88 C
2304 27-07-2015 14:10:00 18.3 C 81 % 14.98 C
2305 27-07-2015 14:15:00 17.9 C 81 % 14.59 C
2306 27-07-2015 14:20:00 18 C 82 % 14.88 C
2307 27-07-2015 14:25:00 18.2 C 81 % 14.89 C
2308 27-07-2015 14:30:00 18.3 C 80 % 14.79 C
2309 27-07-2015 14:35:00 18.7 C 78 % 14.79 C
2310 27-07-2015 14:40:00 18.8 C 78 % 14.88 C
2311 27-07-2015 14:45:00 19.1 C 76 % 14.77 C
2312 27-07-2015 14:50:00 19.3 C 77 % 15.17 C
2313 27-07-2015 14:55:00 19.7 C 74 % 14.94 C
2314 27-07-2015 15:00:00 20.1 C 71 % 14.68 C
2315 27-07-2015 15:05:00 20.3 C 72 % 15.09 C
2316 27-07-2015 15:10:00 20.4 C 70 % 14.75 C
2317 27-07-2015 15:15:00 20.4 C 70 % 14.75 C
2318 27-07-2015 15:20:00 20.4 C 68 % 14.3 C
2319 27-07-2015 15:25:00 20.3 C 68 % 14.2 C
2320 27-07-2015 15:30:00 20.2 C 68 % 14.11 C
2321 27-07-2015 15:35:00 19.9 C 72 % 14.7 C
2322 27-07-2015 15:40:00 20 C 72 % 14.8 C
2323 27-07-2015 15:45:00 20.2 C 71 % 14.78 C
2324 27-07-2015 15:50:00 20.1 C 71 % 14.68 C
2325 27-07-2015 15:55:00 19.9 C 70 % 14.27 C
Sensor: Nr:Datum:Temp:Feuchte:Taupunkt:
Aussen-T/F 2326 27-07-2015 16:00:00 19.9 C 71 % 14.49 C
2327 27-07-2015 16:05:00 19.9 C 71 % 14.49 C
2328 27-07-2015 16:10:00 20.1 C 71 % 14.68 C
2329 27-07-2015 16:15:00 20.7 C 70 % 15.03 C
2330 27-07-2015 16:20:00 21.1 C 68 % 14.97 C
2331 27-07-2015 16:25:00 20.9 C 69 % 15 C
2332 27-07-2015 16:30:00 20.8 C 68 % 14.68 C
2333 27-07-2015 16:35:00 20.6 C 69 % 14.71 C
2334 27-07-2015 16:40:00 20.7 C 69 % 14.81 C
2335 27-07-2015 16:45:00 21 C 68 % 14.87 C
2336 27-07-2015 16:50:00 21 C 69 % 15.1 C
2337 27-07-2015 16:55:00 20.9 C 68 % 14.77 C
2338 27-07-2015 17:00:00 20.5 C 69 % 14.62 C
2339 27-07-2015 17:05:00 20.1 C 71 % 14.68 C
2340 27-07-2015 17:10:00 19.9 C 72 % 14.7 C
2341 27-07-2015 17:15:00 20.2 C 72 % 14.99 C
2342 27-07-2015 17:20:00 20.8 C 72 % 15.57 C
2343 27-07-2015 17:25:00 21.3 C 69 % 15.38 C
2344 27-07-2015 17:30:00 21.2 C 69 % 15.29 C
2345 27-07-2015 17:35:00 20.8 C 69 % 14.91 C
2346 27-07-2015 17:40:00 20.4 C 69 % 14.52 C
2347 27-07-2015 17:45:00 20.4 C 69 % 14.52 C
2348 27-07-2015 17:50:00 20.3 C 70 % 14.65 C
2349 27-07-2015 17:55:00 20.2 C 72 % 14.99 C
2350 27-07-2015 18:00:00 20 C 75 % 15.43 C
Sensor: Nr:Datum:Temp:Feuchte:Taupunkt:
Aussen-T/F 2351 27-07-2015 18:05:00 19.8 C 76 % 15.45 C
2352 27-07-2015 18:10:00 19.7 C 78 % 15.76 C
2353 27-07-2015 18:15:00 20 C 75 % 15.43 C
2354 27-07-2015 18:20:00 20.2 C 74 % 15.42 C
2355 27-07-2015 18:25:00 20.3 C 74 % 15.51 C
2356 27-07-2015 18:30:00 20.4 C 74 % 15.61 C
2357 27-07-2015 18:35:00 20.7 C 70 % 15.03 C
2358 27-07-2015 18:40:00 21.4 C 67 % 15.02 C
2359 27-07-2015 18:45:00 22.1 C 65 % 15.21 C
2360 27-07-2015 18:50:00 22.3 C 61 % 14.42 C
2361 27-07-2015 18:55:00 22.2 C 61 % 14.32 C
2362 27-07-2015 19:00:00 22.1 C 62 % 14.48 C
2363 27-07-2015 19:05:00 22.2 C 62 % 14.58 C
2364 27-07-2015 19:10:00 21.6 C 62 % 14.01 C
2365 27-07-2015 19:15:00 21 C 64 % 13.93 C
2366 27-07-2015 19:20:00 20.6 C 65 % 13.79 C
2367 27-07-2015 19:25:00 20.4 C 67 % 14.07 C
2368 27-07-2015 19:30:00 20.4 C 67 % 14.07 C
2369 27-07-2015 19:35:00 20.4 C 66 % 13.84 C
2370 27-07-2015 19:40:00 20.5 C 66 % 13.93 C
2371 27-07-2015 19:45:00 20.5 C 66 % 13.93 C
2372 27-07-2015 19:50:00 20.6 C 66 % 14.03 C
2373 27-07-2015 19:55:00 20.5 C 66 % 13.93 C
2374 27-07-2015 20:00:00 20.4 C 66 % 13.84 C
2375 27-07-2015 20:05:00 20.4 C 66 % 13.84 C
Sensor: Nr:Datum:Temp:Feuchte:Taupunkt:
Aussen-T/F 2376 27-07-2015 20:10:00 20.4 C 65 % 13.6 C
2377 27-07-2015 20:15:00 20.4 C 66 % 13.84 C
2378 27-07-2015 20:20:00 20.4 C 67 % 14.07 C
2379 27-07-2015 20:25:00 20.2 C 68 % 14.11 C
2380 27-07-2015 20:30:00 20.1 C 68 % 14.01 C
2381 27-07-2015 20:35:00 19.9 C 68 % 13.82 C
2382 27-07-2015 20:40:00 19.9 C 67 % 13.59 C
2383 27-07-2015 20:45:00 19.9 C 67 % 13.59 C
2384 27-07-2015 20:50:00 19.9 C 67 % 13.59 C
2385 27-07-2015 20:55:00 19.9 C 67 % 13.59 C
2386 27-07-2015 21:00:00 19.9 C 67 % 13.59 C
2387 27-07-2015 21:05:00 19.9 C 67 % 13.59 C
2388 27-07-2015 21:10:00 19.8 C 68 % 13.73 C
2389 27-07-2015 21:15:00 19.7 C 67 % 13.4 C
2390 27-07-2015 21:20:00 19.6 C 68 % 13.54 C
2391 27-07-2015 21:25:00 19.6 C 68 % 13.54 C
2392 27-07-2015 21:30:00 19.7 C 67 % 13.4 C
2393 27-07-2015 21:35:00 19.7 C 67 % 13.4 C
2394 27-07-2015 21:40:00 19.7 C 67 % 13.4 C
2395 27-07-2015 21:45:00 19.7 C 67 % 13.4 C
2396 27-07-2015 21:50:00 19.6 C 68 % 13.54 C
2397 27-07-2015 21:55:00 19.5 C 67 % 13.21 C
2398 27-07-2015 22:00:00 19.6 C 67 % 13.31 C
2399 27-07-2015 22:05:00 19.6 C 67 % 13.31 C
2400 27-07-2015 22:10:00 19.4 C 67 % 13.12 C
Sensor: Nr:Datum:Temp:Feuchte:Taupunkt:
Aussen-T/F 2401 27-07-2015 22:15:00 19.3 C 69 % 13.47 C
2402 27-07-2015 22:20:00 19.1 C 68 % 13.06 C
2403 27-07-2015 22:25:00 18.9 C 70 % 13.31 C
2404 27-07-2015 22:30:00 18.6 C 72 % 13.46 C
2405 27-07-2015 22:35:00 18.3 C 72 % 13.17 C
2406 27-07-2015 22:40:00 18.3 C 70 % 12.74 C
2407 27-07-2015 22:45:00 18.6 C 69 % 12.8 C
2408 27-07-2015 22:50:00 18.7 C 69 % 12.9 C
2409 27-07-2015 22:55:00 18.9 C 68 % 12.87 C
2410 27-07-2015 23:00:00 19.1 C 68 % 13.06 C
2411 27-07-2015 23:05:00 19.2 C 68 % 13.15 C
2412 27-07-2015 23:10:00 19.1 C 68 % 13.06 C
2413 27-07-2015 23:15:00 19.1 C 69 % 13.28 C
2414 27-07-2015 23:20:00 18.9 C 69 % 13.09 C
2415 27-07-2015 23:25:00 19 C 68 % 12.96 C
2416 27-07-2015 23:30:00 19.1 C 71 % 13.72 C
2417 27-07-2015 23:35:00 18.8 C 73 % 13.86 C
2418 27-07-2015 23:40:00 18.4 C 73 % 13.48 C
2419 27-07-2015 23:45:00 18.3 C 73 % 13.38 C
2420 27-07-2015 23:50:00 17.9 C 74 % 13.2 C
2421 27-07-2015 23:55:00 17.4 C 76 % 13.13 C
2422 28-07-2015 00:00:00 17.2 C 77 % 13.14 C
2423 28-07-2015 00:05:00 16.9 C 78 % 13.04 C
2424 28-07-2015 00:10:00 16.8 C 78 % 12.94 C
2425 28-07-2015 00:15:00 16.8 C 80 % 13.33 C
Sensor: Nr:Datum:Temp:Feuchte:Taupunkt:
Aussen-T/F 2426 28-07-2015 00:20:00 16.7 C 80 % 13.23 C
2427 28-07-2015 00:25:00 16.7 C 80 % 13.23 C
2428 28-07-2015 00:30:00 16.7 C 80 % 13.23 C
2429 28-07-2015 00:35:00 16.7 C 80 % 13.23 C
2430 28-07-2015 00:40:00 16.7 C 81 % 13.43 C
2431 28-07-2015 00:45:00 16.7 C 81 % 13.43 C
2432 28-07-2015 00:50:00 16.7 C 81 % 13.43 C
2433 28-07-2015 00:55:00 16.6 C 81 % 13.33 C
2434 28-07-2015 01:00:00 16.4 C 82 % 13.32 C
2435 28-07-2015 01:05:00 16.3 C 82 % 13.22 C
2436 28-07-2015 01:10:00 16.2 C 83 % 13.31 C
2437 28-07-2015 01:15:00 16.1 C 83 % 13.21 C
2438 28-07-2015 01:20:00 16.1 C 84 % 13.4 C
2439 28-07-2015 01:25:00 15.9 C 84 % 13.2 C
2440 28-07-2015 01:30:00 16 C 83 % 13.12 C
2441 28-07-2015 01:35:00 16 C 85 % 13.48 C
2442 28-07-2015 01:40:00 16 C 85 % 13.48 C
2443 28-07-2015 01:45:00 15.9 C 86 % 13.56 C
2444 28-07-2015 01:50:00 15.9 C 86 % 13.56 C
2445 28-07-2015 01:55:00 15.8 C 87 % 13.64 C
2446 28-07-2015 02:00:00 15.8 C 87 % 13.64 C
2447 28-07-2015 02:05:00 15.7 C 87 % 13.54 C
2448 28-07-2015 02:10:00 15.7 C 87 % 13.54 C
2449 28-07-2015 02:15:00 15.7 C 87 % 13.54 C
2450 28-07-2015 02:20:00 15.7 C 87 % 13.54 C
Sensor: Nr:Datum:Temp:Feuchte:Taupunkt:
Aussen-T/F 2451 28-07-2015 02:25:00 15.7 C 88 % 13.72 C
2452 28-07-2015 02:30:00 15.6 C 88 % 13.62 C
2453 28-07-2015 02:35:00 15.6 C 88 % 13.62 C
2454 28-07-2015 02:40:00 15.6 C 87 % 13.45 C
2455 28-07-2015 02:45:00 15.6 C 87 % 13.45 C
2456 28-07-2015 02:50:00 15.6 C 82 % 12.54 C
2457 28-07-2015 02:55:00 15.7 C 78 % 11.88 C
2458 28-07-2015 03:00:00 15.9 C 74 % 11.28 C
2459 28-07-2015 03:05:00 16.1 C 73 % 11.26 C
2460 28-07-2015 03:10:00 16.1 C 72 % 11.06 C
2461 28-07-2015 03:15:00 16.1 C 72 % 11.06 C
2462 28-07-2015 03:20:00 16.1 C 73 % 11.26 C
2463 28-07-2015 03:25:00 15.9 C 74 % 11.28 C
2464 28-07-2015 03:30:00 15.7 C 75 % 11.28 C
2465 28-07-2015 03:35:00 15.4 C 76 % 11.19 C
2466 28-07-2015 03:40:00 15.3 C 77 % 11.3 C
2467 28-07-2015 03:45:00 15.1 C 78 % 11.3 C
2468 28-07-2015 03:50:00 14.9 C 78 % 11.1 C
2469 28-07-2015 03:55:00 14.8 C 78 % 11 C
2470 28-07-2015 04:00:00 14.7 C 79 % 11.1 C
2471 28-07-2015 04:05:00 14.6 C 78 % 10.81 C
2472 28-07-2015 04:10:00 14.6 C 79 % 11 C
2473 28-07-2015 04:15:00 14.6 C 79 % 11 C
2474 28-07-2015 04:20:00 14.6 C 80 % 11.19 C
2475 28-07-2015 04:25:00 14.4 C 79 % 10.81 C
Sensor: Nr:Datum:Temp:Feuchte:Taupunkt:
Aussen-T/F 2476 28-07-2015 04:30:00 14.4 C 79 % 10.81 C
2477 28-07-2015 04:35:00 14.3 C 80 % 10.9 C
2478 28-07-2015 04:40:00 14.2 C 80 % 10.8 C
2479 28-07-2015 04:45:00 14.2 C 81 % 10.99 C
2480 28-07-2015 04:50:00 14.2 C 79 % 10.61 C
2481 28-07-2015 04:55:00 14.2 C 79 % 10.61 C
2482 28-07-2015 05:00:00 14.3 C 79 % 10.71 C
2483 28-07-2015 05:05:00 14.2 C 79 % 10.61 C
2484 28-07-2015 05:10:00 14 C 80 % 10.61 C
2485 28-07-2015 05:15:00 13.9 C 80 % 10.51 C
2486 28-07-2015 05:20:00 13.8 C 80 % 10.41 C
2487 28-07-2015 05:25:00 13.9 C 79 % 10.32 C
2488 28-07-2015 05:30:00 13.9 C 79 % 10.32 C
2489 28-07-2015 05:35:00 13.9 C 79 % 10.32 C
2490 28-07-2015 05:40:00 13.7 C 79 % 10.13 C
2491 28-07-2015 05:45:00 13.7 C 81 % 10.5 C
2492 28-07-2015 05:50:00 13.6 C 79 % 10.03 C
2493 28-07-2015 05:55:00 13.6 C 77 % 9.65 C
2494 28-07-2015 06:00:00 13.7 C 78 % 9.94 C
2495 28-07-2015 06:05:00 13.7 C 77 % 9.75 C
2496 28-07-2015 06:10:00 13.6 C 78 % 9.84 C
2497 28-07-2015 06:15:00 13.5 C 78 % 9.74 C
2498 28-07-2015 06:20:00 13.7 C 78 % 9.94 C
2499 28-07-2015 06:25:00 13.8 C 78 % 10.03 C
2500 28-07-2015 06:30:00 13.8 C 78 % 10.03 C
Sensor: Nr:Datum:Temp:Feuchte:Taupunkt:
Aussen-T/F 2501 28-07-2015 06:35:00 13.8 C 78 % 10.03 C
2502 28-07-2015 06:40:00 13.8 C 79 % 10.22 C
2503 28-07-2015 06:45:00 13.8 C 79 % 10.22 C
2504 28-07-2015 06:50:00 13.7 C 79 % 10.13 C
2505 28-07-2015 06:55:00 13.7 C 80 % 10.32 C
2506 28-07-2015 07:00:00 13.7 C 80 % 10.32 C
2507 28-07-2015 07:05:00 13.7 C 80 % 10.32 C
2508 28-07-2015 07:10:00 13.8 C 79 % 10.22 C
2509 28-07-2015 07:15:00 13.9 C 79 % 10.32 C
2510 28-07-2015 07:20:00 14.1 C 78 % 10.33 C
2511 28-07-2015 07:25:00 14.2 C 78 % 10.42 C
2512 28-07-2015 07:30:00 14.3 C 77 % 10.33 C
2513 28-07-2015 07:35:00 14.3 C 77 % 10.33 C
2514 28-07-2015 07:40:00 14.4 C 77 % 10.42 C
2515 28-07-2015 07:45:00 14.5 C 76 % 10.32 C
2516 28-07-2015 07:50:00 14.6 C 76 % 10.42 C
2517 28-07-2015 07:55:00 14.7 C 76 % 10.52 C
2518 28-07-2015 08:00:00 14.7 C 75 % 10.32 C
2519 28-07-2015 08:05:00 14.8 C 75 % 10.42 C
2520 28-07-2015 08:10:00 14.8 C 75 % 10.42 C
2521 28-07-2015 08:15:00 14.9 C 75 % 10.51 C
2522 28-07-2015 08:20:00 15 C 74 % 10.41 C
2523 28-07-2015 08:25:00 15.1 C 73 % 10.3 C
2524 28-07-2015 08:30:00 15.3 C 73 % 10.49 C
2525 28-07-2015 08:35:00 15.4 C 72 % 10.38 C
Sensor: Nr:Datum:Temp:Feuchte:Taupunkt:
Aussen-T/F 2526 28-07-2015 08:40:00 15.5 C 71 % 10.27 C
2527 28-07-2015 08:45:00 15.6 C 70 % 10.15 C
2528 28-07-2015 08:50:00 15.7 C 69 % 10.03 C
2529 28-07-2015 08:55:00 15.7 C 70 % 10.25 C
2530 28-07-2015 09:00:00 15.8 C 69 % 10.13 C
2531 28-07-2015 09:05:00 15.8 C 69 % 10.13 C
2532 28-07-2015 09:10:00 15.8 C 69 % 10.13 C
2533 28-07-2015 09:15:00 15.9 C 68 % 10.01 C
2534 28-07-2015 09:20:00 16 C 68 % 10.1 C
2535 28-07-2015 09:25:00 16.1 C 68 % 10.2 C
2536 28-07-2015 09:30:00 16.2 C 66 % 9.85 C
2537 28-07-2015 09:35:00 16.4 C 66 % 10.04 C
2538 28-07-2015 09:40:00 16.6 C 64 % 9.77 C
2539 28-07-2015 09:45:00 16.7 C 64 % 9.86 C
2540 28-07-2015 09:50:00 16.7 C 63 % 9.63 C
2541 28-07-2015 09:55:00 16.7 C 63 % 9.63 C
2542 28-07-2015 10:00:00 16.8 C 63 % 9.72 C
2543 28-07-2015 10:05:00 16.9 C 62 % 9.58 C
2544 28-07-2015 10:10:00 17.1 C 62 % 9.77 C
2545 28-07-2015 10:15:00 17.2 C 62 % 9.86 C
2546 28-07-2015 10:20:00 17.4 C 61 % 9.81 C
2547 28-07-2015 10:25:00 17.6 C 62 % 10.24 C
2548 28-07-2015 10:30:00 17.8 C 60 % 9.94 C
2549 28-07-2015 10:35:00 17.8 C 60 % 9.94 C
2550 28-07-2015 10:40:00 17.9 C 61 % 10.28 C
Sensor: Nr:Datum:Temp:Feuchte:Taupunkt:
Aussen-T/F 2551 28-07-2015 10:45:00 17.9 C 60 % 10.03 C
2552 28-07-2015 10:50:00 17.8 C 61 % 10.18 C
2553 28-07-2015 10:55:00 17.8 C 60 % 9.94 C
2554 28-07-2015 11:00:00 17.7 C 61 % 10.09 C
2555 28-07-2015 11:05:00 17.8 C 60 % 9.94 C
2556 28-07-2015 11:10:00 18 C 61 % 10.37 C
2557 28-07-2015 11:15:00 18.1 C 59 % 9.97 C
2558 28-07-2015 11:20:00 18.1 C 60 % 10.22 C
2559 28-07-2015 11:25:00 18.1 C 58 % 9.71 C
2560 28-07-2015 11:30:00 17.9 C 59 % 9.78 C
2561 28-07-2015 11:35:00 17.8 C 59 % 9.69 C
2562 28-07-2015 11:40:00 18 C 59 % 9.88 C
2563 28-07-2015 11:45:00 18.2 C 58 % 9.81 C
2564 28-07-2015 11:50:00 18.3 C 58 % 9.9 C
2565 28-07-2015 11:55:00 18.3 C 57 % 9.64 C
2566 28-07-2015 12:00:00 18.2 C 57 % 9.55 C
2567 28-07-2015 12:05:00 18.3 C 57 % 9.64 C
2568 28-07-2015 12:10:00 18.4 C 57 % 9.74 C
2569 28-07-2015 12:15:00 18.5 C 56 % 9.57 C
2570 28-07-2015 12:20:00 18.6 C 55 % 9.39 C
2571 28-07-2015 12:25:00 18.8 C 55 % 9.58 C
2572 28-07-2015 12:30:00 18.8 C 55 % 9.58 C
2573 28-07-2015 12:35:00 18.7 C 55 % 9.48 C
2574 28-07-2015 12:40:00 18.9 C 55 % 9.67 C
2575 28-07-2015 12:45:00 19.1 C 52 % 9.02 C
Sensor: Nr:Datum:Temp:Feuchte:Taupunkt:
Aussen-T/F 2576 28-07-2015 12:50:00 19.1 C 53 % 9.3 C
2577 28-07-2015 12:55:00 18.8 C 54 % 9.3 C
2578 28-07-2015 13:00:00 19.2 C 55 % 9.95 C
2579 28-07-2015 13:05:00 19.3 C 54 % 9.77 C
2580 28-07-2015 13:10:00 19.6 C 53 % 9.77 C
2581 28-07-2015 13:15:00 19.4 C 50 % 8.72 C
2582 28-07-2015 13:20:00 19.3 C 51 % 8.92 C
2583 28-07-2015 13:25:00 19.8 C 50 % 9.09 C
2584 28-07-2015 13:30:00 19.7 C 48 % 8.39 C
2585 28-07-2015 13:35:00 19.5 C 49 % 8.51 C
2586 28-07-2015 13:40:00 19.6 C 49 % 8.6 C
2587 28-07-2015 13:45:00 19.8 C 48 % 8.48 C
2588 28-07-2015 13:50:00 19.8 C 49 % 8.79 C
2589 28-07-2015 13:55:00 20.1 C 47 % 8.45 C
2590 28-07-2015 14:00:00 19.9 C 47 % 8.26 C
2591 28-07-2015 14:05:00 19.7 C 49 % 8.7 C
2592 28-07-2015 14:10:00 19.6 C 49 % 8.6 C
2593 28-07-2015 14:15:00 19.7 C 49 % 8.7 C
2594 28-07-2015 14:20:00 19.8 C 49 % 8.79 C
2595 28-07-2015 14:25:00 19.8 C 48 % 8.48 C
2596 28-07-2015 14:30:00 19.8 C 47 % 8.17 C
2597 28-07-2015 14:35:00 19.8 C 48 % 8.48 C
2598 28-07-2015 14:40:00 19.7 C 48 % 8.39 C
2599 28-07-2015 14:45:00 19.7 C 48 % 8.39 C
2600 28-07-2015 14:50:00 19.7 C 47 % 8.08 C
Sensor: Nr:Datum:Temp:Feuchte:Taupunkt:
Aussen-T/F 2601 28-07-2015 14:55:00 19.8 C 46 % 7.86 C
2602 28-07-2015 15:00:00 20.3 C 47 % 8.63 C
2603 28-07-2015 15:05:00 20.6 C 47 % 8.9 C
2604 28-07-2015 15:10:00 21.1 C 43 % 8.04 C
2605 28-07-2015 15:15:00 21.5 C 43 % 8.4 C
2606 28-07-2015 15:20:00 21.7 C 43 % 8.58 C
2607 28-07-2015 15:25:00 21.7 C 43 % 8.58 C
2608 28-07-2015 15:30:00 21.8 C 43 % 8.67 C
2609 28-07-2015 15:35:00 21.4 C 43 % 8.31 C
2610 28-07-2015 15:40:00 20.9 C 44 % 8.2 C
2611 28-07-2015 15:45:00 20.6 C 46 % 8.58 C
2612 28-07-2015 15:50:00 20.3 C 45 % 7.99 C
2613 28-07-2015 15:55:00 20.3 C 47 % 8.63 C
2614 28-07-2015 16:00:00 20.4 C 46 % 8.4 C
2615 28-07-2015 16:05:00 20.4 C 45 % 8.08 C
2616 28-07-2015 16:10:00 20.3 C 46 % 8.31 C
2617 28-07-2015 16:15:00 20.2 C 46 % 8.22 C
2618 28-07-2015 16:20:00 20.1 C 47 % 8.45 C
2619 28-07-2015 16:25:00 20.1 C 47 % 8.45 C
2620 28-07-2015 16:30:00 20.1 C 47 % 8.45 C
2621 28-07-2015 16:35:00 19.9 C 47 % 8.26 C
2622 28-07-2015 16:40:00 19.8 C 46 % 7.86 C
2623 28-07-2015 16:45:00 19.7 C 48 % 8.39 C
2624 28-07-2015 16:50:00 19.7 C 48 % 8.39 C
2625 28-07-2015 16:55:00 19.7 C 48 % 8.39 C
Sensor: Nr:Datum:Temp:Feuchte:Taupunkt:
Aussen-T/F 2626 28-07-2015 17:00:00 19.7 C 48 % 8.39 C
2627 28-07-2015 17:05:00 19.7 C 48 % 8.39 C
2628 28-07-2015 17:10:00 19.7 C 48 % 8.39 C
2629 28-07-2015 17:15:00 19.7 C 48 % 8.39 C
2630 28-07-2015 17:20:00 19.6 C 49 % 8.6 C
2631 28-07-2015 17:25:00 19.6 C 49 % 8.6 C
2632 28-07-2015 17:30:00 19.5 C 49 % 8.51 C
2633 28-07-2015 17:35:00 19.4 C 50 % 8.72 C
2634 28-07-2015 17:40:00 19.3 C 49 % 8.33 C
2635 28-07-2015 17:45:00 19.3 C 50 % 8.63 C
2636 28-07-2015 17:50:00 19.2 C 51 % 8.83 C
2637 28-07-2015 17:55:00 19.2 C 51 % 8.83 C
2638 28-07-2015 18:00:00 19.3 C 52 % 9.21 C
2639 28-07-2015 18:05:00 19.3 C 50 % 8.63 C
2640 28-07-2015 18:10:00 19.2 C 51 % 8.83 C
2641 28-07-2015 18:15:00 19.2 C 51 % 8.83 C
2642 28-07-2015 18:20:00 19.1 C 50 % 8.44 C
2643 28-07-2015 18:25:00 19 C 50 % 8.35 C
2644 28-07-2015 18:30:00 18.9 C 51 % 8.55 C
2645 28-07-2015 18:35:00 18.9 C 50 % 8.26 C
2646 28-07-2015 18:40:00 18.9 C 51 % 8.55 C
2647 28-07-2015 18:45:00 18.9 C 50 % 8.26 C
2648 28-07-2015 18:50:00 18.9 C 50 % 8.26 C
2649 28-07-2015 18:55:00 18.9 C 50 % 8.26 C
2650 28-07-2015 19:00:00 18.8 C 50 % 8.17 C
Sensor: Nr:Datum:Temp:Feuchte:Taupunkt:
Aussen-T/F 2651 28-07-2015 19:05:00 18.8 C 51 % 8.46 C
2652 28-07-2015 19:10:00 18.8 C 51 % 8.46 C
2653 28-07-2015 19:15:00 18.8 C 52 % 8.75 C
2654 28-07-2015 19:20:00 18.8 C 51 % 8.46 C
2655 28-07-2015 19:25:00 18.8 C 51 % 8.46 C
2656 28-07-2015 19:30:00 18.8 C 51 % 8.46 C
2657 28-07-2015 19:35:00 18.7 C 52 % 8.65 C
2658 28-07-2015 19:40:00 18.6 C 50 % 7.98 C
2659 28-07-2015 19:45:00 18.6 C 51 % 8.27 C
2660 28-07-2015 19:50:00 18.6 C 51 % 8.27 C
2661 28-07-2015 19:55:00 18.5 C 53 % 8.75 C
2662 28-07-2015 20:00:00 18.4 C 53 % 8.66 C
2663 28-07-2015 20:05:00 18.3 C 52 % 8.28 C
2664 28-07-2015 20:10:00 18.3 C 52 % 8.28 C
2665 28-07-2015 20:15:00 18.2 C 53 % 8.47 C
2666 28-07-2015 20:20:00 18.2 C 53 % 8.47 C
2667 28-07-2015 20:25:00 18.1 C 53 % 8.38 C
2668 28-07-2015 20:30:00 18.1 C 52 % 8.1 C
2669 28-07-2015 20:35:00 18 C 52 % 8.01 C
2670 28-07-2015 20:40:00 18 C 53 % 8.29 C
2671 28-07-2015 20:45:00 18 C 53 % 8.29 C
2672 28-07-2015 20:50:00 18 C 53 % 8.29 C
2673 28-07-2015 20:55:00 18 C 53 % 8.29 C
2674 28-07-2015 21:00:00 18 C 54 % 8.56 C
2675 28-07-2015 21:05:00 17.9 C 54 % 8.47 C
Sensor: Nr:Datum:Temp:Feuchte:Taupunkt:
Aussen-T/F 2676 28-07-2015 21:10:00 17.9 C 54 % 8.47 C
2677 28-07-2015 21:15:00 17.9 C 54 % 8.47 C
2678 28-07-2015 21:20:00 17.8 C 55 % 8.65 C
2679 28-07-2015 21:25:00 17.8 C 55 % 8.65 C
2680 28-07-2015 21:30:00 17.7 C 56 % 8.82 C
2681 28-07-2015 21:35:00 17.7 C 58 % 9.34 C
2682 28-07-2015 21:40:00 17.6 C 57 % 8.99 C
2683 28-07-2015 21:45:00 17.5 C 57 % 8.9 C
2684 28-07-2015 21:50:00 17.4 C 57 % 8.8 C
2685 28-07-2015 21:55:00 17.4 C 57 % 8.8 C
2686 28-07-2015 22:00:00 17.3 C 57 % 8.71 C
2687 28-07-2015 22:05:00 17.3 C 57 % 8.71 C
2688 28-07-2015 22:10:00 17.3 C 58 % 8.97 C
2689 28-07-2015 22:15:00 17.3 C 59 % 9.22 C
2690 28-07-2015 22:20:00 17.2 C 61 % 9.62 C
2691 28-07-2015 22:25:00 16.9 C 62 % 9.58 C
2692 28-07-2015 22:30:00 16.8 C 63 % 9.72 C
2693 28-07-2015 22:35:00 16.7 C 64 % 9.86 C
2694 28-07-2015 22:40:00 16.6 C 64 % 9.77 C
2695 28-07-2015 22:45:00 16.4 C 66 % 10.04 C
2696 28-07-2015 22:50:00 16.3 C 66 % 9.94 C
2697 28-07-2015 22:55:00 16.2 C 68 % 10.29 C
2698 28-07-2015 23:00:00 16.1 C 69 % 10.42 C
2699 28-07-2015 23:05:00 15.9 C 69 % 10.23 C
2700 28-07-2015 23:10:00 15.7 C 70 % 10.25 C
Sensor: Nr:Datum:Temp:Feuchte:Taupunkt:
Aussen-T/F 2701 28-07-2015 23:15:00 15.6 C 72 % 10.57 C
2702 28-07-2015 23:20:00 15.3 C 72 % 10.29 C
2703 28-07-2015 23:25:00 15.2 C 73 % 10.4 C
2704 28-07-2015 23:30:00 15.1 C 73 % 10.3 C
2705 28-07-2015 23:35:00 14.9 C 74 % 10.31 C
2706 28-07-2015 23:40:00 14.7 C 75 % 10.32 C
2707 28-07-2015 23:45:00 14.7 C 75 % 10.32 C
2708 29-07-2015 03:20:00 14.3 C 74 % 9.73 C
2709 29-07-2015 03:25:00 14.3 C 74 % 9.73 C
2710 29-07-2015 03:30:00 14.2 C 75 % 9.84 C
2711 29-07-2015 03:35:00 14.2 C 75 % 9.84 C
2712 29-07-2015 03:40:00 14.2 C 75 % 9.84 C
2713 29-07-2015 05:10:00 12.3 C 83 % 9.5 C
2714 29-07-2015 05:15:00 12.3 C 83 % 9.5 C
2715 29-07-2015 05:20:00 12.3 C 83 % 9.5 C
2716 29-07-2015 05:25:00 12.3 C 83 % 9.5 C
2717 29-07-2015 05:30:00 12.3 C 83 % 9.5 C
2718 29-07-2015 05:35:00 12.3 C 83 % 9.5 C
2719 29-07-2015 05:40:00 12.7 C 83 % 9.89 C
2720 29-07-2015 05:45:00 12.7 C 83 % 9.89 C
2721 29-07-2015 05:50:00 12.7 C 83 % 9.89 C
2722 29-07-2015 07:50:00 13.6 C 100 % 13.6 C
2723 29-07-2015 07:55:00 13.6 C 100 % 13.6 C
2724 29-07-2015 08:00:00 13.6 C 79 % 10.03 C
2725 29-07-2015 08:05:00 13.6 C 79 % 10.03 C
Sensor: Nr:Datum:Temp:Feuchte:Taupunkt:
Aussen-T/F 2726 29-07-2015 08:10:00 13.8 C 78 % 10.03 C
2727 29-07-2015 08:15:00 13.9 C 78 % 10.13 C
2728 29-07-2015 08:20:00 14.2 C 77 % 10.23 C
2729 29-07-2015 08:25:00 14.4 C 75 % 10.03 C
2730 29-07-2015 08:30:00 14.6 C 75 % 10.22 C
2731 29-07-2015 08:35:00 14.7 C 75 % 10.32 C
2732 29-07-2015 08:40:00 14.8 C 74 % 10.22 C
2733 29-07-2015 08:45:00 15 C 74 % 10.41 C
2734 29-07-2015 08:50:00 15.1 C 72 % 10.09 C
2735 29-07-2015 08:55:00 15.1 C 72 % 10.09 C
2736 29-07-2015 09:00:00 15.2 C 71 % 9.98 C
2737 29-07-2015 09:05:00 15.2 C 71 % 9.98 C
2738 29-07-2015 09:10:00 15.2 C 70 % 9.77 C
2739 29-07-2015 09:15:00 15.3 C 70 % 9.87 C
2740 29-07-2015 09:20:00 15.4 C 70 % 9.96 C
2741 29-07-2015 09:25:00 15.4 C 69 % 9.75 C
2742 29-07-2015 09:30:00 15.6 C 68 % 9.72 C
2743 29-07-2015 09:35:00 15.6 C 67 % 9.5 C
2744 29-07-2015 09:40:00 15.7 C 68 % 9.82 C
2745 29-07-2015 09:45:00 15.7 C 67 % 9.6 C
2746 29-07-2015 09:50:00 15.9 C 67 % 9.79 C
2747 29-07-2015 09:55:00 16 C 66 % 9.66 C
2748 29-07-2015 10:00:00 16.2 C 64 % 9.39 C
2749 29-07-2015 10:05:00 16.3 C 65 % 9.71 C
2750 29-07-2015 10:10:00 16.4 C 65 % 9.81 C
Sensor: Nr:Datum:Temp:Feuchte:Taupunkt:
Aussen-T/F 2751 29-07-2015 10:15:00 16.7 C 63 % 9.63 C
2752 29-07-2015 10:20:00 16.8 C 61 % 9.24 C
2753 29-07-2015 10:25:00 16.8 C 61 % 9.24 C
2754 29-07-2015 10:30:00 16.9 C 62 % 9.58 C
2755 29-07-2015 10:35:00 17.2 C 60 % 9.37 C
2756 29-07-2015 10:40:00 17.4 C 58 % 9.06 C
2757 29-07-2015 10:45:00 17.4 C 57 % 8.8 C
2758 29-07-2015 10:50:00 17.6 C 54 % 8.19 C
2759 29-07-2015 10:55:00 17.7 C 54 % 8.28 C
2760 29-07-2015 11:00:00 17.9 C 55 % 8.74 C
2761 29-07-2015 11:05:00 18.3 C 55 % 9.11 C
2762 29-07-2015 11:10:00 18.4 C 55 % 9.2 C
2763 29-07-2015 11:15:00 18.6 C 51 % 8.27 C
2764 29-07-2015 11:20:00 18.6 C 52 % 8.56 C
2765 29-07-2015 11:25:00 18.7 C 50 % 8.08 C
2766 29-07-2015 11:30:00 18.9 C 49 % 7.96 C
2767 29-07-2015 11:35:00 18.8 C 48 % 7.57 C
2768 29-07-2015 11:40:00 18.4 C 47 % 6.9 C
2769 29-07-2015 11:45:00 18.2 C 48 % 7.02 C
2770 29-07-2015 11:50:00 18.3 C 47 % 6.8 C
2771 29-07-2015 11:55:00 18.6 C 47 % 7.08 C
2772 29-07-2015 12:00:00 18.9 C 44 % 6.39 C
2773 29-07-2015 12:05:00 19.1 C 43 % 6.24 C
2774 29-07-2015 12:10:00 19.1 C 44 % 6.57 C
2775 29-07-2015 12:15:00 19.3 C 44 % 6.75 C
Sensor: Nr:Datum:Temp:Feuchte:Taupunkt:
Aussen-T/F 2776 29-07-2015 12:20:00 19.4 C 44 % 6.84 C
2777 29-07-2015 12:25:00 19.6 C 44 % 7.03 C
2778 29-07-2015 12:30:00 19.7 C 43 % 6.78 C
2779 29-07-2015 12:35:00 20 C 44 % 7.39 C
2780 29-07-2015 12:40:00 20.3 C 43 % 7.32 C
2781 29-07-2015 12:45:00 20.4 C 41 % 6.72 C
2782 29-07-2015 12:50:00 20.3 C 40 % 6.27 C
2783 29-07-2015 12:55:00 20 C 41 % 6.36 C
2784 29-07-2015 13:00:00 19.8 C 42 % 6.53 C
2785 29-07-2015 13:05:00 19.7 C 42 % 6.44 C
2786 29-07-2015 13:10:00 19.7 C 43 % 6.78 C
2787 29-07-2015 13:15:00 20.1 C 43 % 7.14 C
2788 29-07-2015 13:20:00 20.1 C 42 % 6.8 C
2789 29-07-2015 13:25:00 19.8 C 44 % 7.21 C
2790 29-07-2015 13:30:00 20.4 C 44 % 7.75 C
2791 29-07-2015 13:35:00 20.7 C 41 % 6.99 C
2792 29-07-2015 13:40:00 20.3 C 42 % 6.98 C
2793 29-07-2015 13:45:00 20.2 C 42 % 6.89 C
2794 29-07-2015 13:50:00 20.4 C 43 % 7.41 C
2795 29-07-2015 13:55:00 20.2 C 42 % 6.89 C
2796 29-07-2015 14:00:00 19.8 C 43 % 6.87 C
2797 29-07-2015 14:05:00 19.7 C 44 % 7.12 C
2798 29-07-2015 14:10:00 20.3 C 45 % 7.99 C
2799 29-07-2015 14:15:00 20.9 C 41 % 7.17 C
2800 29-07-2015 14:20:00 21.1 C 39 % 6.62 C
Sensor: Nr:Datum:Temp:Feuchte:Taupunkt:
Aussen-T/F 2801 29-07-2015 14:25:00 21 C 40 % 6.9 C
2802 29-07-2015 14:30:00 21.3 C 40 % 7.16 C
2803 29-07-2015 14:35:00 21.3 C 39 % 6.8 C
2804 29-07-2015 14:40:00 20.9 C 39 % 6.44 C
2805 29-07-2015 14:45:00 20.4 C 40 % 6.36 C
2806 29-07-2015 14:50:00 20.6 C 39 % 6.17 C
2807 29-07-2015 14:55:00 21 C 40 % 6.9 C
2808 29-07-2015 15:00:00 21.5 C 38 % 6.6 C
2809 29-07-2015 15:05:00 21.7 C 36 % 5.99 C
2810 29-07-2015 15:10:00 21.9 C 36 % 6.17 C
2811 29-07-2015 15:15:00 21.6 C 35 % 5.5 C
2812 29-07-2015 15:20:00 20.8 C 38 % 5.97 C
2813 29-07-2015 15:25:00 20.6 C 40 % 6.54 C
2814 29-07-2015 15:30:00 20.8 C 41 % 7.08 C
2815 29-07-2015 15:35:00 21.3 C 40 % 7.16 C
2816 29-07-2015 15:40:00 21.8 C 37 % 6.48 C
2817 29-07-2015 15:45:00 21.6 C 37 % 6.3 C
2818 29-07-2015 15:50:00 21 C 40 % 6.9 C
2819 29-07-2015 15:55:00 21.2 C 40 % 7.08 C
2820 29-07-2015 16:00:00 21.4 C 39 % 6.89 C
2821 29-07-2015 16:05:00 21.6 C 38 % 6.69 C
2822 29-07-2015 16:10:00 21.8 C 37 % 6.48 C
2823 29-07-2015 16:15:00 21.8 C 38 % 6.86 C
2824 29-07-2015 16:20:00 22.1 C 39 % 7.51 C
2825 29-07-2015 16:25:00 21.8 C 38 % 6.86 C
Sensor: Nr:Datum:Temp:Feuchte:Taupunkt:
Aussen-T/F 2826 29-07-2015 16:30:00 21.6 C 37 % 6.3 C
2827 29-07-2015 16:35:00 21.4 C 37 % 6.12 C
2828 29-07-2015 16:40:00 21 C 38 % 6.15 C
2829 29-07-2015 16:45:00 20.7 C 38 % 5.89 C
2830 29-07-2015 16:50:00 20.3 C 40 % 6.27 C
2831 29-07-2015 16:55:00 20.1 C 41 % 6.45 C
2832 29-07-2015 17:00:00 19.8 C 42 % 6.53 C
2833 29-07-2015 17:05:00 19.9 C 43 % 6.96 C
2834 29-07-2015 17:10:00 19.9 C 44 % 7.3 C
2835 29-07-2015 17:15:00 19.8 C 45 % 7.53 C
2836 29-07-2015 17:20:00 19.7 C 46 % 7.77 C
2837 29-07-2015 17:25:00 20.2 C 46 % 8.22 C
2838 29-07-2015 17:30:00 20.9 C 42 % 7.52 C
2839 29-07-2015 17:35:00 21.2 C 41 % 7.44 C
2840 29-07-2015 17:40:00 21.2 C 40 % 7.08 C
2841 29-07-2015 17:45:00 21.4 C 41 % 7.62 C
2842 29-07-2015 17:50:00 21.3 C 42 % 7.88 C
2843 29-07-2015 17:55:00 21.4 C 42 % 7.97 C
2844 29-07-2015 18:00:00 20.9 C 44 % 8.2 C
2845 29-07-2015 18:05:00 20.3 C 44 % 7.66 C
2846 29-07-2015 18:10:00 19.2 C 55 % 9.95 C
2847 29-07-2015 18:15:00 17.8 C 62 % 10.43 C
2848 29-07-2015 18:20:00 17.1 C 69 % 11.37 C
2849 29-07-2015 18:25:00 16.7 C 71 % 11.42 C
2850 29-07-2015 18:30:00 16.8 C 77 % 12.75 C
Sensor: Nr:Datum:Temp:Feuchte:Taupunkt:
Aussen-T/F 2851 29-07-2015 18:35:00 17.3 C 68 % 11.34 C
2852 29-07-2015 18:40:00 18.1 C 68 % 12.11 C
2853 29-07-2015 18:45:00 18.8 C 61 % 11.13 C
2854 29-07-2015 18:50:00 19.3 C 56 % 10.31 C
2855 29-07-2015 18:55:00 19.7 C 50 % 8.99 C
2856 29-07-2015 19:00:00 19.9 C 49 % 8.88 C
2857 29-07-2015 19:05:00 19.8 C 47 % 8.17 C
2858 29-07-2015 19:10:00 19.3 C 49 % 8.33 C
2859 29-07-2015 19:15:00 18.9 C 50 % 8.26 C
2860 29-07-2015 19:20:00 18.8 C 51 % 8.46 C
2861 29-07-2015 19:25:00 18.8 C 56 % 9.84 C
2862 29-07-2015 19:30:00 18.8 C 56 % 9.84 C
2863 29-07-2015 19:35:00 18.8 C 54 % 9.3 C
2864 29-07-2015 19:40:00 18.9 C 56 % 9.94 C
2865 29-07-2015 19:45:00 18.9 C 56 % 9.94 C
2866 29-07-2015 19:50:00 19.1 C 55 % 9.86 C
2867 29-07-2015 19:55:00 18.9 C 53 % 9.12 C
2868 29-07-2015 20:00:00 18.8 C 52 % 8.75 C
2869 29-07-2015 20:05:00 18.8 C 54 % 9.3 C
2870 29-07-2015 20:10:00 18.8 C 52 % 8.75 C
2871 29-07-2015 20:15:00 18.8 C 52 % 8.75 C
2872 29-07-2015 20:20:00 18.8 C 53 % 9.03 C
2873 29-07-2015 20:25:00 18.7 C 52 % 8.65 C
2874 29-07-2015 20:30:00 18.7 C 52 % 8.65 C
2875 29-07-2015 20:35:00 18.6 C 53 % 8.84 C
Sensor: Nr:Datum:Temp:Feuchte:Taupunkt:
Aussen-T/F 2876 29-07-2015 20:40:00 18.4 C 53 % 8.66 C
2877 29-07-2015 20:45:00 18.4 C 54 % 8.93 C
2878 29-07-2015 20:50:00 18.3 C 54 % 8.84 C
2879 29-07-2015 20:55:00 18.2 C 54 % 8.75 C
2880 29-07-2015 21:00:00 18 C 54 % 8.56 C
2881 29-07-2015 21:05:00 17.8 C 54 % 8.38 C
2882 29-07-2015 21:10:00 17.6 C 57 % 8.99 C
2883 29-07-2015 21:15:00 17.4 C 56 % 8.54 C
2884 29-07-2015 21:20:00 17.3 C 58 % 8.97 C
2885 29-07-2015 21:25:00 17.1 C 56 % 8.26 C
2886 29-07-2015 21:30:00 16.8 C 62 % 9.49 C
2887 29-07-2015 21:35:00 16.3 C 63 % 9.25 C
2888 29-07-2015 21:40:00 15.9 C 64 % 9.11 C
2889 29-07-2015 21:45:00 15.7 C 65 % 9.15 C
2890 29-07-2015 21:50:00 15.4 C 63 % 8.4 C
2891 29-07-2015 21:55:00 15.3 C 64 % 8.54 C
2892 29-07-2015 22:00:00 15.4 C 61 % 7.93 C
2893 29-07-2015 22:05:00 15.6 C 62 % 8.35 C
2894 29-07-2015 22:10:00 15.7 C 60 % 7.97 C
2895 29-07-2015 22:15:00 15.8 C 60 % 8.06 C
2896 29-07-2015 22:20:00 15.8 C 59 % 7.81 C
2897 29-07-2015 22:25:00 15.8 C 60 % 8.06 C
2898 29-07-2015 22:30:00 15.6 C 62 % 8.35 C
2899 29-07-2015 22:35:00 15.2 C 65 % 8.67 C
2900 29-07-2015 22:40:00 14.8 C 67 % 8.74 C
Sensor: Nr:Datum:Temp:Feuchte:Taupunkt:
Aussen-T/F 2901 29-07-2015 22:45:00 14.6 C 68 % 8.77 C
2902 29-07-2015 22:50:00 14.4 C 67 % 8.36 C
2903 29-07-2015 22:55:00 14.4 C 68 % 8.58 C
2904 29-07-2015 23:00:00 14.3 C 68 % 8.48 C
2905 29-07-2015 23:05:00 14.3 C 69 % 8.7 C
2906 29-07-2015 23:10:00 14.2 C 69 % 8.6 C
2907 29-07-2015 23:15:00 14 C 69 % 8.41 C
2908 29-07-2015 23:20:00 13.9 C 70 % 8.53 C
2909 29-07-2015 23:25:00 13.7 C 71 % 8.54 C
2910 29-07-2015 23:30:00 13.6 C 71 % 8.45 C
2911 29-07-2015 23:35:00 13.3 C 73 % 8.57 C
2912 29-07-2015 23:40:00 13.2 C 73 % 8.47 C
2913 29-07-2015 23:45:00 13.1 C 73 % 8.38 C
2914 29-07-2015 23:50:00 13.1 C 73 % 8.38 C
2915 29-07-2015 23:55:00 13.1 C 72 % 8.17 C
2916 30-07-2015 00:00:00 13.1 C 73 % 8.38 C
2917 30-07-2015 00:05:00 12.9 C 73 % 8.18 C
2918 30-07-2015 00:10:00 12.8 C 75 % 8.48 C
2919 30-07-2015 00:15:00 12.6 C 76 % 8.49 C
2920 30-07-2015 00:20:00 12.3 C 77 % 8.39 C
2921 30-07-2015 00:25:00 12 C 78 % 8.29 C
2922 30-07-2015 00:30:00 11.9 C 78 % 8.19 C
2923 30-07-2015 00:35:00 11.8 C 78 % 8.09 C
2924 30-07-2015 00:40:00 11.8 C 78 % 8.09 C
2925 30-07-2015 00:45:00 11.9 C 77 % 8 C
Sensor: Nr:Datum:Temp:Feuchte:Taupunkt:
Aussen-T/F 2926 30-07-2015 00:50:00 11.9 C 77 % 8 C
2927 30-07-2015 00:55:00 11.9 C 77 % 8 C
2928 30-07-2015 01:00:00 11.9 C 78 % 8.19 C
2929 30-07-2015 01:05:00 11.8 C 78 % 8.09 C
2930 30-07-2015 01:10:00 11.8 C 78 % 8.09 C
2931 30-07-2015 01:15:00 11.7 C 79 % 8.18 C
2932 30-07-2015 01:20:00 11.4 C 79 % 7.89 C
2933 30-07-2015 01:25:00 11.3 C 80 % 7.98 C
2934 30-07-2015 01:30:00 11.2 C 80 % 7.88 C
2935 30-07-2015 01:35:00 11.2 C 80 % 7.88 C
2936 30-07-2015 01:40:00 11.2 C 80 % 7.88 C
2937 30-07-2015 01:45:00 11.2 C 80 % 7.88 C
2938 30-07-2015 01:50:00 11.2 C 80 % 7.88 C
2939 30-07-2015 01:55:00 11.2 C 81 % 8.06 C
2940 30-07-2015 02:00:00 11.1 C 81 % 7.97 C
2941 30-07-2015 02:05:00 11.2 C 81 % 8.06 C
2942 30-07-2015 02:10:00 11.2 C 81 % 8.06 C
2943 30-07-2015 02:15:00 11.2 C 81 % 8.06 C
2944 30-07-2015 02:20:00 11.1 C 81 % 7.97 C
2945 30-07-2015 02:25:00 11.1 C 81 % 7.97 C
2946 30-07-2015 02:30:00 10.9 C 82 % 7.95 C
2947 30-07-2015 02:35:00 10.9 C 82 % 7.95 C
2948 30-07-2015 02:40:00 10.9 C 82 % 7.95 C
2949 30-07-2015 02:45:00 10.8 C 83 % 8.03 C
2950 30-07-2015 02:50:00 10.7 C 83 % 7.93 C
Sensor: Nr:Datum:Temp:Feuchte:Taupunkt:
Aussen-T/F 2951 30-07-2015 02:55:00 10.6 C 83 % 7.84 C
2952 30-07-2015 03:00:00 10.5 C 84 % 7.91 C
2953 30-07-2015 03:05:00 10.5 C 84 % 7.91 C
2954 30-07-2015 03:10:00 10.6 C 84 % 8.01 C
2955 30-07-2015 03:15:00 10.5 C 84 % 7.91 C
2956 30-07-2015 03:20:00 10.4 C 84 % 7.82 C
2957 30-07-2015 03:25:00 10.4 C 84 % 7.82 C
2958 30-07-2015 03:30:00 10.4 C 84 % 7.82 C
2959 30-07-2015 03:35:00 10.4 C 84 % 7.82 C
2960 30-07-2015 03:40:00 10.4 C 84 % 7.82 C
2961 30-07-2015 03:45:00 10.4 C 84 % 7.82 C
2962 30-07-2015 03:50:00 10.4 C 84 % 7.82 C
2963 30-07-2015 03:55:00 10.4 C 84 % 7.82 C
2964 30-07-2015 04:00:00 10.3 C 85 % 7.89 C
2965 30-07-2015 04:05:00 10.3 C 85 % 7.89 C
2966 30-07-2015 04:10:00 10.3 C 85 % 7.89 C
2967 30-07-2015 04:15:00 10.2 C 85 % 7.79 C
2968 30-07-2015 04:20:00 10.2 C 85 % 7.79 C
2969 30-07-2015 04:25:00 10.2 C 85 % 7.79 C
2970 30-07-2015 04:30:00 10.2 C 85 % 7.79 C
2971 30-07-2015 04:35:00 10.2 C 85 % 7.79 C
2972 30-07-2015 04:40:00 10.2 C 85 % 7.79 C
2973 30-07-2015 04:45:00 10.1 C 86 % 7.87 C
2974 30-07-2015 04:50:00 10.1 C 86 % 7.87 C
2975 30-07-2015 04:55:00 10.1 C 86 % 7.87 C
Sensor: Nr:Datum:Temp:Feuchte:Taupunkt:
Aussen-T/F 2976 30-07-2015 05:00:00 10.1 C 86 % 7.87 C
2977 30-07-2015 05:05:00 10 C 86 % 7.77 C
2978 30-07-2015 05:10:00 10 C 86 % 7.77 C
2979 30-07-2015 05:15:00 10.1 C 86 % 7.87 C
2980 30-07-2015 05:20:00 10.1 C 86 % 7.87 C
2981 30-07-2015 05:25:00 10.1 C 86 % 7.87 C
2982 30-07-2015 05:30:00 10.2 C 86 % 7.97 C
2983 30-07-2015 05:35:00 10.2 C 86 % 7.97 C
2984 30-07-2015 05:40:00 10.2 C 86 % 7.97 C
2985 30-07-2015 05:45:00 10.2 C 86 % 7.97 C
2986 30-07-2015 05:50:00 10.2 C 86 % 7.97 C
2987 30-07-2015 05:55:00 10.2 C 86 % 7.97 C
2988 30-07-2015 06:00:00 10.1 C 86 % 7.87 C
2989 30-07-2015 06:05:00 10 C 86 % 7.77 C
2990 30-07-2015 06:10:00 9.8 C 87 % 7.74 C
2991 30-07-2015 06:15:00 9.8 C 87 % 7.74 C
2992 30-07-2015 06:20:00 9.8 C 87 % 7.74 C
2993 30-07-2015 06:25:00 9.8 C 87 % 7.74 C
2994 30-07-2015 06:30:00 9.8 C 87 % 7.74 C
2995 30-07-2015 06:35:00 9.9 C 87 % 7.84 C
2996 30-07-2015 06:40:00 9.9 C 87 % 7.84 C
2997 30-07-2015 06:45:00 9.9 C 87 % 7.84 C
2998 30-07-2015 06:50:00 9.9 C 87 % 7.84 C
2999 30-07-2015 06:55:00 10 C 87 % 7.94 C
3000 30-07-2015 07:00:00 10.1 C 87 % 8.04 C
Sensor: Nr:Datum:Temp:Feuchte:Taupunkt:
Aussen-T/F 3001 30-07-2015 07:05:00 10.3 C 87 % 8.23 C
3002 30-07-2015 07:10:00 10.4 C 86 % 8.16 C
3003 30-07-2015 07:15:00 10.6 C 85 % 8.19 C
3004 30-07-2015 07:20:00 10.7 C 85 % 8.28 C
3005 30-07-2015 07:25:00 10.8 C 85 % 8.38 C
3006 30-07-2015 07:30:00 10.9 C 85 % 8.48 C
3007 30-07-2015 07:35:00 10.9 C 85 % 8.48 C
3008 30-07-2015 07:40:00 11 C 85 % 8.58 C
3009 30-07-2015 07:45:00 11.1 C 84 % 8.5 C
3010 30-07-2015 07:50:00 11.2 C 83 % 8.42 C
3011 30-07-2015 07:55:00 11.3 C 83 % 8.52 C
3012 30-07-2015 08:00:00 11.6 C 83 % 8.81 C
3013 30-07-2015 08:05:00 11.7 C 82 % 8.73 C
3014 30-07-2015 08:10:00 11.9 C 81 % 8.75 C
3015 30-07-2015 08:15:00 12 C 81 % 8.84 C
3016 30-07-2015 08:20:00 12.1 C 82 % 9.12 C
3017 30-07-2015 08:25:00 12.2 C 81 % 9.04 C
3018 30-07-2015 08:30:00 12.4 C 81 % 9.23 C
3019 30-07-2015 08:35:00 12.5 C 80 % 9.15 C
3020 30-07-2015 08:40:00 12.6 C 80 % 9.25 C
3021 30-07-2015 08:45:00 12.7 C 79 % 9.16 C
3022 30-07-2015 08:50:00 12.7 C 79 % 9.16 C
3023 30-07-2015 08:55:00 12.8 C 78 % 9.06 C
3024 30-07-2015 09:00:00 12.9 C 78 % 9.16 C
3025 30-07-2015 09:05:00 13.1 C 77 % 9.16 C
Sensor: Nr:Datum:Temp:Feuchte:Taupunkt:
Aussen-T/F 3026 30-07-2015 09:10:00 13.2 C 77 % 9.26 C
3027 30-07-2015 09:15:00 13.3 C 77 % 9.36 C
3028 30-07-2015 09:20:00 13.3 C 76 % 9.16 C
3029 30-07-2015 09:25:00 13.3 C 76 % 9.16 C
3030 30-07-2015 09:30:00 13.3 C 77 % 9.36 C
3031 30-07-2015 09:35:00 13.4 C 78 % 9.65 C
3032 30-07-2015 09:40:00 13.6 C 77 % 9.65 C
3033 30-07-2015 09:45:00 13.7 C 76 % 9.55 C
3034 30-07-2015 09:50:00 13.8 C 77 % 9.84 C
3035 30-07-2015 09:55:00 14.1 C 76 % 9.94 C
3036 30-07-2015 10:00:00 14.3 C 75 % 9.93 C
3037 30-07-2015 10:05:00 14.6 C 74 % 10.02 C
3038 30-07-2015 10:10:00 14.8 C 72 % 9.81 C
3039 30-07-2015 10:15:00 14.9 C 73 % 10.11 C
3040 30-07-2015 10:20:00 15.4 C 71 % 10.17 C
3041 30-07-2015 10:25:00 15.8 C 69 % 10.13 C
3042 30-07-2015 10:30:00 16 C 68 % 10.1 C
3043 30-07-2015 10:35:00 16.1 C 67 % 9.98 C
3044 30-07-2015 10:40:00 16.2 C 68 % 10.29 C
3045 30-07-2015 10:45:00 16.3 C 67 % 10.17 C
3046 30-07-2015 10:50:00 16.4 C 66 % 10.04 C
3047 30-07-2015 10:55:00 16.8 C 66 % 10.42 C
3048 30-07-2015 11:00:00 17.2 C 64 % 10.34 C
3049 30-07-2015 11:05:00 17.4 C 63 % 10.29 C
3050 30-07-2015 11:10:00 17.8 C 62 % 10.43 C
Sensor: Nr:Datum:Temp:Feuchte:Taupunkt:
Aussen-T/F 3051 30-07-2015 11:15:00 18.2 C 60 % 10.31 C
3052 30-07-2015 11:20:00 18.5 C 60 % 10.6 C
3053 30-07-2015 11:25:00 18.8 C 58 % 10.37 C
3054 30-07-2015 11:30:00 18.9 C 55 % 9.67 C
3055 30-07-2015 11:35:00 18.6 C 56 % 9.66 C
3056 30-07-2015 11:40:00 18.4 C 58 % 9.99 C
3057 30-07-2015 11:45:00 18.3 C 57 % 9.64 C
3058 30-07-2015 11:50:00 18.3 C 59 % 10.16 C
3059 30-07-2015 11:55:00 18.7 C 58 % 10.28 C
3060 30-07-2015 12:00:00 19.1 C 55 % 9.86 C
3061 30-07-2015 12:05:00 19.1 C 55 % 9.86 C
3062 30-07-2015 12:10:00 19.2 C 53 % 9.4 C
3063 30-07-2015 12:15:00 19.3 C 53 % 9.49 C
3064 30-07-2015 12:20:00 19.4 C 53 % 9.58 C
3065 30-07-2015 12:25:00 19.3 C 53 % 9.49 C
3066 30-07-2015 12:30:00 19 C 55 % 9.76 C
3067 30-07-2015 12:35:00 18.8 C 58 % 10.37 C
3068 30-07-2015 12:40:00 18.6 C 58 % 10.18 C
3069 30-07-2015 12:45:00 18.6 C 59 % 10.44 C
3070 30-07-2015 12:50:00 18.6 C 59 % 10.44 C
3071 30-07-2015 12:55:00 18.7 C 59 % 10.53 C
3072 30-07-2015 13:00:00 18.7 C 58 % 10.28 C
3073 30-07-2015 13:05:00 18.7 C 56 % 9.75 C
3074 30-07-2015 13:10:00 18.6 C 57 % 9.92 C
3075 30-07-2015 13:15:00 18.6 C 59 % 10.44 C
Sensor: Nr:Datum:Temp:Feuchte:Taupunkt:
Aussen-T/F 3076 30-07-2015 13:20:00 18.5 C 61 % 10.84 C
3077 30-07-2015 13:25:00 18.7 C 61 % 11.03 C
3078 30-07-2015 13:30:00 18.9 C 61 % 11.22 C
3079 30-07-2015 13:35:00 19.1 C 58 % 10.65 C
3080 30-07-2015 13:40:00 19.3 C 61 % 11.6 C
3081 30-07-2015 13:45:00 19.4 C 59 % 11.19 C
3082 30-07-2015 13:50:00 19.4 C 56 % 10.4 C
3083 30-07-2015 13:55:00 19.4 C 55 % 10.13 C
3084 30-07-2015 14:00:00 19.6 C 55 % 10.32 C
3085 30-07-2015 14:05:00 19.7 C 55 % 10.41 C
3086 30-07-2015 14:10:00 20.1 C 52 % 9.94 C
3087 30-07-2015 14:15:00 20.6 C 51 % 10.12 C
3088 30-07-2015 14:20:00 21.1 C 46 % 9.04 C
3089 30-07-2015 14:25:00 21.7 C 47 % 9.9 C
3090 30-07-2015 14:30:00 21.7 C 48 % 10.22 C
3091 30-07-2015 14:35:00 21.1 C 51 % 10.58 C
3092 30-07-2015 14:40:00 20.3 C 53 % 10.41 C
3093 30-07-2015 14:45:00 19.7 C 55 % 10.41 C
3094 30-07-2015 14:50:00 19.3 C 58 % 10.84 C
3095 30-07-2015 14:55:00 19.2 C 58 % 10.74 C
3096 30-07-2015 15:00:00 19 C 58 % 10.56 C
3097 30-07-2015 15:05:00 18.8 C 58 % 10.37 C
3098 30-07-2015 15:10:00 18.8 C 59 % 10.63 C
3099 30-07-2015 15:15:00 18.7 C 58 % 10.28 C
3100 30-07-2015 15:20:00 18.7 C 60 % 10.78 C
Sensor: Nr:Datum:Temp:Feuchte:Taupunkt:
Aussen-T/F 3101 30-07-2015 15:25:00 18.4 C 58 % 9.99 C
3102 30-07-2015 15:30:00 18 C 63 % 10.86 C
3103 30-07-2015 15:35:00 17.6 C 67 % 11.4 C
3104 30-07-2015 15:40:00 17.1 C 68 % 11.15 C
3105 30-07-2015 15:45:00 17 C 70 % 11.49 C
3106 30-07-2015 15:50:00 16.4 C 72 % 11.34 C
3107 30-07-2015 15:55:00 16.3 C 73 % 11.46 C
3108 30-07-2015 16:00:00 16.2 C 75 % 11.77 C
3109 30-07-2015 16:05:00 16.2 C 75 % 11.77 C
3110 30-07-2015 16:10:00 15.9 C 74 % 11.28 C
3111 30-07-2015 16:15:00 15.9 C 74 % 11.28 C
3112 30-07-2015 16:20:00 16.1 C 74 % 11.47 C
3113 30-07-2015 16:25:00 16.2 C 74 % 11.56 C
3114 30-07-2015 16:30:00 16.2 C 74 % 11.56 C
3115 30-07-2015 16:35:00 16.3 C 75 % 11.86 C
3116 30-07-2015 16:40:00 16.3 C 75 % 11.86 C
3117 30-07-2015 16:45:00 16.3 C 72 % 11.25 C
3118 30-07-2015 16:50:00 16.1 C 73 % 11.26 C
3119 30-07-2015 16:55:00 15.8 C 73 % 10.97 C
3120 30-07-2015 17:00:00 15.7 C 71 % 10.46 C
3121 30-07-2015 17:05:00 15.4 C 73 % 10.59 C
3122 30-07-2015 17:10:00 15.3 C 74 % 10.7 C
3123 30-07-2015 17:15:00 15.2 C 76 % 11 C
3124 30-07-2015 17:20:00 14.9 C 77 % 10.91 C
3125 30-07-2015 17:25:00 14.8 C 77 % 10.81 C
Sensor: Nr:Datum:Temp:Feuchte:Taupunkt:
Aussen-T/F 3126 30-07-2015 17:30:00 14.8 C 77 % 10.81 C
3127 30-07-2015 17:35:00 14.7 C 78 % 10.91 C
3128 30-07-2015 17:40:00 14.8 C 77 % 10.81 C
3129 30-07-2015 17:45:00 14.9 C 77 % 10.91 C
3130 30-07-2015 17:50:00 15 C 77 % 11 C
3131 30-07-2015 17:55:00 15.1 C 76 % 10.9 C
3132 30-07-2015 18:00:00 15.2 C 76 % 11 C
3133 30-07-2015 18:05:00 15.3 C 76 % 11.1 C
3134 30-07-2015 18:10:00 15.4 C 75 % 11 C
3135 30-07-2015 18:15:00 15.6 C 73 % 10.78 C
3136 30-07-2015 18:20:00 15.7 C 73 % 10.88 C
3137 30-07-2015 18:25:00 15.7 C 72 % 10.67 C
3138 30-07-2015 18:30:00 15.7 C 73 % 10.88 C
3139 30-07-2015 18:35:00 15.7 C 72 % 10.67 C
3140 30-07-2015 18:40:00 15.7 C 73 % 10.88 C
3141 30-07-2015 18:45:00 15.6 C 74 % 10.99 C
3142 30-07-2015 18:50:00 15.6 C 74 % 10.99 C
3143 30-07-2015 18:55:00 15.6 C 74 % 10.99 C
3144 30-07-2015 19:00:00 15.7 C 73 % 10.88 C
3145 30-07-2015 19:05:00 15.7 C 73 % 10.88 C
3146 30-07-2015 19:10:00 15.8 C 73 % 10.97 C
3147 30-07-2015 19:15:00 15.8 C 73 % 10.97 C
3148 30-07-2015 19:20:00 15.9 C 73 % 11.07 C
3149 30-07-2015 19:25:00 15.9 C 73 % 11.07 C
3150 30-07-2015 19:30:00 16 C 73 % 11.17 C
Sensor: Nr:Datum:Temp:Feuchte:Taupunkt:
Aussen-T/F 3151 30-07-2015 19:35:00 16 C 73 % 11.17 C
3152 30-07-2015 19:40:00 16 C 74 % 11.37 C
3153 30-07-2015 19:45:00 16 C 74 % 11.37 C
3154 30-07-2015 19:50:00 15.7 C 75 % 11.28 C
3155 30-07-2015 19:55:00 15.7 C 75 % 11.28 C
3156 30-07-2015 20:00:00 15.6 C 76 % 11.39 C
3157 30-07-2015 20:05:00 15.6 C 76 % 11.39 C
3158 30-07-2015 20:10:00 15.6 C 76 % 11.39 C
3159 30-07-2015 20:15:00 15.6 C 77 % 11.59 C
3160 30-07-2015 20:20:00 15.4 C 80 % 11.97 C
3161 30-07-2015 20:25:00 15.4 C 81 % 12.16 C
3162 30-07-2015 20:30:00 15.4 C 81 % 12.16 C
3163 30-07-2015 20:35:00 15.4 C 85 % 12.89 C
3164 30-07-2015 20:40:00 15.4 C 85 % 12.89 C
3165 30-07-2015 20:45:00 15.4 C 85 % 12.89 C
3166 31-07-2015 00:10:00 11.2 C 94 % 10.27 C
3167 31-07-2015 00:15:00 11.2 C 94 % 10.27 C
3168 31-07-2015 00:20:00 11.2 C 94 % 10.27 C
3169 31-07-2015 00:25:00 11.2 C 94 % 10.27 C
3170 31-07-2015 00:30:00 11.2 C 94 % 10.27 C
3171 31-07-2015 00:35:00 11.2 C 94 % 10.27 C
3172 31-07-2015 00:55:00 10.9 C 94 % 9.97 C
3173 31-07-2015 01:00:00 10.9 C 94 % 9.97 C
3174 31-07-2015 01:05:00 10.9 C 94 % 9.97 C
3175 31-07-2015 01:10:00 10.8 C 94 % 9.87 C
Sensor: Nr:Datum:Temp:Feuchte:Taupunkt:
Aussen-T/F 3176 31-07-2015 01:15:00 10.7 C 94 % 9.77 C
3177 31-07-2015 01:20:00 10.7 C 94 % 9.77 C
3178 31-07-2015 01:25:00 10.6 C 94 % 9.68 C
3179 31-07-2015 01:30:00 10.6 C 94 % 9.68 C
3180 31-07-2015 03:20:00 10.2 C 95 % 9.44 C
3181 31-07-2015 03:25:00 10.3 C 95 % 9.54 C
3182 31-07-2015 03:30:00 10.3 C 95 % 9.54 C
3183 31-07-2015 03:35:00 10.3 C 95 % 9.54 C
3184 31-07-2015 03:40:00 10.4 C 95 % 9.63 C
3185 31-07-2015 03:45:00 10.4 C 95 % 9.63 C
3186 31-07-2015 03:50:00 10.4 C 95 % 9.63 C
3187 31-07-2015 03:55:00 10.5 C 95 % 9.73 C
3188 31-07-2015 04:00:00 10.4 C 95 % 9.63 C
3189 31-07-2015 04:05:00 10.4 C 95 % 9.63 C
3190 31-07-2015 04:10:00 10.4 C 95 % 9.63 C
3191 31-07-2015 04:15:00 10.5 C 95 % 9.73 C
3192 31-07-2015 04:20:00 10.5 C 95 % 9.73 C
3193 31-07-2015 04:25:00 10.6 C 95 % 9.83 C
3194 31-07-2015 04:30:00 10.6 C 95 % 9.83 C
3195 31-07-2015 04:35:00 10.6 C 95 % 9.83 C
3196 31-07-2015 04:40:00 10.6 C 95 % 9.83 C
3197 31-07-2015 04:45:00 10.7 C 95 % 9.93 C
3198 31-07-2015 04:50:00 10.7 C 95 % 9.93 C
3199 31-07-2015 04:55:00 10.7 C 95 % 9.93 C
3200 31-07-2015 05:00:00 10.7 C 95 % 9.93 C
Sensor: Nr:Datum:Temp:Feuchte:Taupunkt:
Aussen-T/F 3201 31-07-2015 05:05:00 10.7 C 95 % 9.93 C
3202 31-07-2015 05:10:00 10.7 C 95 % 9.93 C
3203 31-07-2015 05:15:00 10.7 C 95 % 9.93 C
3204 31-07-2015 05:20:00 10.7 C 95 % 9.93 C
3205 31-07-2015 05:25:00 10.7 C 95 % 9.93 C
3206 31-07-2015 05:30:00 10.7 C 95 % 9.93 C
3207 31-07-2015 05:35:00 10.7 C 95 % 9.93 C
3208 31-07-2015 07:05:00 10.3 C 95 % 9.54 C
3209 31-07-2015 07:10:00 10.3 C 95 % 9.54 C
3210 31-07-2015 07:15:00 10.4 C 95 % 9.63 C
3211 31-07-2015 07:20:00 10.6 C 95 % 9.83 C
3212 31-07-2015 07:25:00 10.7 C 95 % 9.93 C
3213 31-07-2015 07:30:00 10.9 C 95 % 10.13 C
3214 31-07-2015 07:35:00 10.9 C 95 % 10.13 C
3215 31-07-2015 07:40:00 11.1 C 95 % 10.33 C
3216 31-07-2015 07:45:00 11.1 C 95 % 10.33 C
3217 31-07-2015 07:50:00 11.2 C 95 % 10.43 C
3218 31-07-2015 07:55:00 11.2 C 94 % 10.27 C
3219 31-07-2015 08:00:00 11.3 C 94 % 10.37 C
3220 31-07-2015 08:05:00 11.3 C 95 % 10.53 C
3221 31-07-2015 08:10:00 11.4 C 94 % 10.47 C
3222 31-07-2015 08:15:00 11.6 C 94 % 10.67 C
3223 31-07-2015 08:20:00 11.7 C 94 % 10.77 C
3224 31-07-2015 08:25:00 11.8 C 94 % 10.87 C
3225 31-07-2015 08:30:00 12.1 C 94 % 11.16 C
Sensor: Nr:Datum:Temp:Feuchte:Taupunkt:
Aussen-T/F 3226 31-07-2015 08:35:00 12.3 C 93 % 11.2 C
3227 31-07-2015 08:40:00 12.4 C 92 % 11.14 C
3228 31-07-2015 08:45:00 12.4 C 91 % 10.97 C
3229 31-07-2015 08:50:00 12.6 C 89 % 10.84 C
3230 31-07-2015 08:55:00 12.7 C 88 % 10.77 C
3231 31-07-2015 09:00:00 12.9 C 88 % 10.96 C
3232 31-07-2015 09:05:00 13 C 87 % 10.89 C
3233 31-07-2015 09:10:00 13.1 C 86 % 10.81 C
3234 31-07-2015 09:15:00 13.3 C 86 % 11.01 C
3235 31-07-2015 09:20:00 13.4 C 86 % 11.11 C
3236 31-07-2015 09:25:00 13.6 C 85 % 11.13 C
3237 31-07-2015 09:30:00 13.7 C 84 % 11.05 C
3238 31-07-2015 09:35:00 13.8 C 84 % 11.15 C
3239 31-07-2015 09:40:00 13.8 C 83 % 10.97 C
3240 31-07-2015 09:45:00 13.9 C 84 % 11.24 C
3241 31-07-2015 09:50:00 13.9 C 82 % 10.88 C
3242 31-07-2015 09:55:00 14 C 82 % 10.98 C
3243 31-07-2015 10:00:00 14.1 C 80 % 10.71 C
3244 31-07-2015 10:05:00 14.2 C 79 % 10.61 C
3245 31-07-2015 10:10:00 14.3 C 79 % 10.71 C
3246 31-07-2015 10:15:00 14.6 C 78 % 10.81 C
3247 31-07-2015 10:20:00 14.8 C 76 % 10.61 C
3248 31-07-2015 10:25:00 15.1 C 76 % 10.9 C
3249 31-07-2015 10:30:00 15.3 C 76 % 11.1 C
3250 31-07-2015 10:35:00 15.3 C 75 % 10.9 C
Sensor: Nr:Datum:Temp:Feuchte:Taupunkt:
Aussen-T/F 3251 31-07-2015 10:40:00 15.4 C 74 % 10.79 C
3252 31-07-2015 10:45:00 15.7 C 72 % 10.67 C
3253 31-07-2015 10:50:00 15.9 C 69 % 10.23 C
3254 31-07-2015 10:55:00 15.9 C 70 % 10.44 C
3255 31-07-2015 11:00:00 16.2 C 72 % 11.15 C
3256 31-07-2015 11:05:00 16.4 C 68 % 10.48 C
3257 31-07-2015 11:10:00 16.7 C 68 % 10.77 C
3258 31-07-2015 11:15:00 16.7 C 65 % 10.09 C
3259 31-07-2015 11:20:00 16.8 C 66 % 10.42 C
3260 31-07-2015 11:25:00 17 C 62 % 9.67 C
3261 31-07-2015 11:30:00 17 C 63 % 9.91 C
3262 31-07-2015 11:35:00 17.3 C 63 % 10.2 C
3263 31-07-2015 11:40:00 17.6 C 62 % 10.24 C
3264 31-07-2015 11:45:00 17.7 C 60 % 9.84 C
3265 31-07-2015 11:50:00 17.7 C 62 % 10.33 C
3266 31-07-2015 11:55:00 17.8 C 63 % 10.67 C
3267 31-07-2015 12:00:00 17.9 C 62 % 10.52 C
3268 31-07-2015 12:05:00 18 C 61 % 10.37 C
3269 31-07-2015 12:10:00 18.2 C 61 % 10.56 C
3270 31-07-2015 12:15:00 18.3 C 61 % 10.66 C
3271 31-07-2015 12:20:00 18.4 C 57 % 9.74 C
3272 31-07-2015 12:25:00 18.7 C 58 % 10.28 C
3273 31-07-2015 12:30:00 18.9 C 57 % 10.2 C
3274 31-07-2015 12:35:00 19.1 C 56 % 10.12 C
3275 31-07-2015 12:40:00 19.1 C 55 % 9.86 C
Sensor: Nr:Datum:Temp:Feuchte:Taupunkt:
Aussen-T/F 3276 31-07-2015 12:45:00 19.1 C 56 % 10.12 C
3277 31-07-2015 12:50:00 19.2 C 55 % 9.95 C
3278 31-07-2015 12:55:00 19.3 C 55 % 10.04 C
3279 31-07-2015 13:00:00 19.4 C 55 % 10.13 C
3280 31-07-2015 13:05:00 19.7 C 53 % 9.86 C
3281 31-07-2015 13:10:00 19.8 C 50 % 9.09 C
3282 31-07-2015 13:15:00 19.8 C 53 % 9.95 C
3283 31-07-2015 13:20:00 20 C 51 % 9.56 C
3284 31-07-2015 13:25:00 20.1 C 52 % 9.94 C
3285 31-07-2015 13:30:00 20.2 C 48 % 8.85 C
3286 31-07-2015 13:35:00 20.2 C 51 % 9.75 C
3287 31-07-2015 13:40:00 20.3 C 50 % 9.54 C
3288 31-07-2015 13:45:00 20.4 C 51 % 9.93 C
3289 31-07-2015 13:50:00 20.6 C 48 % 9.21 C
3290 31-07-2015 13:55:00 20.7 C 47 % 8.99 C
3291 31-07-2015 14:00:00 20.5 C 45 % 8.17 C
3292 31-07-2015 14:05:00 20.9 C 45 % 8.53 C
3293 31-07-2015 14:10:00 20.9 C 45 % 8.53 C
3294 31-07-2015 14:15:00 21.3 C 44 % 8.56 C
3295 31-07-2015 14:20:00 21.4 C 45 % 8.99 C
3296 31-07-2015 14:25:00 21.6 C 45 % 9.17 C
3297 31-07-2015 14:30:00 21.6 C 45 % 9.17 C
3298 31-07-2015 14:35:00 21.6 C 45 % 9.17 C
3299 31-07-2015 14:40:00 21.7 C 42 % 8.24 C
3300 31-07-2015 14:45:00 21.8 C 44 % 9.01 C
Sensor: Nr:Datum:Temp:Feuchte:Taupunkt:
Aussen-T/F 3301 31-07-2015 14:50:00 21.9 C 43 % 8.76 C
3302 31-07-2015 14:55:00 21.9 C 44 % 9.1 C
3303 31-07-2015 15:00:00 22 C 44 % 9.2 C
3304 31-07-2015 15:05:00 22.1 C 42 % 8.6 C
3305 31-07-2015 15:10:00 22.1 C 40 % 7.88 C
3306 31-07-2015 15:15:00 22.3 C 40 % 8.06 C
3307 31-07-2015 15:20:00 22.3 C 39 % 7.69 C
3308 31-07-2015 15:25:00 22.5 C 41 % 8.6 C
3309 31-07-2015 15:30:00 22.5 C 40 % 8.24 C
3310 31-07-2015 15:35:00 22.6 C 40 % 8.33 C
3311 31-07-2015 15:40:00 22.7 C 40 % 8.42 C
3312 31-07-2015 15:45:00 22.9 C 40 % 8.59 C
3313 31-07-2015 15:50:00 23.1 C 37 % 7.63 C
3314 31-07-2015 15:55:00 22.9 C 38 % 7.84 C
3315 31-07-2015 16:00:00 22.6 C 40 % 8.33 C
3316 31-07-2015 16:05:00 22.4 C 38 % 7.4 C
3317 31-07-2015 16:10:00 22.7 C 39 % 8.04 C
3318 31-07-2015 16:15:00 22.9 C 38 % 7.84 C
3319 31-07-2015 16:20:00 22.9 C 39 % 8.22 C
3320 31-07-2015 16:25:00 22.8 C 39 % 8.13 C
3321 31-07-2015 16:30:00 22.7 C 39 % 8.04 C
3322 31-07-2015 16:35:00 22.5 C 41 % 8.6 C
3323 31-07-2015 16:40:00 22.2 C 40 % 7.97 C
3324 31-07-2015 16:45:00 22.1 C 41 % 8.24 C
3325 31-07-2015 16:50:00 22.2 C 41 % 8.33 C
Sensor: Nr:Datum:Temp:Feuchte:Taupunkt:
Aussen-T/F 3326 31-07-2015 16:55:00 22.3 C 41 % 8.42 C
3327 31-07-2015 17:00:00 22.5 C 39 % 7.86 C
3328 31-07-2015 17:05:00 23 C 39 % 8.31 C
3329 31-07-2015 17:10:00 23.2 C 38 % 8.11 C
3330 31-07-2015 17:15:00 23.2 C 39 % 8.49 C
3331 31-07-2015 17:20:00 23.3 C 38 % 8.19 C
3332 31-07-2015 17:25:00 23.5 C 37 % 7.98 C
3333 31-07-2015 17:30:00 23.4 C 38 % 8.28 C
3334 31-07-2015 17:35:00 23.1 C 37 % 7.63 C
3335 31-07-2015 17:40:00 23.2 C 38 % 8.11 C
3336 31-07-2015 17:45:00 23.6 C 36 % 7.67 C
3337 31-07-2015 17:50:00 23.7 C 37 % 8.16 C
3338 31-07-2015 17:55:00 23.7 C 37 % 8.16 C
3339 31-07-2015 18:00:00 23.7 C 36 % 7.75 C
3340 31-07-2015 18:05:00 23.7 C 36 % 7.75 C
3341 31-07-2015 18:10:00 23.9 C 37 % 8.33 C
3342 31-07-2015 18:15:00 24.2 C 36 % 8.2 C
3343 31-07-2015 18:20:00 24.2 C 36 % 8.2 C
3344 31-07-2015 18:25:00 23.9 C 36 % 7.93 C
3345 31-07-2015 18:30:00 23.6 C 39 % 8.84 C
3346 31-07-2015 18:35:00 23.5 C 36 % 7.58 C
3347 31-07-2015 18:40:00 23.5 C 36 % 7.58 C
3348 31-07-2015 18:45:00 23.6 C 36 % 7.67 C
3349 31-07-2015 18:50:00 23.4 C 38 % 8.28 C
3350 31-07-2015 18:55:00 23.3 C 38 % 8.19 C
Sensor: Nr:Datum:Temp:Feuchte:Taupunkt:
Aussen-T/F 3351 31-07-2015 19:00:00 23.3 C 39 % 8.58 C
3352 31-07-2015 19:05:00 23.3 C 38 % 8.19 C
3353 31-07-2015 19:10:00 22.9 C 37 % 7.45 C
3354 31-07-2015 19:15:00 22.9 C 39 % 8.22 C
3355 31-07-2015 19:20:00 23.1 C 38 % 8.02 C
3356 31-07-2015 19:25:00 23.1 C 39 % 8.4 C
3357 31-07-2015 19:30:00 22.8 C 39 % 8.13 C
3358 31-07-2015 19:35:00 22.3 C 40 % 8.06 C
3359 31-07-2015 19:40:00 21.8 C 40 % 7.61 C
3360 31-07-2015 19:45:00 21.7 C 41 % 7.88 C
3361 31-07-2015 19:50:00 21.6 C 42 % 8.15 C
3362 31-07-2015 19:55:00 21.5 C 43 % 8.4 C
3363 31-07-2015 20:00:00 21.4 C 43 % 8.31 C
3364 31-07-2015 20:05:00 21.3 C 43 % 8.22 C
3365 31-07-2015 20:10:00 21.2 C 43 % 8.13 C
3366 31-07-2015 20:15:00 21 C 44 % 8.29 C
3367 31-07-2015 20:20:00 20.8 C 45 % 8.44 C
3368 31-07-2015 20:25:00 20.7 C 45 % 8.35 C
3369 31-07-2015 20:30:00 20.5 C 46 % 8.49 C
3370 31-07-2015 20:35:00 20.3 C 47 % 8.63 C
3371 31-07-2015 20:40:00 20.1 C 48 % 8.76 C
3372 31-07-2015 20:45:00 20.1 C 48 % 8.76 C
3373 31-07-2015 20:50:00 20.1 C 48 % 8.76 C
3374 31-07-2015 20:55:00 20.1 C 48 % 8.76 C
3375 31-07-2015 21:00:00 18.1 C 48 % 6.93 C
Sensor: Nr:Datum:Temp:Feuchte:Taupunkt:
Aussen-T/F 3376 31-07-2015 21:05:00 18.1 C 48 % 6.93 C
3377 31-07-2015 21:10:00 17.2 C 48 % 6.11 C
3378 31-07-2015 21:15:00 17.2 C 48 % 6.11 C
3379 31-07-2015 21:35:00 16.1 C 66 % 9.75 C
3380 31-07-2015 21:40:00 15.9 C 66 % 9.56 C
3381 31-07-2015 21:45:00 15.8 C 67 % 9.69 C
3382 31-07-2015 21:50:00 15.7 C 67 % 9.6 C
3383 31-07-2015 21:55:00 15.6 C 68 % 9.72 C
3384 31-07-2015 22:00:00 15.4 C 68 % 9.53 C
3385 31-07-2015 22:05:00 15.3 C 69 % 9.65 C
3386 31-07-2015 22:10:00 15.2 C 68 % 9.34 C
3387 31-07-2015 22:15:00 15.1 C 69 % 9.46 C
3388 31-07-2015 22:20:00 15.1 C 70 % 9.67 C
3389 31-07-2015 22:25:00 15 C 69 % 9.36 C
3390 31-07-2015 22:30:00 14.9 C 68 % 9.05 C
3391 31-07-2015 22:35:00 14.8 C 69 % 9.17 C
3392 31-07-2015 22:40:00 14.7 C 69 % 9.08 C
3393 31-07-2015 22:45:00 14.6 C 70 % 9.2 C
3394 31-07-2015 22:50:00 14.5 C 69 % 8.89 C
3395 31-07-2015 22:55:00 14.4 C 70 % 9 C
3396 31-07-2015 23:00:00 14.3 C 70 % 8.91 C
3397 31-07-2015 23:05:00 14.2 C 70 % 8.81 C
3398 31-07-2015 23:10:00 14.1 C 71 % 8.93 C
3399 31-07-2015 23:15:00 13.9 C 71 % 8.73 C
3400 31-07-2015 23:20:00 13.8 C 72 % 8.85 C
Sensor: Nr:Datum:Temp:Feuchte:Taupunkt:
Aussen-T/F 3401 31-07-2015 23:25:00 13.8 C 72 % 8.85 C
3402 31-07-2015 23:30:00 13.7 C 71 % 8.54 C
3403 31-07-2015 23:35:00 13.6 C 72 % 8.65 C
3404 31-07-2015 23:40:00 13.6 C 71 % 8.45 C
3405 31-07-2015 23:45:00 13.6 C 73 % 8.86 C
3406 31-07-2015 23:50:00 13.5 C 73 % 8.76 C
3407 31-07-2015 23:55:00 13.4 C 73 % 8.66 C
3408 01-08-2015 00:00:00 13.4 C 73 % 8.66 C
3409 01-08-2015 00:05:00 13.4 C 73 % 8.66 C
3410 01-08-2015 00:10:00 13.3 C 73 % 8.57 C
3411 01-08-2015 00:15:00 13.3 C 73 % 8.57 C
3412 01-08-2015 00:20:00 13.2 C 74 % 8.67 C
3413 01-08-2015 00:25:00 13.2 C 75 % 8.87 C
3414 01-08-2015 00:30:00 13.2 C 75 % 8.87 C
3415 01-08-2015 00:35:00 13.1 C 75 % 8.77 C
3416 01-08-2015 00:40:00 13.1 C 75 % 8.77 C
3417 01-08-2015 00:45:00 13.1 C 75 % 8.77 C
3418 01-08-2015 00:50:00 13.1 C 75 % 8.77 C
3419 01-08-2015 00:55:00 13.1 C 75 % 8.77 C
3420 01-08-2015 01:00:00 13.1 C 75 % 8.77 C
3421 01-08-2015 01:05:00 13.1 C 75 % 8.77 C
3422 01-08-2015 01:10:00 13.1 C 75 % 8.77 C
3423 01-08-2015 01:15:00 13.1 C 75 % 8.77 C
3424 01-08-2015 01:20:00 13.1 C 75 % 8.77 C
3425 01-08-2015 01:25:00 13.1 C 75 % 8.77 C
Sensor: Nr:Datum:Temp:Feuchte:Taupunkt:
Aussen-T/F 3426 01-08-2015 01:30:00 13.1 C 75 % 8.77 C
3427 01-08-2015 01:35:00 13.2 C 75 % 8.87 C
3428 01-08-2015 01:40:00 13.1 C 75 % 8.77 C
3429 01-08-2015 01:45:00 13.1 C 75 % 8.77 C
3430 01-08-2015 01:50:00 13.1 C 75 % 8.77 C
3431 01-08-2015 01:55:00 13 C 76 % 8.87 C
3432 01-08-2015 02:00:00 13 C 76 % 8.87 C
3433 01-08-2015 02:05:00 12.9 C 76 % 8.78 C
3434 01-08-2015 02:10:00 12.9 C 76 % 8.78 C
3435 01-08-2015 02:15:00 12.9 C 76 % 8.78 C
3436 01-08-2015 02:20:00 12.9 C 76 % 8.78 C
3437 01-08-2015 02:25:00 12.8 C 76 % 8.68 C
3438 01-08-2015 02:30:00 12.9 C 75 % 8.58 C
3439 01-08-2015 02:35:00 12.8 C 74 % 8.29 C
3440 01-08-2015 02:40:00 12.8 C 75 % 8.48 C
3441 01-08-2015 02:45:00 12.8 C 75 % 8.48 C
3442 01-08-2015 02:50:00 12.8 C 75 % 8.48 C
3443 01-08-2015 02:55:00 12.7 C 74 % 8.19 C
3444 01-08-2015 03:00:00 12.7 C 74 % 8.19 C
3445 01-08-2015 03:05:00 12.7 C 75 % 8.39 C
3446 01-08-2015 03:10:00 12.7 C 74 % 8.19 C
3447 01-08-2015 03:15:00 12.8 C 75 % 8.48 C
3448 01-08-2015 03:20:00 12.8 C 75 % 8.48 C
3449 01-08-2015 03:25:00 12.8 C 74 % 8.29 C
3450 01-08-2015 03:30:00 12.8 C 74 % 8.29 C
Sensor: Nr:Datum:Temp:Feuchte:Taupunkt:
Aussen-T/F 3451 01-08-2015 03:35:00 12.8 C 74 % 8.29 C
3452 01-08-2015 03:40:00 12.8 C 75 % 8.48 C
3453 01-08-2015 03:45:00 12.8 C 74 % 8.29 C
3454 01-08-2015 03:50:00 12.7 C 74 % 8.19 C
3455 01-08-2015 03:55:00 12.7 C 74 % 8.19 C
3456 01-08-2015 04:00:00 12.6 C 75 % 8.29 C
3457 01-08-2015 04:05:00 12.6 C 76 % 8.49 C
3458 01-08-2015 04:10:00 12.6 C 75 % 8.29 C
3459 01-08-2015 04:15:00 12.6 C 75 % 8.29 C
3460 01-08-2015 04:20:00 12.7 C 75 % 8.39 C
3461 01-08-2015 04:25:00 12.7 C 76 % 8.58 C
3462 01-08-2015 04:30:00 12.7 C 75 % 8.39 C
3463 01-08-2015 04:35:00 12.7 C 76 % 8.58 C
3464 01-08-2015 04:40:00 12.7 C 75 % 8.39 C
3465 01-08-2015 04:45:00 12.6 C 75 % 8.29 C
3466 01-08-2015 04:50:00 12.7 C 75 % 8.39 C
3467 01-08-2015 04:55:00 12.8 C 76 % 8.68 C
3468 01-08-2015 05:00:00 12.8 C 76 % 8.68 C
3469 01-08-2015 05:05:00 12.8 C 76 % 8.68 C
3470 01-08-2015 05:10:00 12.8 C 76 % 8.68 C
3471 01-08-2015 05:15:00 12.7 C 75 % 8.39 C
3472 01-08-2015 05:20:00 12.7 C 76 % 8.58 C
3473 01-08-2015 05:25:00 12.7 C 75 % 8.39 C
3474 01-08-2015 05:30:00 12.7 C 76 % 8.58 C
3475 01-08-2015 05:35:00 12.6 C 76 % 8.49 C
Sensor: Nr:Datum:Temp:Feuchte:Taupunkt:
Aussen-T/F 3476 01-08-2015 05:40:00 12.6 C 75 % 8.29 C
3477 01-08-2015 05:45:00 12.6 C 76 % 8.49 C
3478 01-08-2015 05:50:00 12.6 C 76 % 8.49 C
3479 01-08-2015 05:55:00 12.6 C 77 % 8.68 C
3480 01-08-2015 06:00:00 12.5 C 77 % 8.58 C
3481 01-08-2015 06:05:00 12.4 C 77 % 8.49 C
3482 01-08-2015 06:10:00 12.4 C 77 % 8.49 C
3483 01-08-2015 06:15:00 12.4 C 77 % 8.49 C
3484 01-08-2015 06:20:00 12.3 C 78 % 8.58 C
3485 01-08-2015 06:25:00 12.3 C 77 % 8.39 C
3486 01-08-2015 06:30:00 12.2 C 77 % 8.29 C
3487 01-08-2015 06:35:00 12.2 C 78 % 8.48 C
3488 01-08-2015 06:40:00 12.1 C 79 % 8.57 C
3489 01-08-2015 06:45:00 12 C 79 % 8.48 C
3490 01-08-2015 06:50:00 11.9 C 80 % 8.56 C
3491 01-08-2015 06:55:00 11.9 C 80 % 8.56 C
3492 01-08-2015 07:00:00 12 C 81 % 8.84 C
3493 01-08-2015 07:05:00 12.1 C 81 % 8.94 C
3494 01-08-2015 07:10:00 12.3 C 81 % 9.14 C
3495 01-08-2015 07:15:00 12.4 C 82 % 9.42 C
3496 01-08-2015 07:20:00 12.6 C 82 % 9.61 C
3497 01-08-2015 07:25:00 12.7 C 81 % 9.53 C
3498 01-08-2015 07:30:00 12.9 C 81 % 9.72 C
3499 01-08-2015 07:35:00 13 C 81 % 9.82 C
3500 01-08-2015 07:40:00 13.2 C 80 % 9.83 C
Sensor: Nr:Datum:Temp:Feuchte:Taupunkt:
Aussen-T/F 3501 01-08-2015 07:45:00 13.3 C 80 % 9.93 C
3502 01-08-2015 07:50:00 13.4 C 80 % 10.02 C
3503 01-08-2015 07:55:00 13.6 C 79 % 10.03 C
3504 01-08-2015 08:00:00 13.7 C 78 % 9.94 C
3505 01-08-2015 08:05:00 13.8 C 78 % 10.03 C
3506 01-08-2015 08:10:00 13.9 C 78 % 10.13 C
3507 01-08-2015 08:15:00 13.9 C 78 % 10.13 C
3508 01-08-2015 08:20:00 14.1 C 79 % 10.52 C
3509 01-08-2015 08:25:00 14.2 C 77 % 10.23 C
3510 01-08-2015 08:30:00 14.4 C 75 % 10.03 C
3511 01-08-2015 08:35:00 14.6 C 73 % 9.82 C
3512 01-08-2015 08:40:00 14.7 C 71 % 9.5 C
3513 01-08-2015 08:45:00 14.8 C 72 % 9.81 C
3514 01-08-2015 08:50:00 14.9 C 71 % 9.69 C
3515 01-08-2015 08:55:00 15.1 C 71 % 9.89 C
3516 01-08-2015 09:00:00 15.3 C 70 % 9.87 C
3517 01-08-2015 09:05:00 15.3 C 70 % 9.87 C
3518 01-08-2015 09:10:00 15.3 C 70 % 9.87 C
3519 01-08-2015 09:15:00 15.3 C 71 % 10.08 C
3520 01-08-2015 09:20:00 15.2 C 72 % 10.19 C
3521 01-08-2015 09:25:00 15.2 C 72 % 10.19 C
3522 01-08-2015 09:30:00 15.3 C 71 % 10.08 C
3523 01-08-2015 09:35:00 15.4 C 69 % 9.75 C
3524 01-08-2015 09:40:00 15.5 C 71 % 10.27 C
3525 01-08-2015 09:45:00 15.7 C 69 % 10.03 C
Sensor: Nr:Datum:Temp:Feuchte:Taupunkt:
Aussen-T/F 3526 01-08-2015 09:50:00 15.8 C 70 % 10.34 C
3527 01-08-2015 09:55:00 15.9 C 71 % 10.65 C
3528 01-08-2015 10:00:00 15.9 C 68 % 10.01 C
3529 01-08-2015 10:05:00 16 C 68 % 10.1 C
3530 01-08-2015 10:10:00 16.2 C 68 % 10.29 C
3531 01-08-2015 10:15:00 16.3 C 67 % 10.17 C
3532 01-08-2015 10:20:00 16.6 C 65 % 10 C
3533 01-08-2015 10:25:00 17 C 65 % 10.38 C
3534 01-08-2015 10:30:00 17.3 C 65 % 10.66 C
3535 01-08-2015 10:35:00 17.7 C 63 % 10.57 C
3536 01-08-2015 10:40:00 17.9 C 61 % 10.28 C
3537 01-08-2015 10:45:00 18.1 C 62 % 10.71 C
3538 01-08-2015 10:50:00 18.3 C 60 % 10.41 C
3539 01-08-2015 10:55:00 18.6 C 60 % 10.69 C
3540 01-08-2015 11:00:00 18.8 C 58 % 10.37 C
3541 01-08-2015 11:05:00 19.1 C 60 % 11.16 C
3542 01-08-2015 11:10:00 19.7 C 59 % 11.47 C
3543 01-08-2015 11:15:00 20.1 C 54 % 10.51 C
3544 01-08-2015 11:20:00 20.3 C 54 % 10.69 C
3545 01-08-2015 11:25:00 20.5 C 56 % 11.43 C
3546 01-08-2015 11:30:00 20.7 C 54 % 11.07 C
3547 01-08-2015 11:35:00 20.9 C 52 % 10.68 C
3548 01-08-2015 11:40:00 21 C 53 % 11.06 C
3549 01-08-2015 11:45:00 21.2 C 51 % 10.67 C
3550 01-08-2015 11:50:00 21.4 C 50 % 10.55 C
Sensor: Nr:Datum:Temp:Feuchte:Taupunkt:
Aussen-T/F 3551 01-08-2015 11:55:00 21.6 C 52 % 11.33 C
3552 01-08-2015 12:00:00 21.9 C 50 % 11.01 C
3553 01-08-2015 12:05:00 22.1 C 50 % 11.2 C
3554 01-08-2015 12:10:00 22.4 C 49 % 11.17 C
3555 01-08-2015 12:15:00 22.7 C 48 % 11.13 C
3556 01-08-2015 12:20:00 22.7 C 46 % 10.49 C
3557 01-08-2015 12:25:00 22.9 C 47 % 11 C
3558 01-08-2015 12:30:00 23.2 C 46 % 10.95 C
3559 01-08-2015 12:35:00 23.3 C 45 % 10.71 C
3560 01-08-2015 12:40:00 23.5 C 45 % 10.89 C
3561 01-08-2015 12:45:00 23.8 C 47 % 11.82 C
3562 01-08-2015 12:50:00 24.3 C 44 % 11.27 C
3563 01-08-2015 12:55:00 24.4 C 44 % 11.36 C
3564 01-08-2015 13:00:00 24.4 C 43 % 11.02 C
3565 01-08-2015 13:05:00 24.6 C 41 % 10.48 C
3566 01-08-2015 13:10:00 24.8 C 40 % 10.29 C
3567 01-08-2015 13:15:00 25 C 42 % 11.2 C
3568 01-08-2015 13:20:00 24.9 C 40 % 10.38 C
3569 01-08-2015 13:25:00 24.9 C 40 % 10.38 C
3570 01-08-2015 13:30:00 25.1 C 42 % 11.29 C
3571 01-08-2015 13:35:00 25.5 C 41 % 11.29 C
3572 01-08-2015 13:40:00 25.7 C 39 % 10.71 C
3573 01-08-2015 13:45:00 25.8 C 40 % 11.18 C
3574 01-08-2015 13:50:00 26.1 C 40 % 11.45 C
3575 01-08-2015 13:55:00 26.3 C 38 % 10.86 C
Sensor: Nr:Datum:Temp:Feuchte:Taupunkt:
Aussen-T/F 3576 01-08-2015 14:00:00 26.6 C 37 % 10.72 C
3577 01-08-2015 14:05:00 26.7 C 35 % 9.98 C
3578 01-08-2015 14:10:00 26.6 C 38 % 11.12 C
3579 01-08-2015 14:15:00 26.7 C 37 % 10.81 C
3580 01-08-2015 14:20:00 26.8 C 39 % 11.69 C
3581 01-08-2015 14:25:00 27 C 36 % 10.66 C
3582 01-08-2015 14:30:00 27 C 37 % 11.07 C
3583 01-08-2015 14:35:00 26.9 C 38 % 11.39 C
3584 01-08-2015 14:40:00 27.2 C 37 % 11.25 C
3585 01-08-2015 14:45:00 27.4 C 37 % 11.43 C
3586 01-08-2015 14:50:00 27.3 C 36 % 10.93 C
3587 01-08-2015 14:55:00 27.4 C 37 % 11.43 C
3588 01-08-2015 15:00:00 27.7 C 35 % 10.85 C
3589 01-08-2015 15:05:00 27.7 C 35 % 10.85 C
3590 01-08-2015 15:10:00 27.8 C 35 % 10.94 C
3591 01-08-2015 15:15:00 27.8 C 35 % 10.94 C
3592 01-08-2015 15:20:00 27.9 C 35 % 11.03 C
3593 01-08-2015 15:25:00 28.1 C 33 % 10.32 C
3594 01-08-2015 15:30:00 27.9 C 34 % 10.59 C
3595 01-08-2015 15:35:00 28 C 36 % 11.54 C
3596 01-08-2015 15:40:00 28.3 C 34 % 10.94 C
3597 01-08-2015 15:45:00 28.3 C 35 % 11.38 C
3598 01-08-2015 15:50:00 28.3 C 36 % 11.81 C
3599 01-08-2015 15:55:00 28.3 C 33 % 10.49 C
3600 01-08-2015 16:00:00 28.1 C 34 % 10.77 C
Sensor: Nr:Datum:Temp:Feuchte:Taupunkt:
Aussen-T/F 3601 01-08-2015 16:05:00 28.3 C 33 % 10.49 C
3602 01-08-2015 16:10:00 28.5 C 32 % 10.21 C
3603 01-08-2015 16:15:00 28.4 C 34 % 11.03 C
3604 01-08-2015 16:20:00 28.6 C 33 % 10.76 C
3605 01-08-2015 16:25:00 28.9 C 33 % 11.02 C
3606 01-08-2015 16:30:00 28.8 C 34 % 11.38 C
3607 01-08-2015 16:35:00 28.7 C 33 % 10.84 C
3608 01-08-2015 16:40:00 27.9 C 32 % 9.69 C
3609 01-08-2015 16:45:00 27.3 C 36 % 10.93 C
3610 01-08-2015 16:50:00 27.1 C 35 % 10.33 C
3611 01-08-2015 16:55:00 26.9 C 35 % 10.15 C
3612 01-08-2015 17:00:00 27.1 C 37 % 11.16 C
3613 01-08-2015 17:05:00 27.6 C 36 % 11.19 C
3614 01-08-2015 17:10:00 27.9 C 35 % 11.03 C
3615 01-08-2015 17:15:00 28.1 C 35 % 11.2 C
3616 01-08-2015 17:20:00 27.9 C 33 % 10.15 C
3617 01-08-2015 17:25:00 27.7 C 34 % 10.42 C
3618 01-08-2015 17:30:00 27.6 C 33 % 9.89 C
3619 01-08-2015 17:35:00 27.7 C 35 % 10.85 C
3620 01-08-2015 17:40:00 27.6 C 33 % 9.89 C
3621 01-08-2015 17:45:00 27.7 C 34 % 10.42 C
3622 01-08-2015 17:50:00 27.6 C 33 % 9.89 C
3623 01-08-2015 17:55:00 26.8 C 42 % 12.82 C
3624 01-08-2015 18:00:00 26.1 C 43 % 12.55 C
3625 01-08-2015 18:05:00 25.3 C 48 % 13.5 C
Sensor: Nr:Datum:Temp:Feuchte:Taupunkt:
Aussen-T/F 3626 01-08-2015 18:10:00 24.7 C 50 % 13.58 C
3627 01-08-2015 18:15:00 24.5 C 48 % 12.77 C
3628 01-08-2015 18:20:00 24.5 C 45 % 11.79 C
3629 01-08-2015 18:25:00 25.3 C 41 % 11.11 C
3630 01-08-2015 18:30:00 26.4 C 39 % 11.34 C
3631 01-08-2015 18:35:00 26.9 C 38 % 11.39 C
3632 01-08-2015 18:40:00 27.5 C 36 % 11.1 C
3633 01-08-2015 18:45:00 27.9 C 34 % 10.59 C
3634 01-08-2015 18:50:00 28.3 C 34 % 10.94 C
3635 01-08-2015 18:55:00 28.4 C 33 % 10.58 C
3636 01-08-2015 19:00:00 28.3 C 34 % 10.94 C
3637 01-08-2015 19:05:00 28.3 C 33 % 10.49 C
3638 01-08-2015 19:10:00 28.2 C 34 % 10.86 C
3639 01-08-2015 19:15:00 27.9 C 36 % 11.45 C
3640 01-08-2015 19:20:00 27.6 C 37 % 11.6 C
3641 01-08-2015 19:25:00 27.4 C 37 % 11.43 C
3642 01-08-2015 19:30:00 27 C 38 % 11.48 C
3643 01-08-2015 19:35:00 26.7 C 41 % 12.36 C
3644 01-08-2015 19:40:00 26.2 C 40 % 11.54 C
3645 01-08-2015 19:45:00 25.8 C 40 % 11.18 C
3646 01-08-2015 19:50:00 25.4 C 41 % 11.2 C
3647 01-08-2015 19:55:00 25.1 C 41 % 10.93 C
3648 01-08-2015 20:00:00 24.7 C 42 % 10.93 C
3649 01-08-2015 20:05:00 24.6 C 43 % 11.2 C
3650 01-08-2015 20:10:00 24.4 C 43 % 11.02 C
Sensor: Nr:Datum:Temp:Feuchte:Taupunkt:
Aussen-T/F 3651 01-08-2015 20:15:00 24.1 C 48 % 12.41 C
3652 01-08-2015 20:20:00 23.4 C 49 % 12.08 C
3653 01-08-2015 20:25:00 22.9 C 51 % 12.23 C
3654 01-08-2015 20:30:00 22.6 C 53 % 12.54 C
3655 01-08-2015 20:35:00 22.2 C 54 % 12.45 C
3656 01-08-2015 20:40:00 21.9 C 53 % 11.89 C
3657 01-08-2015 20:45:00 21.8 C 53 % 11.8 C
3658 01-08-2015 20:50:00 21.8 C 54 % 12.08 C
3659 01-08-2015 20:55:00 21.7 C 55 % 12.27 C
3660 01-08-2015 21:00:00 21.5 C 55 % 12.08 C
3661 01-08-2015 21:05:00 21.2 C 56 % 12.08 C
3662 01-08-2015 21:10:00 21.1 C 57 % 12.25 C
3663 01-08-2015 21:15:00 20.8 C 56 % 11.71 C
3664 01-08-2015 21:20:00 20.6 C 57 % 11.79 C
3665 01-08-2015 21:25:00 20.3 C 59 % 12.03 C
3666 01-08-2015 21:30:00 20.1 C 60 % 12.1 C
3667 01-08-2015 21:35:00 19.9 C 61 % 12.16 C
3668 01-08-2015 21:40:00 19.8 C 61 % 12.07 C
3669 01-08-2015 21:45:00 19.6 C 62 % 12.13 C
3670 01-08-2015 21:50:00 19.4 C 63 % 12.18 C
3671 01-08-2015 21:55:00 19.3 C 62 % 11.84 C
3672 01-08-2015 22:00:00 19.1 C 63 % 11.9 C
3673 01-08-2015 22:05:00 19.1 C 63 % 11.9 C
3674 01-08-2015 22:10:00 18.9 C 63 % 11.71 C
3675 01-08-2015 22:15:00 18.8 C 64 % 11.85 C
Sensor: Nr:Datum:Temp:Feuchte:Taupunkt:
Aussen-T/F 3676 01-08-2015 22:20:00 18.7 C 65 % 11.99 C
3677 01-08-2015 22:25:00 18.6 C 65 % 11.9 C
3678 01-08-2015 22:30:00 18.5 C 64 % 11.57 C
3679 01-08-2015 22:35:00 18.4 C 65 % 11.71 C
3680 01-08-2015 22:40:00 18.4 C 66 % 11.94 C
3681 01-08-2015 22:45:00 18.3 C 65 % 11.61 C
3682 01-08-2015 22:50:00 18.2 C 65 % 11.52 C
3683 01-08-2015 22:55:00 18.2 C 66 % 11.75 C
3684 01-08-2015 23:00:00 18.1 C 66 % 11.65 C
3685 01-08-2015 23:05:00 18.1 C 65 % 11.42 C
3686 01-08-2015 23:10:00 18 C 66 % 11.56 C
3687 01-08-2015 23:15:00 17.9 C 67 % 11.69 C
3688 01-08-2015 23:20:00 17.9 C 67 % 11.69 C
3689 01-08-2015 23:25:00 17.9 C 66 % 11.46 C
3690 01-08-2015 23:30:00 17.8 C 66 % 11.37 C
3691 01-08-2015 23:35:00 17.8 C 67 % 11.6 C
3692 01-08-2015 23:40:00 17.7 C 66 % 11.27 C
3693 01-08-2015 23:45:00 17.7 C 67 % 11.5 C
3694 01-08-2015 23:50:00 17.6 C 67 % 11.4 C
3695 01-08-2015 23:55:00 17.7 C 68 % 11.72 C
3696 02-08-2015 00:00:00 17.6 C 68 % 11.63 C
3697 02-08-2015 00:05:00 17.6 C 68 % 11.63 C
3698 02-08-2015 00:10:00 17.4 C 67 % 11.21 C
3699 02-08-2015 00:15:00 17.5 C 68 % 11.53 C
3700 02-08-2015 00:20:00 17.5 C 67 % 11.31 C
Sensor: Nr:Datum:Temp:Feuchte:Taupunkt:
Aussen-T/F 3701 02-08-2015 00:25:00 17.4 C 68 % 11.44 C
3702 02-08-2015 00:30:00 17.4 C 68 % 11.44 C
3703 02-08-2015 00:35:00 17.3 C 69 % 11.56 C
3704 02-08-2015 00:40:00 17.2 C 70 % 11.68 C
3705 02-08-2015 00:45:00 17.1 C 70 % 11.59 C
3706 02-08-2015 00:50:00 17 C 71 % 11.71 C
3707 02-08-2015 00:55:00 16.9 C 70 % 11.4 C
3708 02-08-2015 01:00:00 16.8 C 70 % 11.3 C
3709 02-08-2015 01:05:00 16.7 C 70 % 11.21 C
3710 02-08-2015 01:10:00 16.7 C 71 % 11.42 C
3711 02-08-2015 01:15:00 16.6 C 71 % 11.32 C
3712 02-08-2015 01:20:00 16.4 C 72 % 11.34 C
3713 02-08-2015 01:25:00 16.2 C 73 % 11.36 C
3714 02-08-2015 01:30:00 16.1 C 73 % 11.26 C
3715 02-08-2015 01:35:00 16 C 73 % 11.17 C
3716 02-08-2015 01:40:00 16 C 74 % 11.37 C
3717 02-08-2015 01:45:00 15.9 C 73 % 11.07 C
3718 02-08-2015 01:50:00 15.9 C 73 % 11.07 C
3719 02-08-2015 01:55:00 16.1 C 72 % 11.06 C
3720 02-08-2015 02:00:00 16.1 C 72 % 11.06 C
3721 02-08-2015 02:05:00 16 C 73 % 11.17 C
3722 02-08-2015 02:10:00 15.8 C 74 % 11.18 C
3723 02-08-2015 02:15:00 15.7 C 73 % 10.88 C
3724 02-08-2015 02:20:00 15.7 C 74 % 11.08 C
3725 02-08-2015 02:25:00 15.6 C 74 % 10.99 C
Sensor: Nr:Datum:Temp:Feuchte:Taupunkt:
Aussen-T/F 3726 02-08-2015 02:30:00 15.5 C 75 % 11.09 C
3727 02-08-2015 02:35:00 15.4 C 75 % 11 C
3728 02-08-2015 02:40:00 15.3 C 76 % 11.1 C
3729 02-08-2015 02:45:00 15.3 C 76 % 11.1 C
3730 02-08-2015 02:50:00 15.3 C 76 % 11.1 C
3731 02-08-2015 02:55:00 15.2 C 76 % 11 C
3732 02-08-2015 03:00:00 15.1 C 77 % 11.1 C
3733 02-08-2015 03:05:00 15 C 77 % 11 C
3734 02-08-2015 03:10:00 14.8 C 78 % 11 C
3735 02-08-2015 03:15:00 14.7 C 78 % 10.91 C
3736 02-08-2015 03:20:00 14.7 C 78 % 10.91 C
3737 02-08-2015 03:25:00 14.6 C 79 % 11 C
3738 02-08-2015 03:30:00 14.4 C 80 % 11 C
3739 02-08-2015 03:35:00 14.3 C 80 % 10.9 C
3740 02-08-2015 03:40:00 14.2 C 80 % 10.8 C
3741 02-08-2015 03:45:00 14.1 C 81 % 10.89 C
3742 02-08-2015 03:50:00 14.1 C 81 % 10.89 C
3743 02-08-2015 03:55:00 13.9 C 82 % 10.88 C
3744 02-08-2015 04:00:00 13.9 C 82 % 10.88 C
3745 02-08-2015 04:05:00 13.9 C 82 % 10.88 C
3746 02-08-2015 04:10:00 13.8 C 82 % 10.78 C
3747 02-08-2015 04:15:00 13.7 C 82 % 10.69 C
3748 02-08-2015 04:20:00 13.7 C 83 % 10.87 C
3749 02-08-2015 04:25:00 13.6 C 83 % 10.77 C
3750 02-08-2015 04:30:00 13.4 C 83 % 10.57 C
Sensor: Nr:Datum:Temp:Feuchte:Taupunkt:
Aussen-T/F 3751 02-08-2015 04:35:00 13.4 C 84 % 10.75 C
3752 02-08-2015 04:40:00 13.3 C 84 % 10.66 C
3753 02-08-2015 04:45:00 13.2 C 84 % 10.56 C
3754 02-08-2015 04:50:00 13.1 C 85 % 10.64 C
3755 02-08-2015 04:55:00 13 C 85 % 10.54 C
3756 02-08-2015 05:00:00 12.9 C 85 % 10.44 C
3757 02-08-2015 05:05:00 12.8 C 86 % 10.52 C
3758 02-08-2015 05:10:00 12.8 C 86 % 10.52 C
3759 02-08-2015 05:15:00 12.7 C 86 % 10.42 C
3760 02-08-2015 05:20:00 12.6 C 86 % 10.32 C
3761 02-08-2015 05:25:00 12.5 C 86 % 10.22 C
3762 02-08-2015 05:30:00 12.4 C 87 % 10.3 C
3763 02-08-2015 05:35:00 12.4 C 87 % 10.3 C
3764 02-08-2015 05:40:00 12.4 C 88 % 10.47 C
3765 02-08-2015 05:45:00 12.3 C 88 % 10.37 C
3766 02-08-2015 05:50:00 12.3 C 88 % 10.37 C
3767 02-08-2015 05:55:00 12.2 C 88 % 10.27 C
3768 02-08-2015 06:00:00 12.1 C 88 % 10.17 C
3769 02-08-2015 06:05:00 12.1 C 88 % 10.17 C
3770 02-08-2015 06:10:00 12.1 C 88 % 10.17 C
3771 02-08-2015 06:15:00 12 C 88 % 10.08 C
3772 02-08-2015 06:20:00 12 C 89 % 10.25 C
3773 02-08-2015 06:25:00 12 C 89 % 10.25 C
3774 02-08-2015 06:30:00 12 C 89 % 10.25 C
3775 02-08-2015 06:35:00 12 C 89 % 10.25 C
Sensor: Nr:Datum:Temp:Feuchte:Taupunkt:
Aussen-T/F 3776 02-08-2015 06:40:00 12 C 89 % 10.25 C
3777 02-08-2015 06:45:00 12 C 89 % 10.25 C
3778 02-08-2015 06:50:00 12 C 89 % 10.25 C
3779 02-08-2015 06:55:00 12 C 89 % 10.25 C
3780 02-08-2015 07:00:00 12.1 C 89 % 10.34 C
3781 02-08-2015 07:05:00 12.2 C 89 % 10.44 C
3782 02-08-2015 07:10:00 12.2 C 89 % 10.44 C
3783 02-08-2015 07:15:00 12.2 C 89 % 10.44 C
3784 02-08-2015 07:20:00 12.2 C 89 % 10.44 C
3785 02-08-2015 07:25:00 12.3 C 89 % 10.54 C
3786 02-08-2015 07:30:00 12.3 C 89 % 10.54 C
3787 02-08-2015 07:35:00 12.4 C 89 % 10.64 C
3788 02-08-2015 07:40:00 12.4 C 89 % 10.64 C
3789 02-08-2015 07:45:00 12.5 C 89 % 10.74 C
3790 02-08-2015 07:50:00 12.6 C 89 % 10.84 C
3791 02-08-2015 07:55:00 12.6 C 89 % 10.84 C
3792 02-08-2015 08:00:00 12.7 C 89 % 10.94 C
3793 02-08-2015 08:05:00 12.7 C 89 % 10.94 C
3794 02-08-2015 08:10:00 12.8 C 89 % 11.03 C
3795 02-08-2015 08:15:00 12.9 C 89 % 11.13 C
3796 02-08-2015 08:20:00 13.1 C 89 % 11.33 C
3797 02-08-2015 08:25:00 13.2 C 88 % 11.26 C
3798 02-08-2015 08:30:00 13.4 C 88 % 11.45 C
3799 02-08-2015 08:35:00 13.7 C 88 % 11.75 C
3800 02-08-2015 08:40:00 13.9 C 87 % 11.77 C
Sensor: Nr:Datum:Temp:Feuchte:Taupunkt:
Aussen-T/F 3801 02-08-2015 08:45:00 14.3 C 87 % 12.17 C
3802 02-08-2015 08:50:00 14.7 C 85 % 12.21 C
3803 02-08-2015 08:55:00 14.8 C 84 % 12.12 C
3804 02-08-2015 09:00:00 14.9 C 83 % 12.04 C
3805 02-08-2015 09:05:00 14.9 C 83 % 12.04 C
3806 02-08-2015 09:10:00 15.1 C 83 % 12.24 C
3807 02-08-2015 09:15:00 15.1 C 83 % 12.24 C
3808 02-08-2015 09:20:00 15.2 C 82 % 12.15 C
3809 02-08-2015 09:25:00 15.4 C 83 % 12.53 C
3810 02-08-2015 09:30:00 15.5 C 82 % 12.44 C
3811 02-08-2015 09:35:00 15.7 C 82 % 12.64 C
3812 02-08-2015 09:40:00 15.8 C 82 % 12.74 C
3813 02-08-2015 09:45:00 15.9 C 82 % 12.83 C
3814 02-08-2015 09:50:00 16.1 C 81 % 12.84 C
3815 02-08-2015 09:55:00 16.2 C 80 % 12.75 C
3816 02-08-2015 10:00:00 16.3 C 80 % 12.85 C
3817 02-08-2015 10:05:00 16.4 C 79 % 12.75 C
3818 02-08-2015 10:10:00 16.6 C 79 % 12.95 C
3819 02-08-2015 10:15:00 16.8 C 78 % 12.94 C
3820 02-08-2015 10:20:00 17.1 C 77 % 13.04 C
3821 02-08-2015 10:25:00 17.6 C 75 % 13.12 C
3822 02-08-2015 10:30:00 18.1 C 72 % 12.98 C
3823 02-08-2015 10:35:00 18.4 C 72 % 13.26 C
3824 02-08-2015 10:40:00 18.8 C 69 % 13 C
3825 02-08-2015 10:45:00 19.2 C 68 % 13.15 C
Sensor: Nr:Datum:Temp:Feuchte:Taupunkt:
Aussen-T/F 3826 02-08-2015 10:50:00 19.6 C 67 % 13.31 C
3827 02-08-2015 10:55:00 20 C 65 % 13.22 C
3828 02-08-2015 11:00:00 20.4 C 64 % 13.37 C
3829 02-08-2015 11:05:00 20.8 C 63 % 13.5 C
3830 02-08-2015 11:10:00 21.3 C 62 % 13.73 C
3831 02-08-2015 11:15:00 21.8 C 58 % 13.17 C
3832 02-08-2015 11:20:00 22.3 C 60 % 14.16 C
3833 02-08-2015 11:25:00 22.6 C 60 % 14.44 C
3834 02-08-2015 11:30:00 22.7 C 56 % 13.47 C
3835 02-08-2015 11:35:00 22.9 C 55 % 13.38 C
3836 02-08-2015 11:40:00 23.2 C 54 % 13.38 C
3837 02-08-2015 11:45:00 23.5 C 53 % 13.37 C
3838 02-08-2015 11:50:00 23.8 C 53 % 13.65 C
3839 02-08-2015 11:55:00 24.1 C 54 % 14.21 C
3840 02-08-2015 12:00:00 24.4 C 50 % 13.31 C
3841 02-08-2015 12:05:00 24.6 C 51 % 13.79 C
3842 02-08-2015 12:10:00 24.6 C 51 % 13.79 C
3843 02-08-2015 12:15:00 24.8 C 51 % 13.98 C
3844 02-08-2015 12:20:00 25 C 49 % 13.55 C
3845 02-08-2015 12:25:00 24.9 C 49 % 13.46 C
3846 02-08-2015 12:30:00 25.2 C 51 % 14.35 C
3847 02-08-2015 12:35:00 25.5 C 48 % 13.69 C
3848 02-08-2015 12:40:00 25.7 C 49 % 14.19 C
3849 02-08-2015 12:45:00 26 C 47 % 13.82 C
3850 02-08-2015 12:50:00 26.1 C 46 % 13.58 C
Sensor: Nr:Datum:Temp:Feuchte:Taupunkt:
Aussen-T/F 3851 02-08-2015 12:55:00 26.1 C 47 % 13.91 C
3852 02-08-2015 13:00:00 26.1 C 47 % 13.91 C
3853 02-08-2015 13:05:00 26.4 C 45 % 13.51 C
3854 02-08-2015 13:10:00 26.6 C 44 % 13.35 C
3855 02-08-2015 13:15:00 26.9 C 44 % 13.62 C
3856 02-08-2015 13:20:00 27.2 C 44 % 13.89 C
3857 02-08-2015 13:25:00 27.4 C 43 % 13.72 C
3858 02-08-2015 13:30:00 27.7 C 41 % 13.25 C
3859 02-08-2015 13:35:00 27.6 C 42 % 13.53 C
3860 02-08-2015 13:40:00 27.9 C 40 % 13.05 C
3861 02-08-2015 13:45:00 27.8 C 41 % 13.34 C
3862 02-08-2015 13:50:00 27.8 C 42 % 13.71 C
3863 02-08-2015 13:55:00 27.9 C 42 % 13.8 C
3864 02-08-2015 14:00:00 28.1 C 40 % 13.23 C
3865 02-08-2015 14:05:00 28.2 C 41 % 13.7 C
3866 02-08-2015 14:10:00 28.5 C 39 % 13.2 C
3867 02-08-2015 14:15:00 28.4 C 39 % 13.11 C
3868 02-08-2015 14:20:00 28.3 C 39 % 13.02 C
3869 02-08-2015 14:25:00 28.3 C 39 % 13.02 C
3870 02-08-2015 14:30:00 28.5 C 40 % 13.59 C
3871 02-08-2015 14:35:00 28.7 C 39 % 13.38 C
3872 02-08-2015 14:40:00 28.8 C 38 % 13.07 C
3873 02-08-2015 14:45:00 29 C 40 % 14.03 C
3874 02-08-2015 14:50:00 29.1 C 39 % 13.73 C
3875 02-08-2015 14:55:00 29.1 C 38 % 13.34 C
Sensor: Nr:Datum:Temp:Feuchte:Taupunkt:
Aussen-T/F 3876 02-08-2015 15:00:00 29.1 C 38 % 13.34 C
3877 02-08-2015 15:05:00 28.7 C 37 % 12.57 C
3878 02-08-2015 15:10:00 28.7 C 39 % 13.38 C
3879 02-08-2015 15:15:00 29.1 C 38 % 13.34 C
3880 02-08-2015 15:20:00 29.3 C 36 % 12.68 C